[[{"header":{"parameterUnit":"m.s-1","parameterCategory":1,"la1":30.6,"la2":29.2853,"lo1":-89.7004,"lo2":-87.6739,"dy":0.0162,"dx":0.0183,"nx":112,"ny":82,"refTime":"2024-03-19T18:00:00:Z","depth":0,"parameterNumber":2,"parameterNumberName":"U-component_of_WINDS"},"data":[0.0,0.0,0.0,0.0,0.0,0.0,0.0,0.0,0.0,0.0,0.0,0.0,0.0,0.0,0.0,0.0,0.0,0.0,0.0,0.0,0.0,0.0,0.0,0.0,0.0,0.0,0.0,0.0,0.0,0.0,0.0,0.0,0.0,0.0,0.0,0.0,0.0,0.0,0.0,0.0,0.0,0.0,0.0,0.0,0.0,0.0,0.0,0.0,0.0,0.0,0.0,0.0,0.0,0.0,0.0,0.0,0.0,0.0,0.0,0.0,0.0,0.0,0.0,0.0,0.0,0.0,0.0,0.0,0.0,0.0,0.0,0.0,0.0,0.0,0.0,0.0,0.0,0.0,0.0,0.0,0.0,0.0,0.0,0.0,0.0,0.0,0.0,0.0,0.0,0.0,-1.3325,-1.4145,-1.6128,-1.6816,-1.543,-1.5501,-1.4537,-1.1994,0.0,0.0,0.0,0.0,0.0,0.0,0.0,0.0,0.0,0.0,0.0,0.0,0.0,0.0,0.0,0.0,0.0,0.0,0.0,0.0,0.0,0.0,0.0,0.0,0.0,0.0,0.0,0.0,0.0,0.0,0.0,0.0,0.0,0.0,0.0,0.0,0.0,0.0,0.0,0.0,0.0,0.0,0.0,0.0,0.0,0.0,0.0,0.0,0.0,0.0,0.0,0.0,0.0,0.0,0.0,0.0,0.0,0.0,0.0,0.0,0.0,0.0,0.0,0.0,0.0,0.0,0.0,0.0,0.0,0.0,0.0,0.0,0.0,0.0,0.0,0.0,0.0,0.0,0.0,0.0,0.0,0.0,0.0,0.0,0.0,0.0,0.0,0.0,0.0,0.0,0.0,0.0,0.0,0.0,0.0,0.0,0.0,0.0,0.0,0.0,0.0,0.0,0.0,0.0,-1.295,-1.4992,-1.6537,-1.6699,-1.5019,-1.4609,-1.3575,-1.1599,0.0,0.0,0.0,0.0,0.0,0.0,0.0,0.0,0.0,0.0,0.0,0.0,0.0,0.0,0.0,0.0,0.0,0.0,0.0,0.0,0.0,0.0,0.0,0.0,0.0,0.0,0.0,0.0,0.0,0.0,0.0,0.0,0.0,0.0,0.0,0.0,0.0,0.0,0.0,0.0,0.0,0.0,0.0,0.0,0.0,0.0,0.0,0.0,0.0,0.0,0.0,0.0,0.0,0.0,0.0,0.0,0.0,0.0,0.0,0.0,0.0,0.0,0.0,0.0,0.0,0.0,0.0,0.0,0.0,0.0,0.0,0.0,0.0,0.0,0.0,0.0,0.0,0.0,0.0,0.0,0.0,0.0,0.0,0.0,0.0,0.0,0.0,0.0,0.0,0.0,0.0,0.0,0.0,0.0,0.0,0.0,0.0,0.0,0.0,0.0,0.0,0.0,0.0,-1.2797,-1.3511,-1.5547,-1.6523,-1.6416,-1.4912,-1.4447,-1.3392,-1.1524,-1.2101,0.0,0.0,0.0,0.0,0.0,0.0,0.0,0.0,0.0,0.0,0.0,0.0,0.0,0.0,0.0,0.0,0.0,0.0,0.0,0.0,0.0,0.0,0.0,0.0,0.0,0.0,0.0,0.0,0.0,0.0,0.0,0.0,0.0,0.0,0.0,0.0,0.0,0.0,0.0,0.0,0.0,0.0,0.0,0.0,0.0,0.0,0.0,0.0,0.0,0.0,0.0,0.0,0.0,0.0,0.0,0.0,0.0,0.0,0.0,0.0,0.0,0.0,0.0,0.0,0.0,0.0,0.0,0.0,0.0,0.0,0.0,0.0,0.0,0.0,0.0,0.0,0.0,0.0,0.0,0.0,0.0,0.0,0.0,0.0,0.0,0.0,0.0,0.0,0.0,0.0,0.0,0.0,0.0,0.0,0.0,0.0,0.0,0.0,0.0,0.0,0.0,0.0,-1.3577,-1.4378,-1.5772,-1.6123,-1.583,-1.4727,-1.3952,-1.2923,-1.1491,-1.139,0.0,0.0,0.0,0.0,0.0,0.0,0.0,0.0,0.0,0.0,0.0,0.0,0.0,0.0,0.0,0.0,0.0,0.0,0.0,0.0,0.0,0.0,0.0,0.0,0.0,0.0,0.0,0.0,0.0,0.0,0.0,0.0,0.0,0.0,0.0,0.0,0.0,0.0,0.0,0.0,0.0,0.0,0.0,0.0,0.0,0.0,0.0,0.0,0.0,0.0,0.0,0.0,0.0,0.0,0.0,0.0,0.0,0.0,0.0,0.0,0.0,0.0,0.0,0.0,0.0,0.0,0.0,0.0,0.0,0.0,0.0,0.0,0.0,0.0,0.0,0.0,0.0,0.0,0.0,0.0,0.0,0.0,0.0,0.0,0.0,0.0,0.0,0.0,0.0,0.0,0.0,0.0,0.0,0.0,0.0,0.0,0.0,0.0,0.0,0.0,0.0,0.0,-1.3924,-1.5106,-1.5409,-1.5137,-1.4727,-1.4165,-1.2517,-1.1459,-1.1404,-1.0647,0.0,0.0,0.0,0.0,0.0,0.0,0.0,0.0,0.0,0.0,0.0,0.0,0.0,0.0,0.0,0.0,0.0,0.0,0.0,0.0,0.0,0.0,0.0,0.0,0.0,0.0,0.0,0.0,0.0,0.0,0.0,0.0,0.0,0.0,0.0,0.0,0.0,0.0,0.0,0.0,0.0,0.0,0.0,0.0,0.0,0.0,0.0,0.0,0.0,0.0,0.0,0.0,0.0,0.0,0.0,0.0,0.0,0.0,0.0,0.0,0.0,0.0,0.0,0.0,0.0,0.0,0.0,0.0,0.0,0.0,0.0,0.0,0.0,0.0,0.0,0.0,0.0,0.0,0.0,0.0,0.0,0.0,0.0,0.0,0.0,0.0,0.0,0.0,0.0,0.0,0.0,0.0,0.0,0.0,0.0,0.0,0.0,0.0,0.0,0.0,0.0,0.0,-1.2736,-1.3711,-1.4492,-1.4473,-1.4102,-1.3408,-1.2335,-1.1503,-1.1006,0.0,0.0,0.0,0.0,0.0,0.0,0.0,0.0,0.0,0.0,0.0,0.0,0.0,0.0,0.0,0.0,0.0,0.0,0.0,0.0,0.0,0.0,0.0,0.0,0.0,0.0,0.0,0.0,0.0,0.0,0.0,0.0,0.0,0.0,0.0,0.0,0.0,0.0,0.0,0.0,0.0,0.0,0.0,0.0,0.0,0.0,0.0,0.0,0.0,0.0,0.0,0.0,0.0,0.0,0.0,0.0,0.0,0.0,0.0,0.0,0.0,0.0,0.0,0.0,0.0,0.0,0.0,0.0,0.0,0.0,0.0,0.0,0.0,0.0,0.0,0.0,0.0,0.0,0.0,0.0,0.0,0.0,0.0,0.0,0.0,0.0,0.0,0.0,0.0,0.0,0.0,0.0,0.0,0.0,0.0,0.0,0.0,0.0,0.0,0.0,0.0,0.0,-1.1336,-1.2097,-1.2949,-1.4014,-1.3896,-1.3506,-1.293,-1.1829,-1.1025,-1.0629,0.0,0.0,0.0,0.0,0.0,0.0,0.0,0.0,0.0,0.0,0.0,0.0,0.0,0.0,0.0,0.0,0.0,0.0,0.0,0.0,0.0,0.0,0.0,0.0,0.0,0.0,0.0,0.0,0.0,0.0,0.0,0.0,0.0,0.0,0.0,0.0,0.0,0.0,0.0,0.0,0.0,0.0,0.0,0.0,0.0,0.0,0.0,0.0,0.0,0.0,0.0,0.0,0.0,0.0,0.0,0.0,0.0,0.0,0.0,0.0,0.0,0.0,0.0,0.0,0.0,0.0,0.0,0.0,0.0,0.0,0.0,0.0,0.0,0.0,0.0,0.0,0.0,0.0,0.0,0.0,0.0,0.0,0.0,0.0,0.0,0.0,0.0,0.0,0.0,0.0,0.0,0.0,0.0,0.0,0.0,0.0,0.0,0.0,0.0,0.0,0.0,0.0,-1.1378,-1.2288,-1.3203,-1.398,-1.3369,-1.2871,-1.2861,-1.0744,-0.9664,0.0,0.0,0.0,0.0,0.0,0.0,0.0,0.0,0.0,0.0,0.0,0.0,0.0,0.0,0.0,0.0,0.0,0.0,0.0,0.0,0.0,0.0,0.0,0.0,0.0,0.0,0.0,0.0,0.0,0.0,0.0,0.0,0.0,0.0,0.0,0.0,0.0,0.0,0.0,0.0,0.0,0.0,0.0,0.0,0.0,0.0,0.0,0.0,0.0,0.0,0.0,0.0,0.0,0.0,0.0,0.0,0.0,0.0,0.0,0.0,0.0,0.0,0.0,0.0,0.0,0.0,0.0,0.0,0.0,0.0,0.0,0.0,0.0,0.0,0.0,0.0,0.0,0.0,0.0,0.0,0.0,0.0,0.0,0.0,0.0,0.0,0.0,0.0,0.0,0.0,0.0,0.0,0.0,0.0,0.0,0.0,0.0,0.0,0.0,0.0,0.0,0.0,0.0,-1.0899,-1.2044,-1.2978,-1.3223,-1.2754,-1.2168,-1.1543,-0.9923,-0.9024,-0.9329,0.0,0.0,0.0,0.0,0.0,0.0,0.0,0.0,0.0,0.0,0.0,0.0,0.0,0.0,0.0,0.0,0.0,0.0,0.0,0.0,0.0,0.0,0.0,0.0,0.0,0.0,0.0,0.0,0.0,0.0,0.0,0.0,0.0,0.0,0.0,0.0,0.0,0.0,0.0,0.0,0.0,0.0,0.0,0.0,0.0,0.0,0.0,0.0,0.0,0.0,0.0,0.0,0.0,0.0,0.0,0.0,0.0,0.0,0.0,0.0,0.0,0.0,0.0,0.0,0.0,0.0,0.0,0.0,0.0,0.0,0.0,0.0,0.0,0.0,0.0,0.0,0.0,0.0,0.0,0.0,0.0,0.0,0.0,0.0,0.0,0.0,0.0,0.0,0.0,0.0,0.0,0.0,0.0,0.0,0.0,0.0,0.0,0.0,0.0,0.0,0.0,0.0,-1.0695,-1.1816,-1.2617,-1.2617,-1.2383,-1.1762,-1.0752,-0.9378,-0.8551,-0.852,0.0,0.0,0.0,0.0,0.0,0.0,0.0,0.0,0.0,0.0,0.0,0.0,0.0,0.0,0.0,0.0,0.0,0.0,0.0,0.0,0.0,0.0,0.0,0.0,0.0,0.0,0.0,0.0,0.0,0.0,0.0,0.0,0.0,0.0,0.0,0.0,0.0,0.0,0.0,0.0,0.0,0.0,0.0,0.0,0.0,0.0,0.0,0.0,0.0,0.0,0.0,0.0,0.0,0.0,0.0,0.0,0.0,0.0,0.0,0.0,0.0,0.0,0.0,0.0,0.0,0.0,0.0,0.0,0.0,0.0,0.0,0.0,0.0,0.0,0.0,0.0,0.0,0.0,0.0,0.0,0.0,0.0,0.0,0.0,0.0,0.0,0.0,0.0,0.0,0.0,0.0,0.0,0.0,0.0,0.0,0.0,0.0,0.0,0.0,0.0,0.0,0.0,-1.0626,-1.1578,-1.218,-1.218,-1.2112,-1.1592,-1.0332,-0.9014,-0.8147,-0.7839,0.0,0.0,0.0,0.0,0.0,0.0,0.0,0.0,0.0,0.0,0.0,0.0,0.0,0.0,0.0,0.0,0.0,0.0,0.0,0.0,0.0,0.0,0.0,0.0,0.0,0.0,0.0,0.0,0.0,0.0,0.0,0.0,0.0,0.0,0.0,0.0,0.0,0.0,0.0,0.0,0.0,0.0,0.0,0.0,0.0,0.0,0.0,0.0,0.0,0.0,0.0,0.0,0.0,0.0,0.0,0.0,0.0,0.0,0.0,0.0,-1.166,-1.0649,0.0,0.0,0.0,0.0,0.0,0.0,0.0,0.0,0.0,0.0,0.0,0.0,0.0,0.0,0.0,0.0,0.0,0.0,0.0,0.0,0.0,0.0,0.0,0.0,0.0,0.0,0.0,0.0,0.0,0.0,0.0,0.0,0.0,0.0,0.0,0.0,0.0,0.0,0.0,0.0,-1.0494,-1.1512,-1.218,-1.218,-1.1602,-1.0801,-0.9853,-0.8291,-0.7362,-0.7291,-0.6599,0.0,0.0,0.0,0.0,0.0,0.0,0.0,0.0,0.0,0.0,0.0,0.0,0.0,0.0,0.0,0.0,0.0,0.0,0.0,0.0,0.0,0.0,0.0,0.0,0.0,0.0,0.0,0.0,0.0,0.0,0.0,0.0,0.0,0.0,0.0,0.0,0.0,0.0,0.0,0.0,0.0,0.0,0.0,0.0,0.0,0.0,0.0,0.0,0.0,0.0,0.0,0.0,0.0,0.0,0.0,0.0,0.0,0.0,0.0,-1.2391,-1.1507,0.0,0.0,0.0,0.0,0.0,0.0,0.0,0.0,0.0,0.0,0.0,0.0,0.0,0.0,0.0,0.0,0.0,0.0,0.0,0.0,0.0,0.0,0.0,0.0,0.0,0.0,0.0,0.0,0.0,0.0,0.0,0.0,0.0,0.0,0.0,0.0,0.0,0.0,0.0,0.0,-1.0397,-1.1138,-1.168,-1.1885,-1.1123,-1.0264,-0.9369,-0.7959,-0.7012,-0.6787,-0.6222,0.0,0.0,0.0,0.0,0.0,0.0,0.0,0.0,0.0,0.0,0.0,0.0,0.0,0.0,0.0,0.0,0.0,0.0,0.0,0.0,0.0,0.0,0.0,0.0,0.0,0.0,0.0,0.0,0.0,0.0,0.0,0.0,0.0,0.0,0.0,0.0,0.0,0.0,0.0,0.0,0.0,0.0,0.0,0.0,0.0,0.0,0.0,0.0,0.0,0.0,0.0,0.0,0.0,-1.5681,-1.5728,-1.5071,-1.5506,-1.5388,-1.4776,-1.3629,-1.2918,-1.2479,-1.1851,0.0,0.0,0.0,0.0,0.0,0.0,0.0,0.0,0.0,0.0,0.0,0.0,0.0,0.0,0.0,0.0,0.0,0.0,0.0,0.0,0.0,0.0,-1.006,-1.0058,-1.0428,-1.0343,-0.8819,0.0,0.0,0.0,0.0,0.0,0.0,0.0,0.0,0.0,0.0,0.0,-1.023,-1.0754,-1.1103,-1.1361,-1.0675,-0.9795,-0.8857,-0.7676,-0.6787,-0.6328,-0.5898,-0.5453,0.0,0.0,0.0,0.0,0.0,0.0,0.0,0.0,0.0,0.0,0.0,0.0,0.0,0.0,0.0,0.0,0.0,0.0,0.0,0.0,0.0,0.0,0.0,0.0,0.0,0.0,0.0,0.0,0.0,0.0,0.0,0.0,-1.3118,-1.3185,0.0,0.0,0.0,0.0,0.0,0.0,0.0,0.0,0.0,0.0,0.0,0.0,0.0,-1.4793,-1.5491,-1.7023,-1.7775,-1.7866,-1.8919,-1.9391,-1.928,-1.8768,-1.8269,-1.7681,-1.6485,0.0,-1.3119,-1.3124,0.0,0.0,0.0,0.0,0.0,0.0,0.0,0.0,0.0,0.0,0.0,0.0,0.0,0.0,0.0,0.0,0.0,0.0,0.0,0.0,0.0,0.0,-1.1665,-1.0954,-1.111,-1.1309,-1.0663,-0.9992,-0.9442,-0.9278,-0.9057,-0.8839,0.0,0.0,0.0,0.0,0.0,0.0,-0.9707,-1.0783,-1.1253,-1.0567,-1.001,-0.9184,-0.7968,-0.7014,-0.6318,-0.5911,-0.5459,-0.5341,-0.5641,-0.5757,0.0,0.0,0.0,0.0,0.0,0.0,0.0,0.0,0.0,0.0,0.0,0.0,0.0,0.0,0.0,0.0,0.0,0.0,0.0,0.0,0.0,0.0,0.0,0.0,0.0,0.0,0.0,0.0,0.0,-1.3371,-1.3656,-1.2939,-1.3455,-1.3327,0.0,0.0,0.0,0.0,0.0,0.0,0.0,0.0,0.0,-1.6507,-1.6837,-1.7746,-1.9306,-1.9726,-2.0077,-2.0382,-2.0855,-2.0898,-2.0528,-2.0244,-1.9431,-1.8243,-1.7383,-1.6095,-1.4563,-1.402,-1.296,-1.1676,0.0,0.0,0.0,0.0,-1.131,-1.1448,-1.2075,-1.2241,-1.2097,-1.185,0.0,0.0,0.0,0.0,0.0,0.0,0.0,-1.0614,-1.0715,-1.1279,-1.1875,-1.1992,-1.2168,-1.2246,-1.2061,-1.148,-1.0828,-1.0089,-0.9797,-0.9452,-0.8799,-0.8587,0.0,0.0,0.0,-1.0088,-1.0312,-1.084,-1.0957,-1.0342,-0.9678,-0.8955,-0.8164,-0.7295,-0.6719,-0.6533,-0.6104,-0.586,-0.5904,-0.5871,-0.5811,0.0,0.0,0.0,0.0,0.0,0.0,0.0,0.0,0.0,0.0,0.0,0.0,0.0,0.0,0.0,0.0,0.0,0.0,0.0,0.0,0.0,0.0,0.0,0.0,0.0,0.0,0.0,0.0,-1.3999,-1.4339,-1.2994,-1.4499,-1.4731,0.0,0.0,0.0,0.0,0.0,0.0,-1.4828,-1.5082,-1.6362,-1.8812,-1.9364,-2.0543,-2.2494,-2.1977,-2.2031,-2.2571,-2.2439,-2.206,-2.158,-2.1274,-2.0436,-1.9173,-1.8234,-1.7362,-1.6447,-1.5069,-1.3858,-1.2831,-1.2831,-1.2492,-1.2027,-1.2165,-1.2402,-1.2707,-1.3336,-1.3653,-1.3729,-1.3347,-1.3126,-1.2876,-1.2073,0.0,0.0,0.0,0.0,-1.0954,-1.1577,-1.1861,-1.2116,-1.2725,-1.2881,-1.2881,-1.2881,-1.2539,-1.1898,-1.0967,-1.0596,-1.0196,-0.9345,-0.9252,0.0,-0.9078,-0.9944,-1.0645,-1.0742,-1.0937,-1.0791,-1.0039,-0.9385,-0.875,-0.8136,-0.7471,-0.7051,-0.6934,-0.6602,-0.6309,-0.6104,-0.6171,-0.6036,-0.566,0.0,0.0,0.0,0.0,0.0,0.0,0.0,0.0,0.0,0.0,0.0,0.0,0.0,0.0,0.0,0.0,0.0,0.0,0.0,0.0,0.0,0.0,0.0,0.0,0.0,0.0,0.0,0.0,0.0,-1.3615,-1.6553,0.0,0.0,0.0,0.0,-1.489,-1.4484,-1.4854,-1.6308,-1.7607,-1.8768,-1.99,-2.1738,-2.2987,-2.3634,-2.3511,-2.3835,-2.4477,-2.382,-2.3492,-2.3404,-2.2215,-2.1693,-2.1629,-1.9705,-1.8923,-1.8769,-1.6527,-1.5004,-1.3997,-1.3997,-1.367,-1.3185,-1.377,-1.3972,-1.4085,-1.4626,-1.4488,-1.4099,-1.4342,-1.3891,-1.3291,-1.3294,-1.2546,0.0,0.0,-1.1288,-1.1786,-1.207,-1.25,-1.2871,-1.2871,-1.2881,-1.2881,-1.2881,-1.2539,-1.2161,-1.2102,-1.1455,-1.0859,-1.0779,0.0,-1.0215,-1.0215,-1.0989,-1.1253,-1.041,-1.1067,-1.094,-0.9248,-0.9033,-0.8506,-0.7266,-0.7129,-0.6914,-0.6475,-0.6416,-0.6406,-0.6382,-0.6794,-0.6825,-0.6357,-0.6647,0.0,0.0,0.0,0.0,0.0,0.0,0.0,0.0,0.0,0.0,0.0,0.0,0.0,0.0,0.0,0.0,0.0,0.0,0.0,0.0,0.0,0.0,0.0,0.0,0.0,0.0,0.0,0.0,-1.6282,-1.9096,0.0,-1.7159,-1.736,-1.7574,-1.7325,-1.7793,-1.8438,-1.9293,-2.0598,-2.1833,-2.3005,-2.4081,-2.5121,-2.6189,-2.5327,-2.5016,-2.5241,-2.4133,-2.3595,-2.3551,-2.2725,-2.1941,-2.1181,-2.0069,-1.9137,-1.8396,-1.7221,-1.6309,-1.562,-1.5247,-1.4777,-1.4274,-1.4148,-1.4538,-1.5079,-1.4563,-1.4488,-1.4551,-1.4325,-1.4063,-1.384,-1.3836,-1.3494,-1.3012,-1.2454,-1.2413,-1.2545,-1.2607,-1.2764,-1.2881,-1.2881,-1.2881,-1.2881,-1.2881,-1.2754,-1.2646,-1.2646,-1.1934,-1.1285,-1.1104,-1.1116,-1.1062,-1.0926,-1.1271,-1.1498,-1.1185,-1.1123,-1.0596,-0.916,-0.9004,-0.8603,-0.7559,-0.7481,-0.7404,-0.7238,-0.7228,-0.7228,-0.7228,-0.7083,-0.6901,-0.6723,-0.6152,-0.4912,0.0,0.0,0.0,0.0,0.0,0.0,0.0,0.0,0.0,0.0,0.0,0.0,0.0,0.0,0.0,0.0,0.0,0.0,0.0,0.0,0.0,0.0,0.0,0.0,0.0,-1.7445,-1.9346,-1.8229,-2.1277,-2.2399,-1.9686,-2.0059,-2.0438,-2.0326,-2.0824,-2.1332,-2.1819,-2.3112,-2.3971,-2.4361,-2.5398,-2.6164,-2.6572,-2.5719,-2.527,-2.527,-2.4133,-2.3595,-2.3595,-2.2965,-2.2381,-2.1766,-2.0656,-1.9838,-1.9222,-1.8232,-1.7636,-1.7242,-1.6314,-1.5975,-1.5893,-1.5376,-1.5517,-1.5836,-1.4752,-1.4727,-1.513,-1.4765,-1.4765,-1.4862,-1.4663,-1.4537,-1.4337,-1.3804,-1.3408,-1.319,-1.319,-1.3065,-1.2881,-1.2881,-1.2881,-1.2881,-1.2881,-1.2881,-1.2881,-1.2881,-1.2449,-1.2002,-1.181,-1.1911,-1.1908,-1.1429,-1.1599,-1.168,-1.1257,-1.1052,-1.042,-0.9141,-0.9004,-0.8652,-0.7773,-0.7695,-0.7695,-0.7695,-0.7569,-0.7569,-0.7695,-0.7157,-0.6568,-0.6038,-0.4649,-0.3754,-0.3378,0.0,0.0,0.0,0.0,0.0,0.0,0.0,0.0,0.0,0.0,0.0,0.0,0.0,0.0,0.0,0.0,0.0,0.0,0.0,0.0,0.0,0.0,0.0,-1.6099,-1.8419,-2.007,-1.9386,-2.3096,-2.4566,-2.1824,-2.2951,-2.3829,-2.3768,-2.3291,-2.3252,-2.3724,-2.4983,-2.5084,-2.384,-2.5627,-2.6019,-2.4686,-2.4627,-2.4612,-2.4612,-2.3939,-2.3595,-2.3595,-2.3009,-2.3054,-2.3462,-2.158,-2.1082,-2.152,-1.9657,-1.8893,-1.8727,-1.7146,-1.7146,-1.8013,-1.7423,-1.6877,-1.6257,-1.5248,-1.5178,-1.563,-1.5655,-1.6032,-1.6343,-1.5808,-1.5632,-1.5499,-1.488,-1.4283,-1.3815,-1.3815,-1.3372,-1.2929,-1.2929,-1.2929,-1.2881,-1.2881,-1.2881,-1.2881,-1.2881,-1.2881,-1.2881,-1.2881,-1.2881,-1.2638,-1.1865,-1.1985,0.0,-1.0686,-1.0753,-1.041,-0.916,-0.8989,-0.8649,-0.7773,-0.7695,-0.7686,-0.7686,-0.7314,-0.7246,-0.7637,-0.7038,-0.5928,-0.4321,-0.2377,-0.2324,-0.4253,0.0,0.0,0.0,0.0,0.0,0.0,0.0,0.0,0.0,0.0,0.0,0.0,0.0,0.0,0.0,0.0,0.0,0.0,0.0,0.0,0.0,-1.7533,-1.925,-1.8702,-2.1361,-2.3509,-2.3763,-2.5732,-2.6557,-2.5314,-2.5577,-2.5601,-2.5127,-2.5416,-2.5452,-2.511,-2.6302,-2.6639,-2.5808,-2.6807,-2.7126,-2.6767,-2.5809,-2.5345,-2.533,-2.4148,-2.3595,-2.3595,-2.3421,-2.3212,-2.2877,-2.1862,-2.1238,-2.0878,-1.9482,-1.8893,-1.8779,-1.7544,-1.7271,-1.737,-1.6034,-1.4929,-1.4152,-1.426,-1.4111,-1.3999,-1.4839,-1.5203,-1.5467,-1.6046,-1.5964,-1.5588,-1.541,-1.4915,-1.4468,-1.4468,-1.4014,-1.3552,-1.3552,-1.3238,-1.2881,-1.2881,-1.2881,-1.2881,-1.2881,-1.2881,-1.2881,-1.2881,-1.2881,-1.2832,-1.2619,-1.2102,-1.166,-1.1339,-1.0799,-1.0128,-0.9224,-0.9158,-0.8755,-0.7773,-0.7516,-0.7309,-0.7132,-0.6844,-0.673,-0.682,-0.685,-0.5986,-0.4118,-0.3441,-0.3254,0.0,0.0,0.0,0.0,0.0,0.0,0.0,0.0,0.0,0.0,0.0,0.0,0.0,0.0,0.0,0.0,0.0,0.0,0.0,0.0,0.0,0.0,-1.9958,-2.1859,-2.2128,-2.3819,-2.5285,-2.5944,-2.6931,-2.7475,-2.7036,-2.7006,-2.6841,-2.6452,-2.6782,-2.6841,-2.6452,-2.7156,-2.726,-2.6617,-2.6961,-2.7036,-2.6752,-2.5719,-2.5196,-2.5181,-2.4118,-2.3595,-2.3595,-2.3595,-2.3266,-2.2679,-2.1979,-2.1321,-2.0624,-1.9649,-1.9095,-1.8779,0.0,0.0,0.0,0.0,-1.4964,-1.4554,-1.4208,-1.4149,-1.4375,-1.5015,-1.5379,-1.568,-1.6321,-1.6238,-1.5964,-1.5964,-1.5377,-1.4698,-1.4698,-1.4061,-1.342,-1.342,-1.3152,-1.2881,-1.2881,-1.2881,-1.2881,-1.2881,-1.2881,0.0,-1.2881,-1.2881,-1.2764,-1.2426,-1.1957,-1.1494,-1.119,-1.0663,-1.0041,-0.944,-0.9355,-0.8958,-0.8009,-0.7774,0.0,0.0,0.0,-0.652,-0.6284,-0.6416,0.0,0.0,0.0,-0.3826,-0.3493,-0.336,0.0,0.0,-0.3891,-0.3767,0.0,0.0,0.0,0.0,0.0,0.0,0.0,0.0,0.0,0.0,0.0,0.0,0.0,0.0,0.0,0.0,-2.2829,-2.494,-2.5734,-2.5839,-2.6048,-2.6632,-2.7215,-2.7625,-2.7625,-2.7625,-2.7625,-2.7625,-2.7625,-2.7625,-2.7625,-2.7625,0.0,0.0,0.0,-2.6303,-2.5719,-2.494,-2.4582,-2.4567,-2.3924,-2.3595,-2.3595,-2.3535,-2.3191,-2.2679,-2.1904,-2.1261,-2.0624,-1.9922,-1.9244,-1.8612,-1.7666,-1.7545,-1.7754,-1.6249,-1.5966,-1.6139,-1.47,0.0,0.0,-1.568,-1.6019,-1.6434,-1.6497,-1.6522,-1.6479,-1.6423,-1.5656,-1.4789,-1.4709,-1.3836,-1.3017,-1.3017,-1.2978,-1.2881,-1.2881,-1.2881,-1.2881,-1.2881,-1.2881,-1.2881,-1.2881,-1.2881,-1.2648,-1.1959,-1.1724,-1.1397,-1.0728,-1.0464,-1.0186,-0.9672,-0.955,0.0,-0.8282,-0.8105,-0.783,-0.7336,-0.6928,-0.6528,-0.6054,-0.5964,-0.5613,-0.4976,-0.4488,-0.4095,-0.385,-0.3486,-0.3386,-0.3615,-0.3403,-0.3275,0.0,0.0,0.0,0.0,0.0,0.0,0.0,0.0,0.0,0.0,0.0,0.0,0.0,0.0,0.0,-2.1676,-2.3911,-2.5839,-2.7021,-2.7186,-2.7245,-2.7415,-2.755,-2.7625,-2.7625,-2.7625,-2.7625,-2.7625,-2.7625,-2.7625,-2.7625,-2.7625,-2.7565,-2.738,-2.6871,-2.6527,-2.6408,-2.5226,-2.4582,-2.4567,-2.3924,0.0,-2.358,-2.3086,-2.2787,-2.2607,-2.1425,-2.0842,-2.0624,-1.9522,-1.8496,-1.7585,-1.7394,-1.7103,-1.6704,-1.5994,-1.5502,-1.5145,-1.4853,-1.489,-1.5142,-1.5542,-1.5768,-1.5932,-1.6384,-1.6522,0.0,-1.5908,-1.5599,-1.532,-1.4835,-1.4154,-1.3647,-1.3647,-1.3238,-1.2881,-1.2881,-1.2881,-1.2881,-1.2881,-1.2881,-1.2881,-1.2881,-1.2881,-1.2852,-1.2715,-1.2336,-1.1898,-1.1451,-1.1013,-1.0504,-0.9817,-0.9361,-0.8884,-0.8262,-0.7539,-0.7042,-0.6772,-0.6474,-0.6272,-0.6181,-0.6156,-0.5907,-0.5396,-0.4808,-0.438,-0.4117,-0.3581,-0.3386,-0.3578,-0.3576,-0.3509,0.0,0.0,0.0,0.0,0.0,0.0,0.0,0.0,0.0,0.0,0.0,-1.6723,-1.8628,0.0,-2.1426,-2.406,-2.5403,-2.6437,-2.749,-2.7625,-2.7625,-2.7625,-2.7625,-2.7625,-2.7625,-2.7625,-2.7625,-2.7625,-2.7625,-2.7625,-2.7625,-2.7625,-2.7475,-2.7096,-2.6437,-2.6093,-2.6093,-2.4777,-2.4283,-2.4567,-2.361,-2.3131,-2.3116,-2.2473,-2.2009,-2.1665,-2.0991,-2.0513,-2.0094,-1.8984,-1.8341,-1.8027,-1.7188,-1.6741,-1.6417,-1.5916,-1.5693,-1.5655,-1.5379,-1.5467,-1.5743,-1.6019,-1.6107,-1.6158,-1.6434,-1.6281,-1.6008,-1.5676,-1.5174,-1.463,-1.4329,-1.3779,-1.3324,-1.3324,-1.3104,-1.2881,-1.2881,-1.2881,-1.2881,-1.2881,-1.2881,-1.2881,-1.2881,-1.2881,-1.2881,-1.2881,-1.251,-1.207,-1.1655,-1.1182,-1.0671,-1.0097,-0.9558,-0.8953,-0.8253,-0.7302,-0.6705,-0.6593,-0.6492,-0.6411,-0.6411,-0.627,-0.5968,-0.5515,-0.5022,-0.4585,-0.4209,-0.3679,-0.3503,-0.3581,-0.3581,-0.3581,0.0,0.0,0.0,0.0,0.0,0.0,0.0,-1.4683,-1.5036,-1.709,-1.7489,-1.8411,-2.1302,-2.1954,-2.3035,-2.6108,-2.6692,-2.6961,-2.755,-2.7555,-2.7564,-2.7564,-2.7585,-2.7625,-2.7625,-2.7625,-2.7625,-2.7625,-2.7625,-2.7565,-2.738,-2.743,-2.7081,-2.6422,-2.5764,-2.542,-2.542,-2.4088,-2.3759,-2.4418,-2.3101,-2.2547,-2.2694,-2.1859,-2.1216,-2.0707,-2.0572,-2.0161,-1.9479,-1.8727,-1.8535,-1.8612,-1.7312,-1.6752,-1.6574,-1.6061,-1.6132,-1.6459,-1.6007,-1.6145,-1.6522,-1.6522,-1.6522,-1.6522,-1.6522,-1.6151,-1.5732,-1.5499,-1.4732,-1.3909,-1.3684,-1.3238,-1.2881,-1.2881,-1.2881,-1.2881,-1.2881,-1.2881,-1.2881,-1.2881,-1.2881,-1.2881,-1.2881,-1.2881,-1.2881,-1.2881,-1.251,-1.207,-1.1655,-1.1182,-1.0711,-1.0205,-0.9677,-0.8989,-0.8061,-0.7183,-0.6673,-0.6673,-0.6673,-0.6673,-0.6673,-0.6485,-0.6168,-0.578,-0.527,-0.4798,-0.4431,-0.3861,-0.3595,-0.3622,-0.3622,-0.3622,-1.2732,-1.2801,-1.3559,-1.5152,-1.4922,-1.5256,0.0,-1.8826,-1.846,-2.0646,-2.1141,-2.1565,-2.3059,-2.3835,-2.4761,-2.6333,-2.7081,-2.7535,-2.761,-2.7476,-2.7411,-2.7411,-2.7531,-2.7625,-2.7625,-2.7625,-2.7625,-2.7625,-2.7625,-2.737,-2.6722,-2.6692,-2.6393,-2.5734,-2.5076,-2.4686,-2.4686,-2.343,-2.3101,-2.3699,-2.2413,-2.2113,-2.2679,-2.1395,-2.0782,-2.0677,-2.0064,-1.9516,-1.9006,-1.9369,-1.9006,-1.8185,-1.7987,-1.7626,-1.7146,-1.6604,-1.6471,-1.6509,-1.6446,-1.6471,-1.6522,-1.6522,-1.6522,-1.6522,-1.6522,-1.6466,-1.6194,-1.5107,-1.4698,-1.434,-1.3296,-1.2978,-1.2881,-1.2881,-1.2881,-1.2881,-1.2881,-1.2881,-1.2881,-1.2881,-1.2881,-1.2881,-1.2881,-1.2881,-1.2881,-1.2881,-1.251,-1.207,-1.1655,-1.1182,-1.0579,-0.9683,-0.9119,-0.8325,-0.7224,-0.7016,-0.6974,-0.6974,-0.6974,-0.6974,-0.6974,-0.6941,-0.6886,-0.6838,-0.5812,-0.5224,-0.5182,-0.4132,-0.3646,-0.3768,-0.3768,-0.3768,-1.5241,-1.5108,-1.5247,-1.6921,-1.7045,-1.732,-1.9449,-1.9442,-1.9501,-2.1311,-2.1901,-2.2476,-2.383,-2.4528,-2.5385,-2.6841,-2.7313,-2.7496,-2.7496,-2.7072,-2.67,-2.66,-2.6259,-2.6257,-2.684,-2.6916,-2.6942,-2.701,-2.6647,-2.6482,-2.6587,-2.6228,-2.5719,-2.5061,-2.4388,-2.3864,-2.349,-2.2577,-2.2233,-2.2473,-2.156,-2.1261,-2.15,-2.0543,-2.0124,-2.0094,-1.9809,-1.9566,-1.9332,-1.893,-1.8496,-1.8027,-1.7435,-1.7034,-1.6795,-1.6595,-1.6522,-1.6522,-1.6522,-1.6522,-1.6522,-1.6522,-1.6522,-1.6522,-1.6522,-1.6238,-1.5776,-1.4926,-1.4468,-1.3967,-1.3104,-1.2881,-1.2881,-1.2881,-1.2881,-1.2881,-1.2881,-1.2881,-1.2881,-1.2881,-1.2881,-1.2881,-1.2881,-1.2881,-1.2881,-1.2881,-1.2725,-1.23,-1.1472,-1.1051,-1.0258,-0.8741,-0.8199,-0.7636,-0.6848,-0.6767,-0.6767,-0.6767,-0.6927,-0.6979,-0.6979,-0.6979,-0.6859,-0.6562,-0.5739,-0.5193,-0.4961,-0.4108,-0.3778,-0.3924,-0.3924,-0.3972,-1.6295,-1.6514,-1.674,-1.8459,-1.9152,-1.9687,-2.0537,-2.0734,-2.1022,-2.2156,-2.2609,-2.3117,-2.4084,-2.4547,-2.5258,-2.6767,-2.7019,-2.7096,-2.7299,-2.667,-2.6115,-2.5966,-2.5271,-2.5029,-2.5586,-2.5761,-2.5892,-2.6036,-2.5615,-2.5555,-2.6019,-2.56,-2.4956,-2.4118,-2.361,-2.3041,-2.2413,-2.1754,-2.1515,-2.168,-2.0842,-2.0528,-2.0692,-2.0004,-1.969,-1.969,-1.969,-1.969,-1.9639,-1.8855,-1.8458,-1.8224,-1.7312,-1.6837,-1.671,-1.6552,-1.6522,-1.6522,-1.6522,-1.6522,-1.6522,-1.6522,-1.6522,-1.6522,-1.6522,-1.6095,-1.5454,-1.488,-1.4283,-1.3637,-1.3065,-1.2881,-1.2881,-1.2881,-1.2881,-1.2881,-1.2881,-1.2881,-1.2881,-1.2881,-1.2881,-1.2822,-1.2618,-1.2608,-1.251,-1.2353,-1.2314,-1.2057,-1.1291,-1.0577,-0.9544,-0.8055,-0.7518,-0.7133,-0.6747,-0.6707,-0.6707,-0.6707,-0.6907,-0.6979,-0.6979,-0.6979,-0.681,-0.6435,-0.5696,-0.5198,-0.4908,-0.4163,-0.389,-0.4033,-0.4033,-0.4113,-1.4497,-1.5855,-1.7396,-1.9525,-2.1086,-2.2437,-2.3747,-2.4067,-2.4047,-2.4037,-2.4053,-2.4015,-2.3919,-2.3935,-2.4395,-2.5814,-2.6052,-2.6306,-2.7079,-2.6403,-2.5832,-2.5815,-2.503,-2.4307,-2.3835,-2.4128,-2.4456,-2.4642,-2.4627,-2.4627,-2.4642,-2.4627,-2.4059,-2.2787,-2.2753,-2.2398,-2.1739,-2.1081,-2.1066,-2.168,-2.0348,-2.0064,-2.0692,-2.0004,-1.969,-1.969,-1.969,-1.969,-1.969,-1.9639,-1.9332,-1.8817,-1.8263,-1.7747,-1.7188,-1.668,-1.6522,-1.6522,-1.6522,-1.6522,-1.6522,-1.6522,-1.6522,-1.6522,-1.6522,-1.6095,-1.5454,-1.488,-1.4283,-1.3637,-1.3065,-1.2881,-1.2881,-1.2881,-1.2881,-1.2881,-1.2881,-1.2881,-1.2881,-1.2881,-1.2881,-1.2666,-1.1972,-1.1814,-1.1616,-1.0965,-1.0864,-1.0939,-1.1187,-0.953,-0.8244,-0.7949,-0.7356,-0.7007,-0.7007,-0.7007,-0.7007,-0.7007,-0.6979,-0.6979,-0.6979,-0.6979,-0.6979,-0.6979,-0.5862,-0.537,-0.5462,-0.4349,-0.3944,-0.4187,-0.4187,-0.4317,-1.6353,-1.7974,-1.9741,-2.2213,-2.3176,-2.3622,-2.4047,-2.4143,-2.3763,-2.2439,-2.1924,-2.1611,-2.1239,-2.1735,-2.2648,-2.4181,-2.5248,-2.5945,-2.6243,-2.6003,-2.5401,-2.4328,-2.3961,-2.3379,-2.2417,-2.3254,-2.3952,-2.4138,-2.3477,-2.327,-2.3712,-2.3058,-2.2488,-2.2039,-2.1605,-2.1261,-2.1051,-2.0363,-2.0139,-2.0363,-1.9899,-1.9809,-2.0034,-1.9794,-1.969,-1.969,-1.9332,-1.9169,-1.9132,-1.8419,-1.7987,-1.7787,-1.7229,-1.6909,-1.6752,-1.6552,-1.6522,-1.6522,-1.6522,-1.6522,-1.6522,-1.6522,-1.6522,-1.6522,-1.6522,-1.638,-1.5964,-1.4971,-1.456,-1.4154,-1.3152,-1.2881,-1.2881,-1.2881,-1.2881,-1.2881,-1.2881,-1.2881,-1.2881,-1.2881,-1.2501,-1.208,-1.1864,-1.1408,-1.1065,-1.0813,-1.0266,-0.9807,-0.969,-0.8565,-0.7662,-0.7349,-0.7105,-0.6979,-0.6979,-0.6979,-0.6979,-0.6979,-0.6979,-0.6979,-0.6979,-0.6979,-0.6901,-0.6736,-0.589,-0.5433,-0.539,-0.4494,-0.4195,-0.4392,-0.4392,-0.4416,-1.8333,-2.0131,-2.1878,-2.4144,-2.4914,-2.5064,-2.4855,-2.4592,-2.3918,-2.2233,-2.1187,-2.039,-1.9843,-2.0174,-2.0968,-2.2228,-2.3403,-2.4332,-2.4862,-2.4713,-2.4264,-2.3498,-2.3173,-2.2685,-2.1949,-2.2531,-2.2947,-2.2986,-2.231,-2.2163,-2.2714,-2.2064,-2.159,-2.135,-2.0932,-2.0602,-2.0348,-1.9914,-1.969,-1.969,-1.969,-1.969,-1.969,-1.969,-1.969,-1.969,-1.9332,-1.908,-1.8855,-1.8185,-1.7666,-1.7271,-1.6909,-1.668,-1.6522,-1.6522,-1.6522,-1.6522,-1.6522,-1.6522,-1.6522,-1.6522,-1.6522,-1.6479,-1.6238,-1.602,-1.5656,-1.4652,-1.4201,-1.3884,-1.3113,-1.2881,-1.2881,-1.2881,-1.2881,-1.2881,-1.2881,-1.2666,-1.2501,-1.2501,-1.1931,-1.1366,-1.1116,-1.0517,-1.0064,-1.0064,-0.9494,-0.9065,-0.9091,-0.8222,-0.7515,-0.7214,-0.7088,-0.6979,-0.6979,-0.6979,-0.6979,-0.6979,-0.6979,-0.6979,-0.6979,-0.6864,-0.6693,-0.6554,-0.5722,-0.5264,-0.5224,-0.4557,-0.4321,-0.4519,-0.4519,-0.4519,-2.025,-2.2185,-2.3772,-2.5319,-2.6215,-2.6585,-2.6096,-2.5345,-2.4393,-2.3151,-2.1603,-2.0236,-1.9509,-1.9264,-1.9413,-2.014,-2.0858,-2.1813,-2.3207,-2.2835,-2.2649,-2.3274,-2.2767,-2.2344,-2.231,-2.1899,-2.1535,-2.1335,-2.1275,-2.1366,-2.1663,-2.1629,-2.1306,-2.0677,-2.0662,-2.0348,-1.969,-1.969,-1.969,-1.969,-1.969,-1.969,-1.969,-1.969,-1.969,-1.969,-1.969,-1.9369,-1.8855,-1.8817,-1.8224,-1.7271,-1.7271,-1.6951,-1.6522,-1.6522,-1.6522,-1.6522,-1.6522,-1.6522,-1.6466,-1.6466,-1.6466,-1.6337,-1.5732,-1.5141,-1.456,-1.3956,-1.3372,-1.2929,-1.2929,-1.2881,-1.2881,-1.2881,-1.2881,-1.2881,-1.2881,-1.2344,-1.1814,-1.1814,-1.1216,-1.0517,-0.9865,-0.9211,-0.8804,-0.8804,-0.8571,-0.8634,-0.9286,-0.8469,-0.7796,-0.754,-0.7201,-0.6979,-0.6979,-0.6979,-0.6979,-0.6979,-0.6937,-0.6937,-0.6894,-0.654,-0.6367,-0.6384,-0.5394,-0.4956,-0.5124,-0.4512,-0.4328,-0.4519,-0.4519,-0.4519,-2.2915,-2.4637,-2.61,-2.7064,-2.7,-2.637,-2.5059,-2.3665,-2.2177,-2.0399,-1.8645,-1.724,-1.6643,-1.779,-1.8959,-1.9401,-2.1575,-2.3247,-2.3371,-2.3697,-2.3596,-2.2699,-2.2902,-2.2902,-2.2361,-2.218,-2.1953,-2.155,-2.0935,-2.0724,-2.1167,-2.0569,-2.0124,-1.9944,-1.9944,-1.9869,-1.969,-1.969,-1.969,-1.969,-1.969,-1.969,-1.969,-1.969,-1.969,-1.969,-1.9281,-1.8817,-1.8263,-1.7867,-1.7312,-1.671,-1.671,-1.6637,-1.6522,-1.6522,-1.6522,-1.6522,-1.6522,-1.6522,-1.6423,-1.5964,-1.582,-1.5732,-1.5096,-1.4835,-1.456,-1.3956,-1.3684,-1.3467,-1.3017,-1.2881,-1.2881,-1.2881,-1.2881,-1.2881,-1.2881,-1.2344,-1.1814,-1.1814,-1.0864,-0.9865,-0.9159,-0.891,-0.8804,-0.8804,-0.8744,-0.8669,-0.8641,-0.8051,-0.7555,-0.752,-0.7201,-0.6979,-0.6979,-0.6979,-0.681,-0.6435,-0.6392,-0.6215,-0.5733,-0.5745,-0.5857,-0.6075,-0.5408,-0.5184,-0.5416,-0.4729,-0.4426,-0.4519,-0.4519,-0.4519,-2.487,-2.6304,-2.7305,-2.7356,-2.7067,-2.6231,-2.4028,-2.2618,-2.1182,-1.9125,-1.7322,-1.6019,-1.5692,-1.6835,-1.7984,-1.8473,-2.0413,-2.2065,-2.2552,-2.2864,-2.2852,-2.2361,-2.2682,-2.275,-2.2344,-2.2106,-2.1974,-2.1899,-2.1259,-2.0813,-2.0682,-2.0227,-1.9874,-1.9726,-1.969,-1.969,-1.969,-1.969,-1.969,-1.969,-1.969,-1.969,-1.969,-1.969,-1.969,-1.969,-1.9369,-1.8697,-1.7719,-1.7678,-1.694,-1.5844,-1.6333,-1.622,-1.5831,-1.607,-1.6007,-1.5831,-1.607,-1.5989,-1.5758,-1.5648,-1.5588,-1.5454,-1.456,-1.4329,-1.4157,-1.3305,-1.3267,-1.3283,-1.2732,-1.2744,-1.2881,-1.2881,-1.2666,-1.2403,-1.2403,-1.1625,-1.0864,-1.0517,-0.9865,-0.9263,-0.8857,-0.8804,-0.8804,-0.8804,-0.8697,-0.8557,-0.8397,-0.7963,-0.7615,-0.7527,-0.6985,-0.6641,-0.6641,-0.6422,-0.6124,-0.583,-0.5787,-0.5653,-0.5308,-0.525,-0.5323,-0.5536,-0.5052,-0.4908,-0.5054,-0.4677,-0.4519,-0.4519,-0.4519,-0.4519,-2.6338,-2.7477,-2.7842,-2.7086,-2.6821,-2.5989,-2.3111,-2.1806,-2.0588,-1.8458,-1.6813,-1.5743,-1.5678,-1.6256,-1.694,-1.7595,-1.8672,-1.9921,-2.1385,-2.1387,-2.1501,-2.2226,-2.231,-2.231,-2.231,-2.1928,-2.1853,-2.2282,-2.1869,-2.1259,-2.0449,-2.028,-2.0054,-1.9711,-1.969,-1.969,-1.969,-1.969,-1.969,-1.969,-1.969,-1.969,-1.969,-1.969,-1.9639,-1.9603,-1.9513,-1.8666,-1.7308,-1.7628,-1.669,-1.5104,-1.5957,-1.5718,-1.4966,-1.5404,-1.5279,-1.494,-1.5337,-1.5159,-1.4796,-1.531,-1.541,-1.5118,-1.3928,-1.3643,-1.3449,-1.2483,-1.2549,-1.2793,-1.2412,-1.2598,-1.2881,-1.2881,-1.2403,-1.1922,-1.1814,-1.0771,-0.9614,-0.8903,-0.8804,-0.8804,-0.8804,-0.8804,-0.8804,-0.8804,-0.8597,-0.8417,-0.8276,-0.8061,-0.7762,-0.7405,-0.6712,-0.6214,-0.6093,-0.561,-0.526,-0.5173,-0.5173,-0.5145,-0.5087,-0.491,-0.4771,-0.4795,-0.4588,-0.4519,-0.4519,-0.4519,-0.4519,-0.4519,-0.4519,-0.4519,-2.7319,-2.8213,-2.8662,-2.8025,-2.6831,-2.519,-2.2794,-2.0568,-1.8568,-1.6904,-1.5725,-1.4991,-1.4982,-1.6056,-1.7096,-1.7615,-1.8968,-2.0327,-2.1361,-2.148,-2.1661,-2.2237,-2.231,-2.231,-2.231,-2.2237,-2.2209,-2.2282,-2.1869,-2.1399,-2.0894,-2.0208,-1.9782,-1.969,-1.969,-1.969,-1.969,-1.969,-1.969,-1.969,-1.969,-1.969,-1.969,-1.969,-1.9442,-1.9014,-1.8579,-1.796,-1.725,-1.6422,-1.5905,-1.553,-1.5266,-1.5079,-1.4916,-1.5016,-1.4991,-1.4838,-1.4496,-1.4321,-1.4275,-1.4719,-1.4503,-1.3928,-1.2795,-1.273,-1.2928,-1.2344,-1.2549,-1.2861,-1.2783,-1.2822,-1.2881,-1.2881,-1.2774,-1.2559,-1.1922,-1.0771,-0.9614,-0.8903,-0.8804,-0.8804,-0.8804,-0.8804,-0.8804,-0.8804,-0.8764,-0.843,-0.7575,-0.7713,-0.7621,-0.6817,-0.6609,-0.623,-0.5496,-0.5351,-0.5087,-0.4609,-0.4565,-0.4418,-0.4068,-0.4118,-0.4228,-0.431,-0.4429,-0.4519,-0.4519,-0.4519,-0.4519,-0.4519,-0.4519,-0.4519,-2.75,-2.7837,-2.7835,-2.7547,-2.6371,-2.4542,-2.1658,-1.9804,-1.8117,-1.6054,-1.5269,-1.4917,-1.4822,-1.5718,-1.667,-1.7202,-1.8171,-1.9252,-2.0385,-2.0755,-2.1104,-2.1661,-2.2073,-2.231,-2.231,-2.231,-2.231,-2.231,-2.1869,-2.143,-2.1023,-2.0174,-1.9525,-1.9181,-1.951,-1.9525,-1.9181,-1.9166,-1.9346,-1.969,-1.9346,-1.9346,-1.969,-1.9406,-1.9132,-1.8849,-1.8033,-1.7218,-1.6414,-1.5593,-1.479,-1.4047,-1.4105,-1.3772,-1.3319,-1.3593,-1.3521,-1.3281,-1.331,-1.3237,-1.3237,-1.3707,-1.3515,-1.2979,-1.2158,-1.2021,-1.2145,-1.167,-1.2031,-1.249,-1.2302,-1.2273,-1.2344,-1.2344,-1.1792,-1.1082,-1.0372,-0.971,-0.9054,-0.8368,-0.8209,-0.8103,-0.7723,-0.767,-0.767,-0.767,-0.7547,-0.7258,-0.6775,-0.686,-0.6658,-0.6081,-0.5779,-0.5459,-0.5042,-0.4718,-0.4402,-0.4089,-0.4085,-0.3989,-0.3788,-0.3938,-0.404,-0.419,-0.4389,-0.4519,-0.4519,-0.4519,-0.4519,-0.4519,-0.4525,-0.4525,-2.7021,-2.7193,-2.6934,-2.6783,-2.5733,-2.3902,-2.0705,-1.9294,-1.798,-1.5605,-1.5113,-1.5052,-1.4865,-1.5348,-1.598,-1.6595,-1.6874,-1.7549,-1.9069,-1.9545,-2.0073,-2.0909,-2.1744,-2.2245,-2.2293,-2.2349,-2.236,-2.231,-2.1661,-2.1175,-2.1023,-2.0138,-1.9426,-1.9049,-1.9206,-1.9091,-1.8702,-1.8568,-1.8747,-1.9256,-1.8663,-1.8609,-1.915,-1.86,-1.8327,-1.8148,-1.7195,-1.6285,-1.5459,-1.4689,-1.3729,-1.271,-1.2945,-1.2535,-1.1856,-1.2287,-1.2148,-1.183,-1.2135,-1.2077,-1.1891,-1.2208,-1.2449,-1.2469,-1.1905,-1.1812,-1.1738,-1.1064,-1.1435,-1.1935,-1.1395,-1.1361,-1.1509,-1.1548,-1.0661,-0.9607,-0.8942,-0.8692,-0.8368,-0.7616,-0.745,-0.7289,-0.6696,-0.6588,-0.6588,-0.6588,-0.6433,-0.6209,-0.6053,-0.5964,-0.5736,-0.5286,-0.4952,-0.4659,-0.4483,-0.4051,-0.3778,-0.3748,-0.3805,-0.3839,-0.3839,-0.3988,-0.4086,-0.4237,-0.4406,-0.4522,-0.4522,-0.4525,-0.4525,-0.4525,-0.448,-0.4311,-2.5712,-2.6672,-2.704,-2.6427,-2.5019,-2.3206,-2.0804,-1.898,-1.7318,-1.5543,-1.5138,-1.5069,-1.5007,-1.4982,-1.5217,-1.5886,-1.5369,-1.5587,-1.7603,-1.793,-1.855,-2.0199,-2.1359,-2.2108,-2.2281,-2.2527,-2.2563,-2.2338,-2.0947,-2.0397,-2.0959,-2.0001,-1.9661,-2.0138,-1.8664,-1.8164,-1.8702,-1.8119,-1.7817,-1.7876,-1.7456,-1.7272,-1.733,-1.6902,-1.6462,-1.5975,-1.5301,-1.5016,-1.4866,-1.3326,-1.2901,-1.3136,-1.2267,-1.1889,-1.1822,-1.1867,-1.1844,-1.1737,-1.1298,-1.0815,-1.0342,-0.9935,-1.1223,-1.2781,-1.2285,-1.2441,-1.2483,-1.1183,-1.114,-1.1296,-1.0397,-1.0318,-1.0611,-1.0839,-1.0312,-0.9599,-0.8849,-0.8237,-0.7563,-0.6858,-0.6696,-0.6696,-0.6588,-0.6588,-0.6588,-0.6588,-0.6568,-0.6333,-0.5625,-0.5554,-0.521,-0.4428,-0.4678,-0.4558,-0.3787,-0.3763,-0.3737,-0.3609,-0.3849,-0.3999,-0.3999,-0.4093,-0.4294,-0.4494,-0.4467,-0.4477,-0.4477,-0.4487,-0.4494,-0.4494,-0.4494,-0.3752,-2.555,-2.6056,-2.6039,-2.6273,-2.4396,-2.2125,-2.0687,-1.8634,-1.6701,-1.5502,-1.5236,-1.5196,-1.5082,-1.5035,-1.4901,-1.4513,-1.4136,-1.4099,-1.4711,-1.6,-1.7258,-1.8365,-2.0135,-2.151,-2.2059,-2.2037,-2.1876,-2.1661,-2.0837,-2.0274,-2.0111,-1.9014,-1.829,-1.8138,-1.7839,-1.7623,-1.7488,-1.7234,-1.7198,-1.7324,-1.6764,-1.6565,-1.6732,-1.6225,-1.5914,-1.5668,-1.4774,-1.4381,-1.4312,-1.2732,-1.218,-1.2316,-1.1292,-1.0916,-1.0916,-1.0916,-1.0916,-1.0878,-1.0649,-1.038,-1.0099,-0.9903,-1.0416,-1.0965,-1.0293,-1.0222,-1.0284,-0.97,-0.9839,-1.0046,-0.968,-0.9671,-0.9748,-0.9636,-0.9413,-0.8995,-0.8237,-0.7871,-0.7343,-0.6145,-0.5928,-0.5819,-0.5391,-0.5336,-0.5336,-0.5336,-0.5247,-0.5111,-0.4937,-0.4722,-0.4514,-0.4243,-0.439,-0.4299,-0.3856,-0.3982,-0.4002,-0.3853,-0.4039,-0.4107,-0.4107,-0.417,-0.4274,-0.447,-0.4484,-0.4033,-0.3125,-0.313,-0.313,-0.313,-0.4045,-0.4163,-2.4571,-2.49,-2.4736,-2.5556,-2.3512,-2.1087,-2.0238,-1.8267,-1.6355,-1.5486,-1.5299,-1.5192,-1.4835,-1.4768,-1.4405,-1.3357,-1.2899,-1.2677,-1.2661,-1.4033,-1.5348,-1.6217,-1.8056,-1.9686,-2.0819,-2.1092,-2.1181,-2.1187,-2.0427,-1.9739,-1.9211,-1.7981,-1.7257,-1.7212,-1.7164,-1.6949,-1.6511,-1.6319,-1.625,-1.6313,-1.574,-1.5557,-1.5703,-1.5056,-1.4816,-1.4912,-1.3875,-1.3581,-1.37,-1.2203,-1.1542,-1.1446,-1.0457,-0.9961,-0.9843,-0.9843,-0.9843,-0.9843,-0.9843,-0.9659,-0.9468,-0.9468,-0.9255,-0.8925,-0.8192,-0.8484,-0.9014,-0.8699,-0.8717,-0.8794,-0.886,-0.8855,-0.8719,-0.8515,-0.8315,-0.7937,-0.723,-0.7069,-0.6686,-0.5433,-0.5218,-0.5054,-0.457,-0.4519,-0.4519,-0.4519,-0.4341,-0.4247,-0.4446,-0.4246,-0.41,-0.4251,-0.4267,-0.4187,-0.4036,-0.411,-0.413,-0.4029,-0.4202,-0.4241,-0.4204,-0.4247,-0.4155,-0.3799,-0.4268,-0.3987,-0.2852,-0.2011,-0.1563,-0.1563,-0.2635,-0.2693,-2.2243,-2.2979,-2.3213,-2.402,-2.2302,-2.0207,-1.9399,-1.7861,-1.6344,-1.5475,-1.5295,-1.5031,-1.4164,-1.3961,-1.357,-1.2582,-1.1633,-1.1283,-1.2004,-1.2064,-1.2542,-1.3882,-1.4932,-1.6312,-1.8237,-1.9616,-2.0632,-2.1153,-1.9493,-1.8416,-1.84,-1.7082,-1.6936,-1.8345,-1.6726,-1.5906,-1.6102,-1.5451,-1.4921,-1.4515,-1.413,-1.3914,-1.3881,-1.2965,-1.278,-1.3176,-1.2222,-1.2365,-1.3094,-1.1605,-1.0987,-1.0833,-0.9884,-0.9199,-0.8716,-0.8716,-0.8716,-0.8716,-0.8716,-0.8357,-0.7919,-0.7919,-0.7538,-0.6943,-0.6392,-0.7938,-0.9694,-0.8741,-0.804,-0.758,-0.7842,-0.7598,-0.7406,-0.7659,-0.7128,-0.6421,-0.5706,-0.5538,-0.5324,-0.4625,-0.4519,-0.4519,-0.4519,-0.4519,-0.4519,-0.4519,-0.4341,-0.4251,-0.446,-0.4298,-0.4267,-0.4477,-0.4494,-0.4365,-0.4046,-0.411,-0.413,-0.4029,-0.4297,-0.4402,-0.4217,-0.4402,-0.3799,-0.2232,-0.3705,-0.4514,-0.4458,-0.1457,-0.0,-0.0,-0.0056,0.1569,-2.0656,-2.1248,-2.1211,-2.0879,-1.9316,-1.7656,-1.6794,-1.5247,-1.3914,-1.3642,-1.3584,-1.3517,-1.322,-1.3121,-1.2757,-1.1742,-1.1301,-1.0927,-1.0513,-1.1827,-1.3209,-1.4223,-1.6929,-1.8789,-1.9007,-1.9911,-2.0239,-1.9662,-1.8868,-1.788,-1.6694,-1.5981,-1.6049,-1.6949,-1.592,-1.5356,-1.5437,-1.455,-1.391,-1.3485,-1.2734,-1.2399,-1.2398,-1.1813,-1.1803,-1.2198,-1.1593,-1.1674,-1.2151,-1.0652,-1.0186,-1.0321,-0.9341,-0.8837,-0.8716,-0.8716,-0.8716,-0.8716,-0.8716,-0.8357,-0.7919,-0.7919,-0.7238,-0.6435,-0.6264,-0.6761,-0.7218,-0.652,-0.6154,-0.608,-0.6499,-0.652,-0.6479,-0.6871,-0.675,-0.6421,-0.5651,-0.5487,-0.5324,-0.4625,-0.4525,-0.4473,-0.4473,-0.4504,-0.4476,-0.4525,-0.4439,-0.4369,-0.4174,-0.3207,-0.2638,-0.2894,-0.2905,-0.3299,-0.4271,-0.4388,-0.4301,-0.3997,-0.4324,-0.4467,-0.4426,-0.4487,-0.4291,-0.3797,-0.2219,-0.1407,-0.1407,-0.0443,0.1065,0.3091,0.3091,0.303,-1.8414,-1.8935,-1.8857,-1.8317,-1.6917,-1.5541,-1.4992,-1.3806,-1.2792,-1.2793,-1.2808,-1.2699,-1.2379,-1.2275,-1.1928,-1.0914,-1.0719,-1.0564,-1.0238,-1.1425,-1.26,-1.3315,-1.6538,-1.8339,-1.7453,-1.8405,-1.8728,-1.784,-1.732,-1.6564,-1.5468,-1.4992,-1.4919,-1.5334,-1.4768,-1.4369,-1.4326,-1.3519,-1.2834,-1.2232,-1.1693,-1.1363,-1.123,-1.0609,-1.0627,-1.1029,-1.0204,-1.0235,0.0,-0.9453,-0.9115,-0.9334,-0.8515,-0.8141,-0.8013,-0.7848,-0.7765,-0.7716,-0.7502,-0.721,-0.693,-0.693,-0.6289,-0.5524,-0.5524,-0.5701,-0.5787,-0.5394,-0.5363,-0.5534,-0.582,-0.5765,-0.5769,-0.613,-0.5944,-0.5586,-0.5218,-0.5128,-0.4977,-0.4606,-0.4508,-0.4287,-0.373,-0.365,-0.3607,-0.363,-0.365,-0.3791,-0.4125,-0.3179,-0.2393,-0.2227,-0.2183,-0.2611,-0.355,-0.366,-0.3553,-0.3317,-0.3545,-0.3869,-0.4504,-0.4477,-0.3983,-0.2828,0.0163,0.1686,0.1683,0.1108,0.179,0.3649,0.4219,0.3987,0.0,-1.6154,-1.6289,-1.6143,-1.4953,-1.3784,-1.3746,-1.3144,0.0,-1.2616,-1.2617,-1.2362,-1.1553,-1.1404,-1.1096,-1.0151,-1.0001,-1.0222,-1.0914,-1.1082,-1.1314,-1.1742,-1.4403,-1.568,-1.4343,-1.5654,-1.6382,-1.585,-1.5198,-1.4766,-1.4658,-1.4061,-1.3684,-1.361,-1.3242,-1.3025,-1.2953,-1.2351,-1.1682,-1.0972,-1.0874,-1.0658,-1.0346,-0.9439,-0.9264,-0.9658,-0.8372,-0.8294,-0.9067,-0.8087,-0.7779,-0.7889,-0.7433,-0.711,-0.681,-0.6307,-0.6136,-0.605,-0.548,-0.5303,-0.5303,-0.5265,-0.4874,-0.4391,-0.4347,-0.4739,-0.5178,-0.5178,-0.5361,-0.5565,-0.5585,-0.5282,-0.5097,-0.5418,-0.4741,-0.41,-0.4281,-0.4314,-0.4319,-0.4309,-0.4418,-0.4039,-0.2597,-0.2172,-0.2052,-0.2063,-0.2058,-0.254,-0.4009,-0.3673,-0.2932,-0.1833,-0.1738,-0.174,-0.1853,-0.1958,-0.2063,-0.2063,-0.184,-0.2402,-0.394,-0.4045,-0.2627,0.0279,0.2972,0.4396,0.4511,0.3079,0.2343,0.2399,0.3811,0.449,-1.2175,0.0,-1.4113,-1.2776,-1.218,-1.1767,0.0,-1.09,0.0,0.0,0.0,0.0,-1.0624,-1.0546,-1.0386,-1.0064,-0.9998,-1.0225,-1.0904,-1.2538,-1.3621,-1.3523,-1.5163,-1.5749,-1.4404,-1.5041,-1.5428,-1.5069,-1.4901,-1.4349,-1.3313,-1.3122,-1.2658,-1.1842,-1.103,-1.1175,-1.2383,-1.1244,-1.071,-1.0767,-0.9528,-0.9071,-0.9243,-0.8444,-0.8167,-0.8286,-0.7905,-0.767,-0.7583,-0.6925,-0.6572,-0.637,-0.5835,-0.5679,-0.569,-0.5567,-0.5524,-0.548,-0.5351,-0.5303,-0.5265,-0.4937,-0.4767,-0.4504,-0.3939,-0.3891,-0.4012,-0.4012,-0.4043,-0.4149,-0.4284,-0.4252,-0.4217,-0.4327,-0.3522,-0.269,-0.275,-0.2719,-0.2737,-0.2718,-0.3694,-0.4364,-0.4046,-0.2042,-0.0526,-0.05,-0.054,-0.0634,-0.1021,-0.0925,0.0109,0.2647,0.2929,0.2465,0.1283,0.0112,-0.0504,-0.0504,0.1621,0.224,0.0672,0.0598,0.1502,0.3407,0.2965,0.333,0.4501,0.4154,0.3978,0.3968,0.4311,0.4477,-1.0463,-1.1307,-1.2116,-1.0789,-1.0527,-1.0459,-1.0048,0.0,0.0,0.0,0.0,0.0,-1.0254,-1.0547,-1.0631,-1.0172,-1.0683,-1.1241,-1.1514,-1.2835,-1.3696,-1.3533,-1.4593,-1.4862,-1.3644,-1.4019,-1.402,-1.3242,-1.3182,-1.2811,-1.1963,-1.1779,-1.1357,-1.0573,-0.9941,-1.0162,-1.1264,-0.9966,-0.93,-0.93,-0.8228,-0.7744,-0.7786,-0.7195,-0.6941,-0.6916,-0.6884,-0.6528,-0.5956,-0.5821,-0.5566,-0.5201,-0.4966,-0.4989,-0.5203,-0.5062,-0.5019,-0.4975,-0.4626,-0.4499,-0.4316,-0.297,-0.2524,-0.2662,-0.3401,-0.2812,-0.218,-0.3268,-0.3588,-0.3605,-0.3739,-0.3342,-0.2795,-0.2301,-0.1689,-0.1198,-0.1216,-0.1204,-0.1184,-0.1214,-0.0958,-0.071,-0.0413,0.0413,0.1,0.0998,0.1031,0.1014,0.103,0.1036,0.1636,0.3273,0.4061,0.416,0.3302,0.2519,0.179,0.1062,0.2519,0.3368,0.3258,0.2581,0.2936,0.4494,0.4076,0.4324,0.5152,0.536,0.5462,0.5454,0.5454,0.5454,-0.9729,-1.0156,-1.0566,-0.9747,-0.9591,-0.9636,-0.9706,0.0,0.0,0.0,0.0,0.0,-1.0193,-1.0798,-1.1051,-1.0323,-1.1455,-1.239,-1.2308,-1.2701,-1.2916,-1.275,-1.3479,-1.3554,-1.2425,-1.2775,-1.2544,-1.1339,-1.1242,-1.1127,-1.0849,-1.0508,-1.0121,-0.9753,-0.9334,-0.9352,-0.9822,-0.8685,-0.797,-0.7664,-0.7163,-0.6747,-0.638,-0.5967,-0.5727,-0.5602,-0.5734,0.0,-0.4473,-0.4979,-0.4775,-0.4165,-0.4257,-0.4543,-0.4841,-0.4608,-0.428,-0.3873,-0.3265,-0.3046,-0.2729,-0.0665,0.0089,-0.0133,-0.1956,-0.1242,-0.0177,-0.2006,-0.2776,-0.3046,-0.3046,-0.2288,-0.1225,-0.0,0.0428,0.0535,0.0568,0.0561,0.0499,0.0298,0.1937,0.3547,0.4236,0.3362,0.2562,0.2536,0.2551,0.2533,0.254,0.2549,0.2589,0.2758,0.3959,0.4768,0.4823,0.482,0.4249,0.295,0.2783,0.3403,0.4764,0.3624,0.3569,0.482,0.558,0.6014,0.6014,0.6431,0.6588,0.6588,0.6588,0.6588,-0.9376,-0.9975,-1.0406,-0.9484,-0.926,-0.9287,-0.9357,0.0,0.0,0.0,0.0,0.0,-1.019,-1.032,-1.035,-1.0224,-1.1254,-1.2224,-1.2651,-1.3116,-1.3156,-1.2459,-1.2807,-1.2569,-1.122,-1.1591,-1.1682,-1.1015,-1.0968,-1.0811,-1.0494,-1.0121,-0.9766,-0.9463,-0.849,-0.7994,-0.8094,-0.7879,-0.7715,-0.7598,-0.6908,-0.6334,-0.5899,-0.5505,-0.4928,-0.4344,-0.4998,-0.4678,-0.3747,-0.4763,-0.4329,-0.2967,-0.3,-0.3349,-0.3844,-0.38,-0.2495,-0.0708,-0.0576,-0.0532,-0.0487,-0.0133,0.0443,0.1198,0.2186,0.1781,0.1242,0.2233,0.1023,-0.0532,-0.0532,-0.041,0.0047,0.1229,0.2291,0.3035,0.3024,0.2984,0.2694,0.1695,0.1813,0.2429,0.3544,0.3988,0.4141,0.4131,0.412,0.4142,0.4151,0.4171,0.4464,0.5259,0.5545,0.585,0.6268,0.6268,0.6154,0.5923,0.5559,0.5618,0.6268,0.65,0.65,0.6268,0.6431,0.6485,0.6485,0.6588,0.6588,0.6588,0.6588,0.6588,-0.9301,-0.9576,-0.9716,-0.9214,-0.9799,-1.0465,0.0,0.0,0.0,0.0,0.0,0.0,-1.0676,-1.1106,-1.1738,-1.2645,-1.2506,-1.2444,-1.2957,-1.2771,-1.2543,-1.2425,-1.2124,-1.1825,-1.1543,-1.1365,-1.1075,-1.0653,-1.0643,-1.0483,-1.0135,-0.9791,-0.9319,-0.8785,-0.7752,-0.6892,-0.6182,-0.6015,-0.605,-0.6298,-0.5526,-0.5118,-0.5023,-0.4852,-0.4479,-0.4036,0.0,-0.3626,-0.2153,-0.2968,-0.2483,-0.1254,-0.1322,-0.152,-0.1754,-0.1797,-0.021,0.1941,0.1941,0.1924,0.196,0.1956,0.2485,0.3199,0.3832,0.3727,0.3578,0.4312,0.329,0.2093,0.2713,0.2887,0.3064,0.3844,0.4421,0.473,0.4307,0.4155,0.4226,0.4538,0.4274,0.4248,0.487,0.5197,0.534,0.5427,0.5561,0.5651,0.5618,0.5629,0.5814,0.6207,0.6279,0.6381,0.6588,0.6588,0.6588,0.6588,0.6381,0.6381,0.6588,0.682,0.6874,0.6588,0.6966,0.7182,0.7182,0.7616,0.7777,0.7777,0.7777,0.7777,-0.93,-0.9339,-0.9352,-0.9212,0.0,0.0,0.0,0.0,0.0,0.0,0.0,0.0,-1.1135,-1.1697,-1.2584,-1.378,-1.3252,-1.2709,-1.2784,-1.2435,-1.2161,-1.2182,-1.1621,-1.1361,-1.1668,-1.1047,-1.0465,-1.0027,-0.9929,-0.9691,-0.9279,-0.8849,-0.8319,-0.7639,-0.6787,-0.5899,-0.4915,-0.4429,-0.4445,-0.4953,-0.4353,-0.4172,-0.4285,-0.3798,-0.3392,-0.3064,-0.3066,-0.2066,-0.0461,-0.0391,0.0163,0.0932,0.0809,0.0796,0.0808,0.084,0.2207,0.3969,0.392,0.3941,0.3983,0.4016,0.4451,0.5014,0.4865,0.5196,0.5669,0.5669,0.5038,0.4499,0.515,0.5296,0.5379,0.5707,0.575,0.5608,0.5146,0.5124,0.5601,0.6769,0.6531,0.6141,0.618,0.5997,0.5906,0.6017,0.6231,0.6448,0.6498,0.6508,0.663,0.7052,0.7111,0.7219,0.7534,0.7587,0.7587,0.7587,0.7267,0.7219,0.7581,0.7587,0.7587,0.7587,0.8125,0.8448,0.8448,0.8988,0.9263,0.9263,0.9263,0.9263,-0.9263,-0.9627,-0.9903,-0.9696,0.0,0.0,0.0,-1.0468,0.0,-1.2008,0.0,0.0,-1.1258,-1.1207,-1.121,-1.0953,-1.2221,-1.2853,-1.1777,-1.2537,-1.2724,-1.1438,-1.1508,-1.1359,-1.0589,-1.0133,-0.9579,-0.8864,-0.8545,-0.8055,-0.7333,-0.6677,-0.6202,-0.5902,-0.5344,-0.4993,-0.4896,-0.4005,-0.3777,-0.4173,-0.4306,-0.4258,-0.3973,-0.2021,-0.0827,-0.03,-0.0299,0.0099,0.0924,0.2794,0.3649,0.3695,0.3686,0.3679,0.3746,0.4161,0.4705,0.5147,0.4913,0.4959,0.5178,0.5178,0.5545,0.5993,0.5987,0.6349,0.6796,0.6796,0.6713,0.6475,0.5556,0.5313,0.5313,0.5351,0.5356,0.548,0.5893,0.6452,0.6839,0.689,0.6917,0.6768,0.6198,0.5768,0.5533,0.5548,0.573,0.5937,0.6186,0.6211,0.6799,0.839,0.8521,0.9096,1.0399,1.0501,1.0501,1.0501,0.9252,0.9148,1.045,1.0501,1.0501,1.0501,1.0559,1.0559,1.0559,1.061,1.0661,1.0661,1.0661,1.0661,-0.8985,-0.9481,-0.9847,-0.9238,0.0,0.0,0.0,-1.1568,-1.1594,-1.1535,-1.2232,0.0,0.0,-1.2294,-1.2559,-1.1773,-1.2331,-1.2662,-1.2082,-1.2209,-1.2021,-1.1129,-1.0692,-1.0191,-0.9476,-0.8927,-0.8428,-0.7993,-0.7689,-0.7607,-0.783,-0.7124,-0.6445,-0.5843,-0.5192,-0.4024,-0.2361,-0.1533,-0.1211,-0.1371,-0.1566,-0.1605,-0.1466,-0.0297,0.1059,0.2471,0.2498,0.2721,0.3151,0.3911,0.4149,0.4009,0.3994,0.4005,0.4068,0.4477,0.4965,0.5456,0.5591,0.5933,0.6313,0.6313,0.6697,0.7197,0.7491,0.7987,0.8456,0.8456,0.8671,0.8575,0.7197,0.6842,0.6932,0.7321,0.7412,0.7453,0.7687,0.7908,0.8039,0.8016,0.8024,0.7998,0.7777,0.7745,0.7739,0.7739,0.7951,0.8132,0.8242,0.8519,0.8933,0.9562,0.986,1.0238,1.0762,1.0813,1.0965,1.1416,1.0543,1.0238,1.0762,1.0813,1.0813,1.0813,1.0813,1.1007,1.1382,1.1382,1.1563,1.1969,1.1969,1.1742,-0.8632,-0.8882,-0.8987,0.0,0.0,0.0,0.0,-1.1727,-1.1778,-1.176,-1.231,-1.2576,-1.185,-1.2363,-1.2545,-1.1524,-1.2041,-1.2367,-1.1666,-1.176,-1.1576,-1.0715,-1.035,-0.9769,-0.8733,-0.811,-0.7703,-0.7508,-0.711,-0.6639,-0.6099,-0.5304,-0.4495,-0.3676,-0.3192,-0.1956,0.0072,0.1255,0.1858,0.1837,0.1542,0.1348,0.1266,0.1786,0.2882,0.4356,0.4237,0.4452,0.4832,0.4832,0.482,0.4776,0.4776,0.4859,0.4973,0.5242,0.5735,0.6342,0.6595,0.7115,0.7651,0.7651,0.8183,0.8847,0.9177,0.9683,1.0157,1.0157,1.0472,1.0555,0.937,0.8665,0.8407,0.8812,0.8788,0.8756,0.8918,0.8958,0.9039,0.9381,0.9301,0.9213,0.9363,0.9415,0.9416,0.9407,0.9589,0.9717,0.9836,1.0094,1.0471,1.0989,1.1447,1.1846,1.2033,1.2033,1.2229,1.2677,1.2278,1.1935,1.1747,1.1935,1.2033,1.2033,1.2033,1.2211,1.2628,1.2628,1.2859,1.3314,1.3314,1.3087,-0.8217,-0.7793,-0.7279,-0.759,0.0,0.0,-1.0039,-1.0476,-1.095,-1.2966,-1.268,-1.1856,-1.1203,-1.0964,-1.0514,-0.9436,-1.1091,-1.1922,-1.0179,-1.1133,-1.1487,-1.0065,-1.0603,-1.033,-0.8394,-0.7733,-0.74,-0.7406,-0.6739,-0.4826,-0.1368,-0.0395,0.0416,0.1216,0.1192,0.1465,0.2052,0.4162,0.5215,0.5225,0.4668,0.43,0.4044,0.4291,0.4701,0.5202,0.4808,0.5067,0.5799,0.5799,0.609,0.651,0.651,0.6704,0.7016,0.7016,0.7451,0.8014,0.8023,0.8599,0.9331,0.9331,1.0073,1.0935,1.0945,1.135,1.1811,1.1811,1.2092,1.233,1.1934,1.0626,0.9455,0.9415,0.9053,0.8878,0.9399,0.9518,0.9825,1.0819,1.057,1.0359,1.0833,1.0462,1.0137,1.0107,1.0127,1.0225,1.057,1.0542,1.1122,1.2618,1.3406,1.405,1.4652,1.4698,1.4698,1.4698,1.4698,1.4468,1.3815,1.4376,1.4698,1.4698,1.4698,1.4698,1.4698,1.4698,1.4698,1.4709,1.4709,1.4698,-0.6894,-0.7131,-0.7148,-0.629,-0.6785,0.0,0.0,-0.8894,0.0,0.0,-1.0608,-0.9484,-0.8956,-0.8924,-0.8349,-0.6382,-0.6774,-0.6737,-0.5038,-0.4993,-0.4444,-0.2558,-0.2371,-0.2131,-0.141,-0.1188,-0.11,-0.1094,-0.0719,-0.0258,0.0251,0.2116,0.3707,0.4886,0.5816,0.616,0.5884,0.6778,0.7044,0.6674,0.6569,0.6121,0.5399,0.4794,0.5105,0.6067,0.6211,0.6572,0.7055,0.7055,0.7143,0.7279,0.7279,0.7473,0.7804,0.8095,0.8652,0.9296,0.9585,1.034,1.1191,1.1191,1.1742,1.2457,1.2839,1.3048,1.3099,1.2642,1.3161,1.3677,1.2741,1.25,1.226,1.1302,1.0987,1.0922,1.1084,1.1132,1.1196,1.1505,1.1645,1.1793,1.1938,1.2059,1.206,1.1748,1.1723,1.1741,1.1873,1.1855,1.2141,1.2871,1.352,1.4116,1.4638,1.5063,1.5416,1.5818,1.623,1.5867,1.4514,1.4606,1.4698,1.4698,1.4698,1.4926,1.532,1.532,1.5555,1.5976,1.5976,1.5744,-0.5918,-0.6209,-0.6229,-0.5312,-0.5643,-0.6011,-0.5382,-0.7031,-0.8828,-0.9307,-0.814,-0.6812,-0.6022,-0.5784,-0.5212,-0.3705,-0.3649,-0.3437,-0.242,-0.2029,-0.0917,0.1598,0.2032,0.291,0.4866,0.4762,0.4582,0.4585,0.4787,0.4606,0.3917,0.5199,0.6352,0.7184,0.7994,0.8368,0.8299,0.8537,0.8581,0.8451,0.8155,0.791,0.7743,0.6676,0.6676,0.7528,0.7934,0.8244,0.8475,0.8475,0.8475,0.8475,0.8475,0.8682,0.9007,0.9253,0.9721,1.0285,1.0494,1.1152,1.1869,1.1869,1.2303,1.2849,1.3183,1.3289,1.3208,1.2801,1.3482,1.4154,1.3314,1.3682,1.4017,1.2879,1.2425,1.2271,1.2271,1.2271,1.2342,1.2543,1.2798,1.3039,1.3209,1.3452,1.3506,1.3276,1.3243,1.3238,1.3201,1.3186,1.3459,1.4173,1.4595,1.5162,1.598,1.6338,1.6654,1.7003,1.7342,1.7109,1.6108,1.6065,1.6065,1.6065,1.6065,1.6237,1.6591,1.6591,1.6773,1.7146,1.7146,1.6925,-0.5205,-0.5065,-0.4734,-0.4415,-0.4045,-0.3364,-0.1896,-0.4875,-0.7664,-0.6691,-0.5359,-0.3987,-0.2699,-0.203,-0.1577,-0.1298,-0.1274,-0.1296,-0.1336,-0.0909,0.0536,0.3593,0.3996,0.5671,0.9903,0.9593,0.9142,0.9134,0.9246,0.9062,0.8512,0.8431,0.8387,0.8364,0.8468,0.89,0.9647,0.959,0.9876,1.0457,0.955,0.968,1.0655,0.9254,0.8887,0.9362,0.978,0.9956,0.9956,0.9956,0.9956,0.9956,0.9956,1.0143,1.0441,1.0465,1.0699,1.1015,1.1048,1.1392,1.1883,1.1883,1.2247,1.2692,1.2692,1.2692,1.2692,1.2622,1.3388,1.4155,1.3712,1.4411,1.5075,1.4247,1.3579,1.3154,1.3154,1.3154,1.3267,1.3762,1.3906,1.4049,1.4487,1.4596,1.4627,1.4613,1.4582,1.4525,1.4504,1.4501,1.4924,1.607,1.6242,1.6767,1.7993,1.8143,1.8185,1.8263,1.8263,1.8263,1.8263,1.8145,1.8106,1.8106,1.8106,1.8106,1.8106,1.8106,1.8106,1.8106,1.8106,1.8106,-0.4346,-0.3728,-0.3138,-0.2609,-0.2492,-0.239,-0.2056,-0.207,-0.2241,-0.2478,-0.2184,-0.1461,-0.0064,0.0115,0.0354,0.1234,0.2103,0.2563,0.225,0.3676,0.5625,0.7987,0.85,0.9083,1.0197,0.9763,0.9404,0.9418,0.9341,0.9242,0.9116,0.9579,0.9553,0.8874,0.9823,1.0472,1.0753,1.0351,1.0949,1.2555,1.1304,1.1278,1.2291,0.9933,0.9392,1.0416,1.0966,1.1219,1.1219,1.1219,1.1219,1.1219,1.1219,1.1292,1.141,1.1649,1.18,1.1946,1.2159,1.2655,1.3193,1.3193,1.3628,1.4137,1.4137,1.4137,1.4029,1.352,1.4319,1.5218,1.4599,1.5442,1.6389,1.6208,1.5139,1.416,1.416,1.416,1.4192,1.4315,1.4599,1.4862,1.4937,1.5285,1.5477,1.5374,1.5093,1.4972,1.5211,1.5256,1.5453,1.5995,1.6416,1.7065,1.8014,1.8493,1.8893,1.9332,1.9369,1.9369,1.9369,1.8535,1.8106,1.8106,1.8106,1.8106,1.8106,1.8106,1.8106,1.8106,1.8106,1.8106,-0.3826,-0.3155,-0.2289,-0.0742,-0.0306,-0.0064,0.0609,0.1427,0.1961,0.1633,0.13,0.1438,0.2724,0.3058,0.3292,0.3757,0.3705,0.4049,0.5268,0.5132,0.5336,0.645,0.7079,0.8134,0.9986,0.8475,0.8066,0.9709,0.9778,0.9717,0.9691,0.9955,1.0051,0.9919,1.0548,1.0984,1.114,1.1273,1.1642,1.219,1.1936,1.212,1.2669,1.1394,1.1103,1.1625,1.204,1.2171,1.2081,1.2081,1.2081,1.2081,1.2081,1.2162,1.2286,1.2438,1.2568,1.2697,1.2844,1.3127,1.342,1.342,1.3583,1.3787,1.3787,1.3721,1.3568,1.3227,1.4137,1.5144,1.4799,1.5735,1.6789,1.6789,1.6184,1.5607,1.5607,1.5607,1.555,1.5389,1.5651,1.5866,1.571,1.6009,1.6258,1.6196,1.6016,1.593,1.6092,1.6425,1.6833,1.7334,1.7942,1.8659,1.9409,1.9741,2.0024,2.0311,2.0311,2.0311,2.0311,1.9798,1.928,1.8878,1.8855,1.8855,1.8855,1.8855,1.8855,1.8855,1.8855,1.8855,-0.3508,-0.2716,-0.1409,0.1061,0.1982,0.2599,0.3721,0.4412,0.4855,0.4894,0.4267,0.3995,0.5001,0.5432,0.5649,0.5752,0.4381,0.4033,0.616,0.5192,0.3889,0.2856,0.3318,0.4932,0.7976,0.6486,0.6424,0.9076,0.9835,1.0157,1.0091,1.0018,1.0201,1.0759,1.0775,1.0913,1.1212,1.1772,1.1811,1.1324,1.205,1.2406,1.2372,1.2626,1.2756,1.2785,1.2987,1.2969,1.2822,1.2822,1.2822,1.2822,1.2822,1.2914,1.3023,1.3057,1.3143,1.3259,1.3292,1.3308,1.3308,1.3308,1.321,1.3075,1.3075,1.2968,1.2838,1.2987,1.3969,1.5011,1.5147,1.6138,1.7109,1.7109,1.7109,1.706,1.6825,1.6789,1.6712,1.6448,1.6607,1.6712,1.6421,1.6607,1.6815,1.6892,1.6988,1.7094,1.7145,1.7811,1.8508,1.9106,1.9702,2.0315,2.0943,2.0991,2.0991,2.0991,2.0991,2.0991,2.0991,2.0991,2.0665,1.9945,1.9909,1.9909,1.9909,1.9909,1.9909,1.9909,1.9909,1.9909,-0.3327,-0.1567,0.0523,0.2678,0.3763,0.4299,0.4264,0.4845,0.5463,0.5697,0.5279,0.502,0.5461,0.4972,0.4943,0.626,0.4684,0.2768,0.125,0.5151,0.6227,0.1052,0.0539,0.0799,0.1281,0.4297,0.6025,0.5561,0.8366,1.0108,1.0093,1.0149,1.0192,1.0288,1.0247,1.0549,1.1287,1.059,1.0886,1.2137,1.2096,1.198,1.1805,1.202,1.2579,1.3387,1.3656,1.3748,1.3736,1.3736,1.3736,1.3736,1.3736,1.3594,1.3449,1.3686,1.3639,1.3496,1.3731,1.381,1.381,1.381,1.3795,1.378,1.378,1.3751,1.3873,1.457,1.5396,1.6256,1.694,1.7746,1.8356,1.8356,1.8356,1.8073,1.7027,1.6789,1.6789,1.6738,1.6763,1.6789,1.6738,1.6763,1.6917,1.7199,1.779,1.8302,1.8598,1.9261,1.987,2.0237,2.0373,2.0587,2.0975,2.0991,2.0991,2.0991,2.0991,2.0991,2.0991,2.0991,2.0942,2.0829,2.0829,2.0829,2.0829,2.0829,2.0829,2.0829,2.0829,2.0829,-0.2663,-0.1244,0.0497,0.3266,0.4441,0.5001,0.524,0.543,0.5526,0.547,0.5701,0.5932,0.5888,0.3694,0.274,0.5339,0.3345,0.1111,0.0139,0.2255,0.293,0.0305,0.0,0.1433,0.5088,0.384,0.4151,0.7413,0.9111,1.0025,1.009,1.0168,1.0209,1.0195,1.0166,1.0314,1.061,1.066,1.1038,1.1732,1.1161,1.1075,1.1411,1.1517,1.2123,1.3125,1.3362,1.3622,1.3913,1.3913,1.3913,1.3913,1.3913,1.3944,1.3997,1.406,1.4108,1.4186,1.4221,1.4245,1.4239,1.432,1.4277,1.4197,1.4265,1.4526,1.487,1.5215,1.6232,1.7288,1.7633,1.821,1.8717,1.8717,1.8644,1.8452,1.7907,1.7798,1.7798,1.7798,1.7648,1.7535,1.7568,1.792,1.8188,1.8198,1.8988,1.9631,1.9791,2.0593,2.1229,2.1376,2.1764,2.2012,2.1967,2.2135,2.2163,2.1955,2.2135,2.2228,2.2228,2.2228,2.2228,2.2228,2.1411,2.0991,2.0991,2.0991,2.0991,2.0991,2.0991,2.0991,-0.2094,-0.1046,0.0297,0.3101,0.4309,0.502,0.5866,0.595,0.5595,0.4661,0.5408,0.6224,0.623,0.2818,0.0837,0.3382,0.1664,0.0,0.0,0.0,0.0606,0.2278,0.2461,0.3729,0.6925,0.4335,0.4189,0.8372,0.8923,0.9362,1.0048,1.0151,1.0193,1.0204,1.0209,1.0186,1.0127,1.0728,1.1013,1.1003,1.0335,1.035,1.0915,1.0915,1.1457,1.2404,1.2754,1.3238,1.382,1.382,1.3941,1.4147,1.4147,1.4307,1.4518,1.4414,1.4534,1.4737,1.4643,1.4611,1.4622,1.4717,1.465,1.455,1.4642,1.5136,1.5696,1.59,1.6984,1.8122,1.8326,1.872,1.9047,1.9047,1.8974,1.8842,1.8642,1.8585,1.8585,1.8585,1.8397,1.831,1.8575,1.9059,1.943,1.9419,2.0275,2.0917,2.0917,2.1789,2.2362,2.2362,2.2876,2.3093,2.2848,2.3069,2.3093,2.2848,2.3069,2.3189,2.3189,2.3189,2.3189,2.3189,2.2118,2.1546,2.1546,2.1546,2.1546,2.1546,2.1546,2.1546,-0.1907,-0.074,0.06,0.2046,0.3196,0.4304,0.5616,0.6236,0.5824,0.3262,0.4034,0.5461,0.6395,0.2972,0.0058,0.0233,0.0116,0.0,0.0,0.0,0.2278,0.8468,0.9184,0.6906,0.1065,0.5768,0.8124,0.5534,0.6242,0.7712,0.9891,1.012,1.0206,1.021,1.0201,1.0195,1.0195,1.0238,1.0251,1.0263,1.0148,1.0129,1.0167,1.0167,1.057,1.132,1.2038,1.2834,1.3622,1.3622,1.4109,1.485,1.485,1.4859,1.4867,1.4877,1.4867,1.4895,1.4886,1.4886,1.4886,1.4895,1.4886,1.4886,1.4876,1.5432,1.6234,1.6998,1.7866,1.8734,1.9496,1.9729,1.9755,1.9755,1.9743,1.9529,1.8753,1.8585,1.8585,1.8585,1.8585,1.8815,1.958,1.9739,2.0043,2.0773,2.1533,2.2025,2.2025,2.2681,2.3136,2.3136,2.3171,2.3189,2.3165,2.3189,2.3189,2.3165,2.3189,2.3189,2.3189,2.3189,2.3189,2.3189,2.3124,2.3093,2.3093,2.3093,2.3093,2.3093,2.3093,2.3093,-0.1918,-0.1158,-0.0225,0.0769,0.2218,0.3571,0.4268,0.556,0.6323,0.5378,0.5134,0.5404,0.6413,0.298,0.0,0.0,0.3222,0.5707,0.5707,0.4191,0.3936,0.6267,0.8406,0.878,0.6447,0.6424,0.6099,0.4987,0.7279,0.911,1.003,0.8076,0.7902,1.0075,1.018,1.0224,1.0254,1.0211,1.0195,1.0194,1.0175,1.0156,1.0156,1.0156,1.0609,1.1403,1.1666,1.2471,1.3637,1.4199,1.4612,1.4904,1.4904,1.4928,1.4965,1.4911,1.4936,1.4965,1.4911,1.4904,1.4913,1.495,1.4954,1.4989,1.5066,1.6051,1.7187,1.7485,1.8595,1.9753,2.0059,2.0031,1.9912,1.9813,1.979,1.9731,1.9416,1.9295,1.9209,1.9064,1.9048,1.9251,1.9938,2.0457,2.099,2.1612,2.2504,2.3131,2.3131,2.3551,2.3837,2.3837,2.3837,2.3735,2.3544,2.3714,2.3753,2.3544,2.3714,2.3837,2.3837,2.3837,2.3837,2.3837,2.3837,2.3628,2.3189,2.3189,2.3189,2.3189,2.3189,2.3189,-0.1587,0.0,-0.074,-0.0044,0.1228,0.2319,0.2376,0.3425,0.4383,0.4383,0.385,0.3589,0.4255,0.1978,0.0,0.0,0.4996,0.8891,0.8891,0.732,0.6208,0.6275,0.821,0.9577,0.9691,0.7727,0.6462,0.6501,0.8618,0.996,1.009,0.6924,0.6288,0.8904,0.9042,0.9438,1.0269,1.0214,1.0207,1.0202,1.0196,1.0203,1.0203,1.0203,1.0676,1.1525,1.1819,1.2627,1.3776,1.4361,1.4772,1.503,1.503,1.5057,1.5106,1.5061,1.5057,1.5087,1.5061,1.503,1.5046,1.5092,1.5292,1.5542,1.5632,1.6855,1.8191,1.8197,1.9223,2.0331,2.0331,2.0216,2.0088,2.0001,1.9971,1.9941,1.988,1.9762,1.963,1.949,1.9476,1.9767,2.0733,2.1308,2.1953,2.2863,2.3618,2.408,2.408,2.4247,2.441,2.441,2.441,2.4302,2.408,2.4284,2.4302,2.408,2.4284,2.441,2.441,2.441,2.441,2.441,2.441,2.4174,2.3731,2.3595,2.3544,2.3544,2.3544,2.3544,0.0,0.0,0.0,-0.0303,0.026,0.0576,0.0155,0.0081,0.0076,0.0013,0.0,0.0,0.0,0.0,0.0051,0.0237,0.5053,0.879,0.8874,0.8902,0.8979,0.9174,0.9222,0.9339,0.9675,0.9698,0.9754,0.9875,0.9812,0.9846,1.009,0.7018,0.5717,0.6728,0.6841,0.7963,1.0172,1.0209,1.0195,1.0195,1.02,1.0199,1.0197,1.0238,1.0727,1.1585,1.2468,1.3309,1.4034,1.4034,1.4535,1.5297,1.5297,1.5297,1.5297,1.5297,1.5297,1.5297,1.5297,1.5297,1.5297,1.5297,1.5892,1.6604,1.6604,1.781,1.9206,1.9207,1.9783,2.0396,2.0396,2.035,2.0312,2.0312,2.0312,2.0241,2.006,1.9912,1.9802,1.979,1.9809,2.0356,2.2016,2.2318,2.2903,2.4559,2.4804,2.4804,2.4804,2.4804,2.4804,2.4804,2.4804,2.4804,2.4804,2.4804,2.4804,2.4804,2.4804,2.4804,2.4804,2.4804,2.4804,2.4804,2.4804,2.4804,2.4804,2.441,2.4209,2.4209,2.4209,2.4209,-0.0316,0.0,0.0,0.0,0.0,0.0,0.1294,0.1931,0.1931,0.0328,0.0,0.0,0.0,0.0,0.1406,0.5724,0.6029,0.6469,0.8603,0.9057,0.9216,0.9265,0.9448,0.9593,0.9691,0.9698,0.9721,0.9754,0.7562,0.7358,0.9956,0.9229,0.7742,0.5644,0.7972,0.9552,1.0196,1.0199,1.0198,1.0194,1.0193,1.0197,1.0212,1.0852,1.164,1.2565,1.3387,1.4221,1.5004,1.4967,1.507,1.5299,1.5299,1.5299,1.5299,1.5299,1.5299,1.5299,1.5299,1.5299,1.5299,1.5299,1.5889,1.6596,1.6596,1.7812,1.92,1.9196,1.9778,2.04,2.04,2.0392,2.0369,2.0369,2.035,2.0285,2.0233,2.018,2.0088,1.9855,2.0311,2.1079,2.2129,2.2771,2.3539,2.4634,2.4804,2.4804,2.4804,2.4804,2.4804,2.4804,2.4804,2.4804,2.4804,2.4804,2.4804,2.4804,2.4804,2.4804,2.4804,2.4804,2.4804,2.4804,2.4804,2.4804,2.4804,2.4685,2.4623,2.4623,2.4623,2.4623,0.0,0.0,0.0,0.0,0.0,0.0,0.1353,0.2297,0.3032,0.2797,0.129,0.0,0.0,0.0,0.1135,0.4629,0.5826,0.6944,0.8654,0.9043,0.9167,0.9245,0.9367,0.9483,0.9525,0.9593,0.9633,0.9698,0.7929,0.779,0.999,1.0094,0.921,0.7249,0.9117,1.0156,1.0156,1.0194,1.037,1.07,1.0366,1.058,1.125,1.1424,1.2182,1.3366,1.3496,1.4238,1.5332,1.4951,1.5001,1.5332,1.5332,1.5332,1.5332,1.5332,1.5332,1.5332,1.5332,1.5587,1.588,1.588,1.6721,1.7737,1.7737,1.8695,1.977,1.977,2.0118,2.0482,2.0443,2.0448,2.0425,2.0404,2.0366,2.0444,2.0804,2.0885,2.071,2.0117,2.0688,2.1526,2.2372,2.3191,2.4041,2.4885,2.5019,2.5019,2.5019,2.5019,2.5019,2.5019,2.5019,2.5019,2.5019,2.5019,2.5019,2.5019,2.5019,2.5019,2.5019,2.5019,2.5019,2.5019,2.5019,2.5019,2.5019,2.4874,2.4804,2.4804,2.4804,2.4804,0.0,0.0,0.0,0.0,0.1234,0.0,0.1002,0.1969,0.3571,0.5743,0.3108,0.0395,0.0337,0.0324,0.0345,0.0388,0.4628,0.8028,0.8366,0.84,0.8599,0.9109,0.9136,0.9179,0.9331,0.9447,0.9567,0.9691,0.9478,0.9557,1.0042,1.0078,1.0082,1.0086,1.009,1.0094,1.0094,1.0175,1.0564,1.1244,1.0622,1.1118,1.2546,1.2014,1.2537,1.3841,1.3309,1.3873,1.5115,1.4499,1.4686,1.5391,1.5391,1.5391,1.5391,1.5391,1.5391,1.541,1.5508,1.6055,1.6719,1.6816,1.7969,1.9297,1.9297,1.9902,2.0605,2.0605,2.0605,2.0586,2.0527,2.0508,2.0506,2.0444,2.0425,2.0647,2.1524,2.1714,2.1471,2.0742,2.1259,2.2051,2.2821,2.3687,2.4505,2.5216,2.5322,2.5322,2.5322,2.5322,2.5322,2.5322,2.5322,2.5322,2.5322,2.5322,2.5322,2.5303,2.5322,2.5322,2.5303,2.5322,2.5322,2.5303,2.5303,2.5303,2.5303,2.4987,2.4861,2.4861,2.4861,2.4861,0.0,0.0,0.0,0.0,0.2098,0.0,0.2302,0.3114,0.3798,0.3659,0.3287,0.2839,0.2417,0.2379,0.2521,0.285,0.2241,0.2591,0.5007,0.5362,0.6265,0.8674,0.9146,0.9358,0.9601,0.9641,0.9683,0.9698,0.8051,0.787,0.9755,0.996,1.0025,1.0011,1.0074,1.0094,1.0094,1.0175,1.0256,1.0364,1.0902,1.1335,1.1685,1.2897,1.3282,1.3099,1.4284,1.4599,1.4308,1.4849,1.5196,1.5391,1.5391,1.5391,1.5391,1.5391,1.5391,1.5508,1.6191,1.6562,1.6816,1.7519,1.8457,1.9297,1.9297,1.9902,2.0605,2.0605,2.0605,2.0605,2.0586,2.0586,2.0586,2.0564,2.0524,2.072,2.1591,2.1752,2.1847,2.2377,2.3173,2.3813,2.3972,2.4697,2.5274,2.5447,2.5466,2.5466,2.5466,2.5466,2.5466,2.5466,2.5466,2.5466,2.5466,2.5466,2.5447,2.539,2.5428,2.5447,2.539,2.5428,2.5447,2.539,2.5322,2.5303,2.5303,2.5233,2.5212,2.5212,2.5212,2.5212,0.0,0.0,0.2736,0.2614,0.2727,0.0,0.0,0.3305,0.351,0.3912,0.4219,0.4337,0.4126,0.4286,0.4591,0.5023,0.4222,0.3665,0.3998,0.3022,0.2808,0.4285,0.5901,0.6956,0.7093,0.8679,0.9698,0.9698,0.867,0.8563,0.9732,0.9899,0.9957,0.9955,1.0025,1.002,1.0006,1.0025,1.0273,1.0694,1.1134,1.1815,1.2685,1.3511,1.3709,1.3406,1.4228,1.4354,1.398,1.4456,1.4936,1.5354,1.5348,1.5367,1.5391,1.5391,1.5684,1.6113,1.6543,1.7266,1.8066,1.8516,1.9238,1.9941,1.9941,2.0254,2.0605,2.0605,2.0605,2.0605,2.0605,2.0605,2.0605,2.0605,2.0566,2.0798,2.1662,2.2135,2.2664,2.3525,2.4404,2.4851,2.4381,2.4974,2.5503,2.5503,2.5503,2.5503,2.5503,2.5503,2.5503,2.5503,2.5503,2.5503,2.5503,2.5503,2.5483,2.5444,2.5474,2.5484,2.5456,2.5483,2.5476,2.5447,2.5428,2.5409,2.5409,2.5409,2.537,2.5303,2.5303,2.5303,0.3078,0.3247,0.3468,0.3308,0.339,0.3556,0.0,0.0,0.0,0.4742,0.5049,0.5146,0.531,0.5622,0.6009,0.6448,0.6778,0.6234,0.4125,0.2407,0.121,0.0766,0.3412,0.5277,0.5277,0.7939,0.9408,0.8798,0.9334,0.9717,0.9774,0.9844,0.9888,0.9888,0.9955,0.996,0.9893,0.9893,1.0279,1.1035,1.1376,1.2268,1.3635,1.3819,1.3896,1.3896,1.3896,1.3896,1.392,1.4143,1.4643,1.5284,1.5295,1.5329,1.5382,1.5388,1.5935,1.6695,1.6872,1.7946,1.9294,1.947,1.9997,2.0564,2.0586,2.0586,2.0586,2.0605,2.0605,2.0605,2.0605,2.0605,2.0605,2.0605,2.0605,2.0879,2.1934,2.2644,2.3413,2.445,2.5213,2.5467,2.4703,2.5102,2.5543,2.5543,2.5543,2.5543,2.5543,2.5543,2.5543,2.5543,2.5543,2.5543,2.5543,2.5543,2.5524,2.5524,2.5526,2.5539,2.5523,2.5522,2.5517,2.553,2.55,2.5502,2.5502,2.5502,2.5437,2.5341,2.5341,2.5341,0.3269,0.3584,0.3984,0.4199,0.4427,0.4562,0.4368,0.0,0.4771,0.4602,0.0,0.5166,0.5435,0.0,0.0,0.6183,0.6388,0.6054,0.4824,0.5603,0.5548,0.3524,0.6105,0.8044,0.8044,0.8947,0.8366,0.5561,0.7998,0.9636,0.9703,0.9764,0.9811,0.9811,0.9869,0.9904,0.9893,0.9893,0.9955,1.008,1.1634,1.2469,1.2691,1.3509,1.3896,1.3896,1.3896,1.3896,1.3953,1.4747,1.5118,1.5214,1.527,1.5306,1.5318,1.53,1.586,1.672,1.7504,1.8367,1.925,2.0016,2.0347,2.0422,2.0486,2.0508,2.0527,2.0586,2.0605,2.0605,2.0605,2.0605,2.0605,2.0605,2.0605,2.1055,2.2695,2.3086,2.3593,2.5233,2.5624,2.5663,2.5565,2.5624,2.5683,2.5683,2.5683,2.5683,2.5683,2.5683,2.5683,2.5683,2.5683,2.5683,2.5683,2.5683,2.5643,2.5585,2.5635,2.5659,2.5591,2.559,2.5584,2.5581,2.5524,2.5507,2.5507,2.5507,2.5485,2.5486,2.5486,2.5486,0.4017,0.4574,0.5101,0.4829,0.5162,0.5452,0.5072,0.5047,0.5164,0.539,0.0,0.0,0.0,0.0,0.0,0.0,0.6278,0.595,0.55,0.5862,0.559,0.3997,0.6387,0.8329,0.8751,0.9005,0.8691,0.7615,0.8702,0.95,0.9691,0.9717,0.9739,0.9739,0.9805,0.9825,0.9777,0.9825,1.0087,1.0555,1.187,1.2769,1.3278,1.3695,1.3896,1.3896,1.3896,1.3896,1.3978,1.4843,1.5189,1.5189,1.5234,1.5272,1.5355,1.5815,1.6565,1.7468,1.8306,1.9143,1.9915,2.027,2.0411,2.0404,2.0425,2.0445,2.0443,2.0482,2.0482,2.0482,2.0482,2.0482,2.0482,2.0482,2.0482,2.0811,2.2054,2.2746,2.3457,2.4648,2.5332,2.5703,2.5703,2.5703,2.5703,2.5703,2.5703,2.5703,2.5703,2.5703,2.5703,2.5703,2.5703,2.5703,2.5703,2.5703,2.5684,2.5664,2.5676,2.5691,2.5652,2.5655,2.5664,2.5664,2.5637,2.5629,2.563,2.563,2.5618,2.5608,2.5543,2.5505,0.4753,0.5328,0.593,0.5284,0.5533,0.5898,0.5621,0.5585,0.5734,0.6075,0.6192,0.0,0.0,0.0,0.0,0.0,0.0,0.6129,0.622,0.5902,0.5403,0.4707,0.6571,0.7825,0.7544,0.8341,0.9011,0.9311,0.932,0.9019,0.8399,0.9202,0.9698,0.9698,0.9747,0.9747,0.9698,0.9961,1.038,1.0999,1.2206,1.3109,1.3728,1.3793,1.3946,1.4157,1.3927,1.3946,1.4214,1.4852,1.514,1.5159,1.5408,1.5555,1.5695,1.6285,1.7215,1.8299,1.8874,1.9642,2.0369,2.0369,2.0369,2.0369,2.0369,2.0366,2.0381,2.04,2.04,2.04,2.04,2.04,2.04,2.04,2.0589,2.1011,2.1873,2.2749,2.3647,2.4463,2.5188,2.5657,2.5657,2.5682,2.5703,2.5703,2.5703,2.5703,2.5703,2.5703,2.5703,2.5703,2.5703,2.5703,2.5703,2.5703,2.5703,2.5703,2.5703,2.5703,2.5703,2.5703,2.5703,2.5703,2.5703,2.5698,2.5694,2.5694,2.5694,2.5694,2.5593,2.5554,0.5322,0.5532,0.6139,0.5548,0.5501,0.5692,0.5915,0.6467,0.6802,0.6385,0.6803,0.7125,0.6682,0.0,0.0,0.0,0.0,0.0,0.0,0.6494,0.616,0.6389,0.735,0.689,0.4046,0.6823,0.8841,0.8913,0.9164,0.8033,0.511,0.7965,0.9698,0.9698,0.9706,0.9706,0.9698,1.048,1.0875,1.092,1.265,1.3476,1.3514,1.3574,1.4076,1.4818,1.3982,1.4095,1.4875,1.4894,1.4942,1.509,1.5949,1.6352,1.6465,1.6484,1.7549,1.8972,1.8992,1.9561,2.0312,2.0312,2.0312,2.0312,2.0312,2.0292,2.0319,2.0377,2.0396,2.0396,2.0396,2.0396,2.0396,2.0396,2.1034,2.19,2.2763,2.3581,2.4414,2.5293,2.5498,2.5517,2.5517,2.5607,2.5703,2.5703,2.5703,2.5703,2.5703,2.5703,2.5703,2.5703,2.5703,2.5703,2.5703,2.5703,2.5703,2.5703,2.5703,2.5703,2.5703,2.5703,2.5703,2.5703,2.5703,2.5703,2.5703,2.5703,2.5703,2.5703,2.5703,2.5683,0.6591,0.7393,0.777,0.6719,0.6906,0.7118,0.6384,0.6722,0.7085,0.6704,0.7158,0.7504,0.7066,0.0,0.0,0.0,0.0,0.0,0.0,0.6643,0.6802,0.689,0.7465,0.7469,0.6468,0.7521,0.8452,0.8869,0.9146,0.7978,0.4964,0.791,0.9698,0.9698,0.9698,0.9955,1.0498,1.0803,1.1487,1.2509,1.3216,1.3811,1.4288,1.3809,1.4086,1.4847,1.3992,1.4086,1.4904,1.4904,1.5223,1.576,1.6044,1.6838,1.7861,1.8068,1.8504,1.9081,1.9658,2.0042,2.0312,2.0312,2.0312,2.0312,2.0312,2.0312,2.0312,2.0331,2.0331,2.0331,2.0331,2.0331,2.0331,2.0331,2.0977,2.1803,2.2677,2.3562,2.4446,2.5266,2.5468,2.5495,2.5495,2.5549,2.5581,2.5623,2.5664,2.5703,2.5703,2.5703,2.5687,2.5648,2.5628,2.5613,2.5577,2.5564,2.5564,2.5564,2.5564,2.5564,2.5564,2.5564,2.5564,2.5564,2.56,2.5625,2.5625,2.5684,2.5703,2.5703,2.5703,2.5703,0.8175,0.8729,0.8667,0.7705,0.7847,0.7976,0.7062,0.737,0.7746,0.7363,0.7619,0.7897,0.7996,0.0,0.0,0.0,0.0,0.0,0.0,0.6764,0.7031,0.7025,0.7505,0.7797,0.7709,0.7683,0.7976,0.8671,0.8395,0.7891,0.7159,0.9122,1.0359,1.0543,1.0543,1.0792,1.1315,1.1653,1.2318,1.3298,1.3717,1.4166,1.4606,1.4147,1.4223,1.4728,1.4167,1.4242,1.4784,1.5064,1.5515,1.6098,1.668,1.7576,1.8534,1.8745,1.9018,1.9362,1.9935,2.0116,2.0116,2.0116,2.0143,2.0197,2.0197,2.0241,2.0312,2.0312,2.0312,2.0312,2.0312,2.0312,2.0369,2.0658,2.137,2.2197,2.3062,2.3956,2.4736,2.5255,2.5409,2.5428,2.5428,2.5447,2.5484,2.5559,2.5593,2.5633,2.5633,2.5624,2.5619,2.5572,2.5562,2.5551,2.5499,2.5506,2.5506,2.5506,2.5506,2.5506,2.5506,2.5506,2.5506,2.5506,2.5541,2.5551,2.5574,2.5922,2.5922,2.5633,2.6253,2.6388]},{"header":{"parameterUnit":"m.s-1","parameterCategory":1,"la1":30.6,"la2":29.2853,"lo1":-89.7004,"lo2":-87.6739,"dy":0.0162,"dx":0.0183,"nx":112,"ny":82,"refTime":"2024-03-19T18:00:00:Z","depth":0,"parameterNumber":3,"parameterNumberName":"V-component_of_WINDS"},"data":[0.0,0.0,0.0,0.0,0.0,0.0,0.0,0.0,0.0,0.0,0.0,0.0,0.0,0.0,0.0,0.0,0.0,0.0,0.0,0.0,0.0,0.0,0.0,0.0,0.0,0.0,0.0,0.0,0.0,0.0,0.0,0.0,0.0,0.0,0.0,0.0,0.0,0.0,0.0,0.0,0.0,0.0,0.0,0.0,0.0,0.0,0.0,0.0,0.0,0.0,0.0,0.0,0.0,0.0,0.0,0.0,0.0,0.0,0.0,0.0,0.0,0.0,0.0,0.0,0.0,0.0,0.0,0.0,0.0,0.0,0.0,0.0,0.0,0.0,0.0,0.0,0.0,0.0,0.0,0.0,0.0,0.0,0.0,0.0,0.0,0.0,0.0,0.0,0.0,0.0,-2.0036,-2.331,-2.7516,-2.9127,-2.6725,-2.5296,-2.2278,-1.6971,0.0,0.0,0.0,0.0,0.0,0.0,0.0,0.0,0.0,0.0,0.0,0.0,0.0,0.0,0.0,0.0,0.0,0.0,0.0,0.0,0.0,0.0,0.0,0.0,0.0,0.0,0.0,0.0,0.0,0.0,0.0,0.0,0.0,0.0,0.0,0.0,0.0,0.0,0.0,0.0,0.0,0.0,0.0,0.0,0.0,0.0,0.0,0.0,0.0,0.0,0.0,0.0,0.0,0.0,0.0,0.0,0.0,0.0,0.0,0.0,0.0,0.0,0.0,0.0,0.0,0.0,0.0,0.0,0.0,0.0,0.0,0.0,0.0,0.0,0.0,0.0,0.0,0.0,0.0,0.0,0.0,0.0,0.0,0.0,0.0,0.0,0.0,0.0,0.0,0.0,0.0,0.0,0.0,0.0,0.0,0.0,0.0,0.0,0.0,0.0,0.0,0.0,0.0,0.0,-2.0327,-2.5579,-2.8499,-2.8924,-2.6015,-2.4193,-2.1411,-1.7196,0.0,0.0,0.0,0.0,0.0,0.0,0.0,0.0,0.0,0.0,0.0,0.0,0.0,0.0,0.0,0.0,0.0,0.0,0.0,0.0,0.0,0.0,0.0,0.0,0.0,0.0,0.0,0.0,0.0,0.0,0.0,0.0,0.0,0.0,0.0,0.0,0.0,0.0,0.0,0.0,0.0,0.0,0.0,0.0,0.0,0.0,0.0,0.0,0.0,0.0,0.0,0.0,0.0,0.0,0.0,0.0,0.0,0.0,0.0,0.0,0.0,0.0,0.0,0.0,0.0,0.0,0.0,0.0,0.0,0.0,0.0,0.0,0.0,0.0,0.0,0.0,0.0,0.0,0.0,0.0,0.0,0.0,0.0,0.0,0.0,0.0,0.0,0.0,0.0,0.0,0.0,0.0,0.0,0.0,0.0,0.0,0.0,0.0,0.0,0.0,0.0,0.0,0.0,-1.9612,-2.2049,-2.6793,-2.8619,-2.8433,-2.5828,-2.3926,-2.1226,-1.7246,-1.5281,0.0,0.0,0.0,0.0,0.0,0.0,0.0,0.0,0.0,0.0,0.0,0.0,0.0,0.0,0.0,0.0,0.0,0.0,0.0,0.0,0.0,0.0,0.0,0.0,0.0,0.0,0.0,0.0,0.0,0.0,0.0,0.0,0.0,0.0,0.0,0.0,0.0,0.0,0.0,0.0,0.0,0.0,0.0,0.0,0.0,0.0,0.0,0.0,0.0,0.0,0.0,0.0,0.0,0.0,0.0,0.0,0.0,0.0,0.0,0.0,0.0,0.0,0.0,0.0,0.0,0.0,0.0,0.0,0.0,0.0,0.0,0.0,0.0,0.0,0.0,0.0,0.0,0.0,0.0,0.0,0.0,0.0,0.0,0.0,0.0,0.0,0.0,0.0,0.0,0.0,0.0,0.0,0.0,0.0,0.0,0.0,0.0,0.0,0.0,0.0,0.0,0.0,-2.194,-2.3694,-2.7181,-2.7926,-2.7418,-2.5507,-2.322,-2.0482,-1.7198,-1.4449,0.0,0.0,0.0,0.0,0.0,0.0,0.0,0.0,0.0,0.0,0.0,0.0,0.0,0.0,0.0,0.0,0.0,0.0,0.0,0.0,0.0,0.0,0.0,0.0,0.0,0.0,0.0,0.0,0.0,0.0,0.0,0.0,0.0,0.0,0.0,0.0,0.0,0.0,0.0,0.0,0.0,0.0,0.0,0.0,0.0,0.0,0.0,0.0,0.0,0.0,0.0,0.0,0.0,0.0,0.0,0.0,0.0,0.0,0.0,0.0,0.0,0.0,0.0,0.0,0.0,0.0,0.0,0.0,0.0,0.0,0.0,0.0,0.0,0.0,0.0,0.0,0.0,0.0,0.0,0.0,0.0,0.0,0.0,0.0,0.0,0.0,0.0,0.0,0.0,0.0,0.0,0.0,0.0,0.0,0.0,0.0,0.0,0.0,0.0,0.0,0.0,0.0,-2.2068,-2.453,-2.6556,-2.6218,-2.5507,-2.4659,-2.1143,-1.8427,-1.7068,-1.3567,0.0,0.0,0.0,0.0,0.0,0.0,0.0,0.0,0.0,0.0,0.0,0.0,0.0,0.0,0.0,0.0,0.0,0.0,0.0,0.0,0.0,0.0,0.0,0.0,0.0,0.0,0.0,0.0,0.0,0.0,0.0,0.0,0.0,0.0,0.0,0.0,0.0,0.0,0.0,0.0,0.0,0.0,0.0,0.0,0.0,0.0,0.0,0.0,0.0,0.0,0.0,0.0,0.0,0.0,0.0,0.0,0.0,0.0,0.0,0.0,0.0,0.0,0.0,0.0,0.0,0.0,0.0,0.0,0.0,0.0,0.0,0.0,0.0,0.0,0.0,0.0,0.0,0.0,0.0,0.0,0.0,0.0,0.0,0.0,0.0,0.0,0.0,0.0,0.0,0.0,0.0,0.0,0.0,0.0,0.0,0.0,0.0,0.0,0.0,0.0,0.0,0.0,-2.0783,-2.2932,-2.5101,-2.5067,-2.4425,-2.3224,-2.0227,-1.7798,-1.6394,0.0,0.0,0.0,0.0,0.0,0.0,0.0,0.0,0.0,0.0,0.0,0.0,0.0,0.0,0.0,0.0,0.0,0.0,0.0,0.0,0.0,0.0,0.0,0.0,0.0,0.0,0.0,0.0,0.0,0.0,0.0,0.0,0.0,0.0,0.0,0.0,0.0,0.0,0.0,0.0,0.0,0.0,0.0,0.0,0.0,0.0,0.0,0.0,0.0,0.0,0.0,0.0,0.0,0.0,0.0,0.0,0.0,0.0,0.0,0.0,0.0,0.0,0.0,0.0,0.0,0.0,0.0,0.0,0.0,0.0,0.0,0.0,0.0,0.0,0.0,0.0,0.0,0.0,0.0,0.0,0.0,0.0,0.0,0.0,0.0,0.0,0.0,0.0,0.0,0.0,0.0,0.0,0.0,0.0,0.0,0.0,0.0,0.0,0.0,0.0,0.0,0.0,-1.8319,-2.0233,-2.2203,-2.4272,-2.4069,-2.3393,-2.2395,-1.9209,-1.6897,-1.6059,0.0,0.0,0.0,0.0,0.0,0.0,0.0,0.0,0.0,0.0,0.0,0.0,0.0,0.0,0.0,0.0,0.0,0.0,0.0,0.0,0.0,0.0,0.0,0.0,0.0,0.0,0.0,0.0,0.0,0.0,0.0,0.0,0.0,0.0,0.0,0.0,0.0,0.0,0.0,0.0,0.0,0.0,0.0,0.0,0.0,0.0,0.0,0.0,0.0,0.0,0.0,0.0,0.0,0.0,0.0,0.0,0.0,0.0,0.0,0.0,0.0,0.0,0.0,0.0,0.0,0.0,0.0,0.0,0.0,0.0,0.0,0.0,0.0,0.0,0.0,0.0,0.0,0.0,0.0,0.0,0.0,0.0,0.0,0.0,0.0,0.0,0.0,0.0,0.0,0.0,0.0,0.0,0.0,0.0,0.0,0.0,0.0,0.0,0.0,0.0,0.0,0.0,-1.8477,-2.0757,-2.2868,-2.4337,-2.3156,-2.2293,-2.2276,-1.797,-1.5541,0.0,0.0,0.0,0.0,0.0,0.0,0.0,0.0,0.0,0.0,0.0,0.0,0.0,0.0,0.0,0.0,0.0,0.0,0.0,0.0,0.0,0.0,0.0,0.0,0.0,0.0,0.0,0.0,0.0,0.0,0.0,0.0,0.0,0.0,0.0,0.0,0.0,0.0,0.0,0.0,0.0,0.0,0.0,0.0,0.0,0.0,0.0,0.0,0.0,0.0,0.0,0.0,0.0,0.0,0.0,0.0,0.0,0.0,0.0,0.0,0.0,0.0,0.0,0.0,0.0,0.0,0.0,0.0,0.0,0.0,0.0,0.0,0.0,0.0,0.0,0.0,0.0,0.0,0.0,0.0,0.0,0.0,0.0,0.0,0.0,0.0,0.0,0.0,0.0,0.0,0.0,0.0,0.0,0.0,0.0,0.0,0.0,0.0,0.0,0.0,0.0,0.0,0.0,-1.7786,-2.0447,-2.2479,-2.2902,-2.209,-2.1075,-1.9993,-1.6596,-1.4582,-1.4714,0.0,0.0,0.0,0.0,0.0,0.0,0.0,0.0,0.0,0.0,0.0,0.0,0.0,0.0,0.0,0.0,0.0,0.0,0.0,0.0,0.0,0.0,0.0,0.0,0.0,0.0,0.0,0.0,0.0,0.0,0.0,0.0,0.0,0.0,0.0,0.0,0.0,0.0,0.0,0.0,0.0,0.0,0.0,0.0,0.0,0.0,0.0,0.0,0.0,0.0,0.0,0.0,0.0,0.0,0.0,0.0,0.0,0.0,0.0,0.0,0.0,0.0,0.0,0.0,0.0,0.0,0.0,0.0,0.0,0.0,0.0,0.0,0.0,0.0,0.0,0.0,0.0,0.0,0.0,0.0,0.0,0.0,0.0,0.0,0.0,0.0,0.0,0.0,0.0,0.0,0.0,0.0,0.0,0.0,0.0,0.0,0.0,0.0,0.0,0.0,0.0,0.0,-1.7452,-2.006,-2.1854,-2.1854,-2.1448,-2.0475,-1.8623,-1.592,-1.4161,-1.3768,0.0,0.0,0.0,0.0,0.0,0.0,0.0,0.0,0.0,0.0,0.0,0.0,0.0,0.0,0.0,0.0,0.0,0.0,0.0,0.0,0.0,0.0,0.0,0.0,0.0,0.0,0.0,0.0,0.0,0.0,0.0,0.0,0.0,0.0,0.0,0.0,0.0,0.0,0.0,0.0,0.0,0.0,0.0,0.0,0.0,0.0,0.0,0.0,0.0,0.0,0.0,0.0,0.0,0.0,0.0,0.0,0.0,0.0,0.0,0.0,0.0,0.0,0.0,0.0,0.0,0.0,0.0,0.0,0.0,0.0,0.0,0.0,0.0,0.0,0.0,0.0,0.0,0.0,0.0,0.0,0.0,0.0,0.0,0.0,0.0,0.0,0.0,0.0,0.0,0.0,0.0,0.0,0.0,0.0,0.0,0.0,0.0,0.0,0.0,0.0,0.0,0.0,-1.7426,-1.9656,-2.1204,-2.1204,-2.1085,-2.0078,-1.7896,-1.5612,-1.397,-1.3176,0.0,0.0,0.0,0.0,0.0,0.0,0.0,0.0,0.0,0.0,0.0,0.0,0.0,0.0,0.0,0.0,0.0,0.0,0.0,0.0,0.0,0.0,0.0,0.0,0.0,0.0,0.0,0.0,0.0,0.0,0.0,0.0,0.0,0.0,0.0,0.0,0.0,0.0,0.0,0.0,0.0,0.0,0.0,0.0,0.0,0.0,0.0,0.0,0.0,0.0,0.0,0.0,0.0,0.0,0.0,0.0,0.0,0.0,0.0,0.0,-1.3774,-1.2634,0.0,0.0,0.0,0.0,0.0,0.0,0.0,0.0,0.0,0.0,0.0,0.0,0.0,0.0,0.0,0.0,0.0,0.0,0.0,0.0,0.0,0.0,0.0,0.0,0.0,0.0,0.0,0.0,0.0,0.0,0.0,0.0,0.0,0.0,0.0,0.0,0.0,0.0,0.0,0.0,-1.7551,-1.974,-2.1204,-2.1204,-2.0094,-1.8707,-1.7067,-1.436,-1.2687,-1.2502,-1.0982,0.0,0.0,0.0,0.0,0.0,0.0,0.0,0.0,0.0,0.0,0.0,0.0,0.0,0.0,0.0,0.0,0.0,0.0,0.0,0.0,0.0,0.0,0.0,0.0,0.0,0.0,0.0,0.0,0.0,0.0,0.0,0.0,0.0,0.0,0.0,0.0,0.0,0.0,0.0,0.0,0.0,0.0,0.0,0.0,0.0,0.0,0.0,0.0,0.0,0.0,0.0,0.0,0.0,0.0,0.0,0.0,0.0,0.0,0.0,-1.4767,-1.3775,0.0,0.0,0.0,0.0,0.0,0.0,0.0,0.0,0.0,0.0,0.0,0.0,0.0,0.0,0.0,0.0,0.0,0.0,0.0,0.0,0.0,0.0,0.0,0.0,0.0,0.0,0.0,0.0,0.0,0.0,0.0,0.0,0.0,0.0,0.0,0.0,0.0,0.0,0.0,0.0,-1.7563,-1.9099,-2.023,-2.0585,-1.9266,-1.7777,-1.6309,-1.3785,-1.2145,-1.1756,-1.0616,0.0,0.0,0.0,0.0,0.0,0.0,0.0,0.0,0.0,0.0,0.0,0.0,0.0,0.0,0.0,0.0,0.0,0.0,0.0,0.0,0.0,0.0,0.0,0.0,0.0,0.0,0.0,0.0,0.0,0.0,0.0,0.0,0.0,0.0,0.0,0.0,0.0,0.0,0.0,0.0,0.0,0.0,0.0,0.0,0.0,0.0,0.0,0.0,0.0,0.0,0.0,0.0,0.0,-1.6027,-1.6145,-1.5882,-1.6411,-1.6867,-1.7149,-1.6099,-1.5396,-1.4872,-1.3454,0.0,0.0,0.0,0.0,0.0,0.0,0.0,0.0,0.0,0.0,0.0,0.0,0.0,0.0,0.0,0.0,0.0,0.0,0.0,0.0,0.0,0.0,-1.7601,-1.8051,-1.8717,-1.8563,-1.5991,0.0,0.0,0.0,0.0,0.0,0.0,0.0,0.0,0.0,0.0,0.0,-1.7367,-1.8441,-1.9232,-1.9579,-1.8397,-1.6965,-1.5341,-1.3295,-1.1756,-1.0961,-1.0216,-0.9638,0.0,0.0,0.0,0.0,0.0,0.0,0.0,0.0,0.0,0.0,0.0,0.0,0.0,0.0,0.0,0.0,0.0,0.0,0.0,0.0,0.0,0.0,0.0,0.0,0.0,0.0,0.0,0.0,0.0,0.0,0.0,0.0,-1.2021,-1.1977,0.0,0.0,0.0,0.0,0.0,0.0,0.0,0.0,0.0,0.0,0.0,0.0,0.0,-1.5795,-1.6613,-1.7172,-1.7468,-1.7404,-1.8673,-1.9223,-1.9196,-1.9778,-1.9764,-1.9296,-1.9131,0.0,-1.5635,-1.5298,0.0,0.0,0.0,0.0,0.0,0.0,0.0,0.0,0.0,0.0,0.0,0.0,0.0,0.0,0.0,0.0,0.0,0.0,0.0,0.0,0.0,0.0,-2.0306,-1.907,-1.9341,-1.9587,-1.8562,-1.7483,-1.6605,-1.6316,-1.5224,-1.4283,0.0,0.0,0.0,0.0,0.0,0.0,-1.6813,-1.8582,-1.9393,-1.8211,-1.7337,-1.5987,-1.387,-1.2211,-1.0944,-1.0187,-0.9455,-0.9298,-0.9869,-1.0072,0.0,0.0,0.0,0.0,0.0,0.0,0.0,0.0,0.0,0.0,0.0,0.0,0.0,0.0,0.0,0.0,0.0,0.0,0.0,0.0,0.0,0.0,0.0,0.0,0.0,0.0,0.0,0.0,0.0,-1.1471,-1.2242,-1.1549,-1.2115,-1.2053,0.0,0.0,0.0,0.0,0.0,0.0,0.0,0.0,0.0,-1.8252,-1.8055,-1.8377,-1.9391,-1.9384,-1.9219,-1.8924,-1.9533,-1.9659,-1.9396,-2.0332,-2.0387,-1.9735,-2.0085,-1.9181,-1.7356,-1.6562,-1.5309,-1.3914,0.0,0.0,0.0,0.0,-1.366,-1.4328,-1.5525,-1.5668,-1.5483,-1.6087,0.0,0.0,0.0,0.0,0.0,0.0,0.0,-1.7752,-1.8373,-1.9536,-2.0568,-2.0771,-2.1075,-2.1211,-2.0889,-1.9984,-1.885,-1.7562,-1.6715,-1.5967,-1.524,-1.4798,0.0,0.0,0.0,-1.7473,-1.7862,-1.8775,-1.8978,-1.7912,-1.6762,-1.5511,-1.4141,-1.2635,-1.1637,-1.1316,-1.0572,-1.0306,-1.0706,-1.1278,-1.1528,0.0,0.0,0.0,0.0,0.0,0.0,0.0,0.0,0.0,0.0,0.0,0.0,0.0,0.0,0.0,0.0,0.0,0.0,0.0,0.0,0.0,0.0,0.0,0.0,0.0,0.0,0.0,0.0,-1.2385,-1.2855,-1.1751,-1.294,-1.309,0.0,0.0,0.0,0.0,0.0,0.0,-1.7285,-1.7427,-1.8251,-2.0085,-1.9964,-2.0364,-2.1439,-2.0764,-2.0276,-2.0057,-1.9853,-1.9603,-1.9261,-2.0454,-2.0526,-1.9768,-2.0429,-1.9973,-1.8672,-1.7644,-1.6443,-1.5291,-1.5291,-1.4887,-1.4333,-1.4498,-1.4911,-1.5621,-1.6993,-1.7241,-1.703,-1.7552,-1.7107,-1.6187,-1.5452,0.0,0.0,0.0,0.0,-1.8596,-1.9951,-2.0441,-2.088,-2.204,-2.231,-2.231,-2.231,-2.1718,-2.0712,-1.8995,-1.8352,-1.7749,-1.6772,-1.6353,0.0,-1.6294,-1.7487,-1.8437,-1.8606,-1.8944,-1.8691,-1.7388,-1.6255,-1.5155,-1.4021,-1.294,-1.2212,-1.2009,-1.1434,-1.1151,-1.1243,-1.2178,-1.2376,-1.1734,0.0,0.0,0.0,0.0,0.0,0.0,0.0,0.0,0.0,0.0,0.0,0.0,0.0,0.0,0.0,0.0,0.0,0.0,0.0,0.0,0.0,0.0,0.0,0.0,0.0,0.0,0.0,0.0,0.0,-1.3675,-1.564,0.0,0.0,0.0,0.0,-1.5623,-1.6157,-1.7391,-1.9435,-1.9469,-2.0126,-2.1528,-2.0901,-2.088,-2.1562,-2.0438,-2.0089,-2.063,-2.0076,-1.9799,-1.9813,-2.1081,-2.0948,-1.9819,-2.0585,-2.0116,-1.8851,-1.868,-1.7802,-1.6607,-1.6607,-1.6219,-1.5784,-1.6338,-1.6577,-1.6712,-1.743,-1.7266,-1.6878,-1.779,-1.77,-1.7399,-1.8298,-1.7752,0.0,0.0,-1.926,-2.0009,-2.0906,-2.1651,-2.2181,-2.2293,-2.231,-2.231,-2.231,-2.1718,-2.117,-2.1068,-1.9841,-1.8809,-1.8765,0.0,-1.7693,-1.7693,-1.8937,-1.9393,-1.8031,-1.9072,-1.8853,-1.6018,-1.5646,-1.4733,-1.2584,-1.2348,-1.1975,-1.1214,-1.1113,-1.1096,-1.111,-1.1887,-1.225,-1.2082,-1.1992,0.0,0.0,0.0,0.0,0.0,0.0,0.0,0.0,0.0,0.0,0.0,0.0,0.0,0.0,0.0,0.0,0.0,0.0,0.0,0.0,0.0,0.0,0.0,0.0,0.0,0.0,0.0,0.0,-1.4725,-1.697,0.0,-1.5181,-1.5978,-1.675,-1.6951,-1.7949,-1.9093,-2.033,-2.1052,-2.1643,-2.2119,-2.226,-2.2421,-2.2566,-2.1441,-2.0991,-2.1179,-2.025,-1.9798,-1.985,-2.0733,-2.046,-1.9324,-1.9982,-1.9559,-1.8396,-1.8711,-1.8273,-1.75,-1.7852,-1.761,-1.7012,-1.6786,-1.7249,-1.7891,-1.7279,-1.7189,-1.7341,-1.7224,-1.706,-1.7091,-1.8113,-1.8659,-1.9022,-1.9739,-2.0659,-2.1511,-2.1837,-2.2107,-2.231,-2.231,-2.231,-2.231,-2.231,-2.209,-2.1904,-2.1904,-2.067,-1.9646,-1.9726,-1.945,-1.9256,-1.9311,-1.9721,-1.9816,-1.9275,-1.9266,-1.8352,-1.5866,-1.5595,-1.4902,-1.3159,-1.3024,-1.2888,-1.26,-1.2583,-1.2583,-1.2583,-1.2978,-1.3186,-1.3124,-1.3423,-1.1643,0.0,0.0,0.0,0.0,0.0,0.0,0.0,0.0,0.0,0.0,0.0,0.0,0.0,0.0,0.0,0.0,0.0,0.0,0.0,0.0,0.0,0.0,0.0,0.0,0.0,-1.5299,-1.6744,-1.5916,-1.8333,-1.9215,-1.7038,-1.8061,-1.8892,-1.8955,-1.9935,-2.0871,-2.1629,-2.2319,-2.2549,-2.2128,-2.2669,-2.2744,-2.2297,-2.1581,-2.1204,-2.1204,-2.025,-1.9798,-1.9798,-2.0497,-2.024,-1.9257,-1.9517,-1.9073,-1.8162,-1.8311,-1.8103,-1.7777,-1.8685,-1.854,-1.7806,-1.7533,-1.7851,-1.8298,-1.7349,-1.7473,-1.7951,-1.7518,-1.7518,-1.787,-1.8683,-1.9468,-2.0193,-2.0562,-2.1354,-2.2061,-2.2061,-2.218,-2.231,-2.231,-2.231,-2.231,-2.231,-2.231,-2.231,-2.231,-2.1454,-2.0788,-2.0875,-2.084,-2.0729,-2.0618,-2.0501,-2.023,-1.9796,-1.9239,-1.8048,-1.5832,-1.5595,-1.4986,-1.3532,-1.3396,-1.3396,-1.3396,-1.3446,-1.3446,-1.3396,-1.3603,-1.3246,-1.2244,-1.219,-1.1554,-1.0321,0.0,0.0,0.0,0.0,0.0,0.0,0.0,0.0,0.0,0.0,0.0,0.0,0.0,0.0,0.0,0.0,0.0,0.0,0.0,0.0,0.0,0.0,0.0,-1.5211,-1.673,-1.7756,-1.7379,-1.9813,-2.0797,-1.8805,-2.0395,-2.155,-2.1589,-2.2103,-2.2651,-2.3313,-2.3297,-2.2784,-2.1655,-2.2082,-2.1832,-2.0806,-2.0756,-2.0743,-2.0743,-2.0087,-1.9798,-1.9798,-2.0446,-2.0396,-1.9774,-1.9261,-1.8734,-1.8138,-1.7544,-1.7312,-1.7463,-1.9043,-1.9043,-1.8171,-1.8684,-1.8417,-1.7819,-1.7696,-1.8089,-1.8627,-1.8657,-1.9106,-1.9737,-2.0143,-2.028,-2.0382,-2.0862,-2.1275,-2.1582,-2.1582,-2.1928,-2.2282,-2.2282,-2.2282,-2.231,-2.231,-2.231,-2.231,-2.231,-2.231,-2.231,-2.231,-2.231,-2.2112,-2.1516,-2.1292,0.0,-1.9378,-1.9005,-1.8031,-1.5866,-1.5649,-1.5056,-1.3599,-1.3464,-1.3447,-1.3447,-1.3542,-1.3556,-1.343,-1.3665,-1.2428,-0.9536,-0.836,-1.0067,-1.471,0.0,0.0,0.0,0.0,0.0,0.0,0.0,0.0,0.0,0.0,0.0,0.0,0.0,0.0,0.0,0.0,0.0,0.0,0.0,0.0,0.0,-1.5376,-1.6225,-1.6115,-1.8325,-1.999,-2.0295,-2.1687,-2.2284,-2.1335,-2.1749,-2.1962,-2.1555,-2.1997,-2.2223,-2.2021,-2.2764,-2.2852,-2.214,-2.2594,-2.2761,-2.246,-2.1656,-2.1267,-2.1255,-2.0263,-1.9798,-1.9798,-2.0003,-1.9737,-1.9196,-1.8672,-1.8139,-1.7597,-1.7388,-1.7312,-1.7435,-1.865,-1.893,-1.8627,-1.8203,-1.7326,-1.6424,-1.6845,-1.6817,-1.6758,-1.7685,-1.8119,-1.8433,-1.9552,-2.007,-2.0314,-2.0449,-2.0813,-2.115,-2.115,-2.1477,-2.1794,-2.1794,-2.2032,-2.231,-2.231,-2.231,-2.231,-2.231,-2.231,-2.231,-2.231,-2.231,-2.2226,-2.2078,-2.1068,-2.0196,-1.984,-1.8799,-1.772,-1.6727,-1.6607,-1.6293,-1.5505,-1.4912,-1.4579,-1.4623,-1.4111,-1.3798,-1.3754,-1.3739,-1.3604,-1.3364,-1.22,-1.2695,0.0,0.0,0.0,0.0,0.0,0.0,0.0,0.0,0.0,0.0,0.0,0.0,0.0,0.0,0.0,0.0,0.0,0.0,0.0,0.0,0.0,0.0,-1.735,-1.8342,-1.8568,-1.9987,-2.1217,-2.1769,-2.2598,-2.2952,-2.2686,-2.2661,-2.2523,-2.2196,-2.2472,-2.2523,-2.2196,-2.2786,-2.2874,-2.2334,-2.2623,-2.2686,-2.2447,-2.1581,-2.1142,-2.1129,-2.0238,-1.9798,-1.9798,-1.9798,-1.9522,-1.8945,-1.8442,-1.789,-1.7383,-1.7081,-1.7118,-1.7435,0.0,0.0,0.0,0.0,-1.7063,-1.6669,-1.6709,-1.6862,-1.7131,-1.7894,-1.8328,-1.8687,-1.945,-1.9874,-2.007,-2.007,-2.0499,-2.0991,-2.0991,-2.1446,-2.1899,-2.1899,-2.2106,-2.231,-2.231,-2.231,-2.231,-2.231,-2.231,0.0,-2.231,-2.231,-2.222,-2.1963,-2.0814,-1.9908,-1.9678,-1.8562,-1.7567,-1.6942,-1.6877,-1.6672,-1.6151,-1.5678,0.0,0.0,0.0,-1.4906,-1.4625,-1.4161,0.0,0.0,0.0,-1.4928,-1.609,-1.5979,0.0,0.0,-1.7022,-1.6649,0.0,0.0,0.0,0.0,0.0,0.0,0.0,0.0,0.0,0.0,0.0,0.0,0.0,0.0,0.0,0.0,-1.9584,-2.102,-2.1594,-2.1681,-2.1857,-2.2347,-2.2836,-2.3078,-2.3078,-2.3078,-2.3078,-2.3078,-2.3078,-2.3078,-2.3078,-2.3078,0.0,0.0,0.0,-2.2071,-2.1581,-2.102,-2.0718,-2.0706,-2.0075,-1.9798,-1.9798,-1.9748,-1.9459,-1.8945,-1.838,-1.784,-1.7383,-1.6791,-1.6951,-1.7585,-1.8535,-1.8569,-1.7988,-1.7348,-1.7424,-1.7768,-1.706,0.0,0.0,-1.8687,-1.9091,-1.9585,-1.966,-1.969,-1.9726,-1.9747,-2.0311,-2.0926,-2.1007,-2.1615,-2.2209,-2.2209,-2.2254,-2.231,-2.231,-2.231,-2.231,-2.231,-2.231,-2.231,-2.231,-2.231,-2.2129,-2.1575,-2.0722,-1.9941,-1.9354,-1.8495,-1.7642,-1.6923,-1.688,0.0,-1.6342,-1.6256,-1.6325,-1.6574,-1.6622,-1.6363,-1.5772,-1.4948,-1.4624,-1.4873,-1.578,-1.6733,-1.7731,-1.8582,-1.9453,-2.0246,-1.7922,-1.725,0.0,0.0,0.0,0.0,0.0,0.0,0.0,0.0,0.0,0.0,0.0,0.0,0.0,0.0,0.0,-1.8678,-2.0332,-2.1681,-2.2673,-2.2811,-2.2862,-2.2902,-2.3015,-2.3078,-2.3078,-2.3078,-2.3078,-2.3078,-2.3078,-2.3078,-2.3078,-2.3078,-2.3027,-2.2975,-2.2548,-2.2259,-2.2159,-2.1167,-2.0718,-2.0706,-2.0075,0.0,-1.9786,-1.9371,-1.912,-1.897,-1.7978,-1.7488,-1.7383,-1.7196,-1.7706,-1.8612,-1.8817,-1.8501,-1.7992,-1.8238,-1.807,-1.7733,-1.7545,-1.7667,-1.7966,-1.8523,-1.8792,-1.8986,-1.9525,-1.969,0.0,-2.0089,-2.033,-2.0516,-2.0894,-2.1385,-2.1735,-2.1735,-2.2032,-2.231,-2.231,-2.231,-2.231,-2.231,-2.231,-2.231,-2.231,-2.231,-2.226,-2.2135,-2.1475,-2.0712,-1.9933,-1.9171,-1.8472,-1.7894,-1.7983,-1.8114,-1.8235,-1.7869,-1.7651,-1.7756,-1.7201,-1.6776,-1.6643,-1.6465,-1.6452,-1.6606,-1.6908,-1.7568,-1.8572,-1.8862,-1.9453,-2.0292,-1.9777,-1.965,0.0,0.0,0.0,0.0,0.0,0.0,0.0,0.0,0.0,0.0,0.0,-1.4283,-1.6051,0.0,-1.8219,-2.0458,-2.1411,-2.2184,-2.2965,-2.3078,-2.3078,-2.3078,-2.3078,-2.3078,-2.3078,-2.3078,-2.3078,-2.3078,-2.3078,-2.3078,-2.3078,-2.3078,-2.2952,-2.2736,-2.2184,-2.1895,-2.1895,-2.079,-2.0376,-2.0706,-1.9811,-1.9409,-1.9397,-1.8857,-1.8468,-1.8179,-1.7614,-1.7212,-1.7011,-1.7472,-1.7867,-1.8185,-1.9006,-1.909,-1.8802,-1.8718,-1.8702,-1.8657,-1.8328,-1.8433,-1.8762,-1.9091,-1.9196,-1.9256,-1.9585,-1.9839,-2.0035,-2.0246,-2.0601,-2.0991,-2.1244,-2.1628,-2.1957,-2.1957,-2.2135,-2.231,-2.231,-2.231,-2.231,-2.231,-2.231,-2.231,-2.231,-2.231,-2.231,-2.231,-2.1667,-2.0906,-2.0086,-1.9367,-1.867,-1.8029,-1.8166,-1.8255,-1.811,-1.8073,-1.8053,-1.8115,-1.7715,-1.7495,-1.7495,-1.711,-1.697,-1.7101,-1.7659,-1.8221,-1.8792,-1.938,-1.9869,-2.0312,-2.0312,-2.0312,0.0,0.0,0.0,0.0,0.0,0.0,0.0,-1.282,-1.3128,-1.4725,-1.507,-1.5794,-1.8274,-1.8834,-1.9674,-2.1907,-2.2397,-2.2623,-2.3015,-2.2917,-2.2722,-2.2722,-2.2942,-2.3078,-2.3078,-2.3078,-2.3078,-2.3078,-2.3078,-2.3027,-2.2975,-2.2915,-2.2723,-2.2171,-2.1619,-2.133,-2.133,-2.0213,-1.9936,-2.0489,-1.9384,-1.892,-1.8958,-1.8342,-1.7802,-1.7375,-1.7262,-1.6992,-1.671,-1.7463,-1.7666,-1.7585,-1.8893,-1.9442,-1.9492,-1.9056,-1.9226,-1.9615,-1.9076,-1.9241,-1.969,-1.969,-1.969,-1.969,-1.969,-1.9945,-2.0227,-2.0382,-2.0943,-2.1521,-2.1688,-2.2032,-2.231,-2.231,-2.231,-2.231,-2.231,-2.231,-2.231,-2.231,-2.231,-2.231,-2.231,-2.231,-2.231,-2.231,-2.1667,-2.0906,-2.0086,-1.9367,-1.8646,-1.7946,-1.8103,-1.8128,-1.779,-1.812,-1.8335,-1.8335,-1.8335,-1.8335,-1.8335,-1.7697,-1.7417,-1.7529,-1.838,-1.8892,-1.9002,-1.9863,-2.0389,-2.0542,-2.0542,-2.0542,-0.8956,-0.9559,-1.0594,-1.2324,-1.2632,-1.3262,0.0,-1.615,-1.5977,-1.7478,-1.7739,-1.8176,-1.9434,-2.0089,-2.0869,-2.2096,-2.2723,-2.3002,-2.3065,-2.2151,-2.1416,-2.1416,-2.2394,-2.3078,-2.3078,-2.3078,-2.3078,-2.3078,-2.3078,-2.2865,-2.2422,-2.2397,-2.2146,-2.1594,-2.1041,-2.0806,-2.0806,-1.966,-1.9384,-1.9886,-1.8807,-1.8555,-1.8945,-1.7953,-1.7438,-1.735,-1.6835,-1.6816,-1.7188,-1.6837,-1.7188,-1.8027,-1.8224,-1.8574,-1.9043,-1.9441,-1.963,-1.9675,-1.96,-1.963,-1.969,-1.969,-1.969,-1.969,-1.969,-1.9711,-1.9909,-2.0698,-2.0991,-2.126,-2.202,-2.2254,-2.231,-2.231,-2.231,-2.231,-2.231,-2.231,-2.231,-2.231,-2.231,-2.231,-2.231,-2.231,-2.231,-2.231,-2.1667,-2.0906,-2.0086,-1.9367,-1.8699,-1.8211,-1.8391,-1.8699,-1.9068,-1.9146,-1.9161,-1.9161,-1.9161,-1.9161,-1.9161,-1.9069,-1.9047,-1.9044,-1.9463,-1.9669,-1.9681,-2.0087,-2.0677,-2.137,-2.137,-2.137,-1.1022,-1.1593,-1.2237,-1.4261,-1.4687,-1.5056,-1.6685,-1.6752,-1.6803,-1.7962,-1.7894,-1.7958,-1.8955,-1.9078,-1.9567,-2.135,-2.1823,-2.197,-2.197,-2.1342,-2.058,-1.9773,-1.9968,-2.0514,-2.1445,-2.1506,-2.1817,-2.2564,-2.2359,-2.2221,-2.2309,-2.2008,-2.1581,-2.1029,-2.0464,-2.0024,-1.971,-1.8945,-1.8656,-1.8857,-1.8091,-1.784,-1.8041,-1.7237,-1.6886,-1.6861,-1.6622,-1.6637,-1.6879,-1.7271,-1.7706,-1.8185,-1.8779,-1.9169,-1.9406,-1.9603,-1.969,-1.969,-1.969,-1.969,-1.969,-1.969,-1.969,-1.969,-1.969,-1.9874,-2.0193,-2.0829,-2.115,-2.1507,-2.2135,-2.231,-2.231,-2.231,-2.231,-2.231,-2.231,-2.231,-2.231,-2.231,-2.231,-2.231,-2.231,-2.231,-2.231,-2.231,-2.204,-2.163,-2.1019,-2.0247,-1.9497,-1.8746,-1.8307,-1.821,-1.8562,-1.8592,-1.8592,-1.8592,-1.9032,-1.9305,-1.9305,-1.9305,-1.9368,-1.9471,-1.9688,-2.0081,-2.0663,-2.0889,-2.1427,-2.2254,-2.2254,-2.2524,-1.1731,-1.2388,-1.2962,-1.4882,-1.5578,-1.5942,-1.663,-1.679,-1.7024,-1.7702,-1.7506,-1.742,-1.8148,-1.7917,-1.8267,-2.017,-2.0452,-2.0511,-2.0665,-2.0006,-1.9148,-1.8182,-1.7368,-1.7444,-1.8846,-1.9589,-2.0504,-2.175,-2.1493,-2.1443,-2.1832,-2.1481,-2.0941,-2.0238,-1.9811,-1.9334,-1.8807,-1.8254,-1.8053,-1.8191,-1.7488,-1.7225,-1.7363,-1.6785,-1.6522,-1.6522,-1.6522,-1.6522,-1.6552,-1.7353,-1.7747,-1.7987,-1.8893,-1.9369,-1.9479,-1.9639,-1.969,-1.969,-1.969,-1.969,-1.969,-1.969,-1.969,-1.969,-1.969,-1.9965,-2.0416,-2.0862,-2.1275,-2.1718,-2.218,-2.231,-2.231,-2.231,-2.231,-2.231,-2.231,-2.231,-2.231,-2.231,-2.231,-2.2321,-2.2415,-2.2398,-2.2453,-2.2517,-2.2561,-2.2323,-2.169,-2.0871,-2.0008,-1.9093,-1.8491,-1.8224,-1.8412,-1.8427,-1.8427,-1.8427,-1.8977,-1.9305,-1.9305,-1.9305,-1.9365,-1.9513,-1.9701,-2.0282,-2.1257,-2.1416,-2.2062,-2.3167,-2.3167,-2.3629,-1.001,-1.0999,-1.2068,-1.3419,-1.4492,-1.5492,-1.6551,-1.6774,-1.6838,-1.6987,-1.6999,-1.7051,-1.7219,-1.7231,-1.7562,-1.8498,-1.8669,-1.8851,-1.9315,-1.7893,-1.6775,-1.6765,-1.5263,-1.4533,-1.5258,-1.753,-1.9454,-2.0677,-2.0756,-2.0756,-2.0769,-2.0756,-2.0188,-1.912,-1.9008,-1.8794,-1.8242,-1.7689,-1.7677,-1.8191,-1.7074,-1.6835,-1.7363,-1.6785,-1.6522,-1.6522,-1.6522,-1.6522,-1.6522,-1.6552,-1.6879,-1.7394,-1.7947,-1.8458,-1.9006,-1.953,-1.969,-1.969,-1.969,-1.969,-1.969,-1.969,-1.969,-1.969,-1.969,-1.9965,-2.0416,-2.0862,-2.1275,-2.1718,-2.218,-2.231,-2.231,-2.231,-2.231,-2.231,-2.231,-2.231,-2.231,-2.231,-2.231,-2.2388,-2.2634,-2.2695,-2.2797,-2.3117,-2.3165,-2.2805,-2.1722,-2.0791,-1.9903,-1.9074,-1.9164,-1.9253,-1.9253,-1.9253,-1.9253,-1.9253,-1.9305,-1.9305,-1.9305,-1.9305,-1.9305,-1.9305,-1.9632,-2.0217,-2.1121,-2.1378,-2.237,-2.4052,-2.4052,-2.4485,-1.1344,-1.2296,-1.3379,-1.5266,-1.6003,-1.6387,-1.6838,-1.6905,-1.6562,-1.535,-1.4718,-1.4236,-1.3662,-1.3647,-1.4359,-1.6157,-1.695,-1.7418,-1.7535,-1.7048,-1.6182,-1.4763,-1.4044,-1.384,-1.4213,-1.5611,-1.7006,-1.8272,-1.8425,-1.8592,-1.8946,-1.9008,-1.8869,-1.8493,-1.8129,-1.784,-1.7664,-1.7087,-1.6898,-1.7087,-1.6697,-1.6622,-1.681,-1.6609,-1.6522,-1.6522,-1.6879,-1.7034,-1.7076,-1.7787,-1.8224,-1.8419,-1.8968,-1.9281,-1.9442,-1.9639,-1.969,-1.969,-1.969,-1.969,-1.969,-1.969,-1.969,-1.969,-1.969,-1.9782,-2.007,-2.0797,-2.1086,-2.1385,-2.2106,-2.231,-2.231,-2.231,-2.231,-2.231,-2.231,-2.231,-2.231,-2.231,-2.2436,-2.2599,-2.2669,-2.288,-2.3069,-2.3189,-2.2923,-2.2422,-2.1512,-2.0806,-2.0092,-1.9271,-1.9259,-1.9305,-1.9305,-1.9305,-1.9305,-1.9305,-1.9305,-1.9305,-1.9305,-1.9305,-1.9623,-2.0278,-2.0539,-2.1391,-2.289,-2.3122,-2.3793,-2.4909,-2.4909,-2.5043,-1.2077,-1.3073,-1.4005,-1.568,-1.618,-1.6199,-1.5911,-1.5742,-1.5164,-1.3359,-1.248,-1.1832,-1.1056,-1.1183,-1.1924,-1.3555,-1.4553,-1.5204,-1.5535,-1.5442,-1.4869,-1.3635,-1.3379,-1.3363,-1.345,-1.4216,-1.5332,-1.6777,-1.6965,-1.7315,-1.8067,-1.8188,-1.8116,-1.7915,-1.7564,-1.7287,-1.7074,-1.671,-1.6522,-1.6522,-1.6522,-1.6522,-1.6522,-1.6522,-1.6522,-1.6522,-1.6879,-1.7105,-1.7353,-1.8027,-1.8535,-1.893,-1.9281,-1.953,-1.969,-1.969,-1.969,-1.969,-1.969,-1.969,-1.969,-1.969,-1.969,-1.9726,-1.9874,-2.005,-2.0311,-2.1023,-2.1354,-2.1584,-2.2152,-2.231,-2.231,-2.231,-2.231,-2.231,-2.231,-2.2388,-2.2436,-2.2436,-2.2678,-2.2923,-2.3045,-2.3346,-2.3566,-2.3566,-2.3064,-2.2437,-2.1814,-2.1279,-2.0647,-1.9822,-1.9473,-1.9305,-1.9305,-1.9305,-1.9305,-1.9305,-1.9305,-1.9305,-1.9305,-1.9656,-2.0148,-2.0788,-2.1356,-2.2357,-2.3809,-2.4005,-2.4505,-2.5303,-2.5303,-2.5303,-1.2108,-1.3133,-1.3864,-1.4544,-1.4983,-1.4965,-1.3949,-1.3405,-1.2698,-1.1167,-1.042,-0.9925,-0.941,-0.9816,-1.0376,-1.0879,-1.1681,-1.2531,-1.3398,-1.3184,-1.3076,-1.3437,-1.3145,-1.29,-1.2881,-1.342,-1.4457,-1.615,-1.6325,-1.6844,-1.7937,-1.8069,-1.7877,-1.735,-1.7338,-1.7074,-1.6522,-1.6522,-1.6522,-1.6522,-1.6522,-1.6522,-1.6522,-1.6522,-1.6522,-1.6522,-1.6522,-1.6837,-1.7353,-1.7394,-1.7987,-1.893,-1.893,-1.9244,-1.969,-1.969,-1.969,-1.969,-1.969,-1.969,-1.9711,-1.9711,-1.9711,-1.9818,-2.0227,-2.0649,-2.1086,-2.1491,-2.1928,-2.2282,-2.2282,-2.231,-2.231,-2.231,-2.231,-2.231,-2.231,-2.25,-2.2695,-2.2695,-2.2996,-2.3346,-2.3671,-2.3996,-2.419,-2.419,-2.3547,-2.2941,-2.2558,-2.2063,-2.1418,-2.0576,-1.9785,-1.9305,-1.9305,-1.9305,-1.9305,-1.9305,-1.932,-1.932,-1.9335,-2.028,-2.0826,-2.0882,-2.2045,-2.3067,-2.385,-2.4053,-2.4543,-2.5303,-2.5303,-2.5303,-1.1425,-1.2217,-1.2871,-1.3346,-1.3388,-1.3076,-1.229,-1.1671,-1.0757,-0.8923,-0.835,-0.7902,-0.6979,-0.7967,-0.9247,-1.0316,-1.1593,-1.2688,-1.3426,-1.3682,-1.3623,-1.3105,-1.3223,-1.3223,-1.291,-1.3065,-1.3519,-1.4399,-1.528,-1.5759,-1.5591,-1.6435,-1.6886,-1.6735,-1.6735,-1.6672,-1.6522,-1.6522,-1.6522,-1.6522,-1.6522,-1.6522,-1.6522,-1.6522,-1.6522,-1.6522,-1.6909,-1.7394,-1.7947,-1.8341,-1.8893,-1.9479,-1.9479,-1.9566,-1.969,-1.969,-1.969,-1.969,-1.969,-1.969,-1.9747,-2.007,-2.0158,-2.0227,-2.0682,-2.0894,-2.1086,-2.1491,-2.1688,-2.1869,-2.2209,-2.231,-2.231,-2.231,-2.231,-2.231,-2.231,-2.25,-2.2695,-2.2695,-2.3165,-2.3671,-2.4016,-2.4151,-2.419,-2.419,-2.4025,-2.3657,-2.2959,-2.1678,-2.0758,-2.0521,-1.9785,-1.9305,-1.9305,-1.9305,-1.9365,-1.9513,-1.9527,-1.9564,-1.967,-2.054,-2.1299,-2.1907,-2.2966,-2.3877,-2.4686,-2.4907,-2.5101,-2.5303,-2.5303,-2.5303,-1.1597,-1.2266,-1.266,-1.2829,-1.2478,-1.1816,-1.0761,-0.9893,-0.8882,-0.7294,-0.6649,-0.6229,-0.5711,-0.6716,-0.7913,-0.8861,-1.0401,-1.167,-1.2372,-1.2936,-1.3193,-1.291,-1.3096,-1.3135,-1.29,-1.3152,-1.3334,-1.342,-1.4272,-1.4915,-1.5096,-1.5732,-1.6238,-1.6479,-1.6522,-1.6522,-1.6522,-1.6522,-1.6522,-1.6522,-1.6522,-1.6522,-1.6522,-1.6522,-1.6522,-1.6522,-1.6837,-1.7208,-1.7719,-1.8307,-1.865,-1.8882,-1.9465,-1.9331,-1.8867,-1.9151,-1.9076,-1.8867,-1.9151,-1.9396,-1.9634,-2.0119,-2.0314,-2.0416,-2.1086,-2.1244,-2.1289,-2.1396,-2.1649,-2.189,-2.1832,-2.2073,-2.231,-2.231,-2.2388,-2.249,-2.249,-2.2815,-2.3165,-2.3346,-2.3671,-2.3976,-2.417,-2.419,-2.419,-2.419,-2.3896,-2.3511,-2.307,-2.1877,-2.0923,-2.0539,-1.9862,-1.9423,-1.9423,-1.9476,-1.9572,-1.9682,-1.9695,-1.9713,-1.9809,-2.1055,-2.1962,-2.2412,-2.3766,-2.4673,-2.5122,-2.5234,-2.5303,-2.5303,-2.5303,-2.5303,-1.1864,-1.2378,-1.2615,-1.2201,-1.1592,-1.0699,-0.922,-0.8099,-0.7039,-0.5953,-0.5261,-0.4888,-0.5094,-0.5876,-0.6716,-0.7333,-0.8806,-1.0205,-1.1073,-1.1733,-1.2289,-1.2832,-1.2881,-1.2881,-1.2881,-1.3372,-1.3457,-1.2929,-1.3467,-1.4272,-1.541,-1.5632,-1.5952,-1.6466,-1.6522,-1.6522,-1.6522,-1.6522,-1.6522,-1.6522,-1.6522,-1.6522,-1.6522,-1.6522,-1.6552,-1.6595,-1.6519,-1.6807,-1.7384,-1.7782,-1.7898,-1.7921,-1.9016,-1.8732,-1.7757,-1.8358,-1.8208,-1.7805,-1.844,-1.8888,-1.937,-2.0133,-2.0449,-2.0618,-2.1346,-2.1622,-2.1628,-2.1299,-2.1735,-2.2158,-2.1498,-2.182,-2.231,-2.231,-2.249,-2.266,-2.2695,-2.323,-2.3795,-2.4133,-2.419,-2.419,-2.419,-2.419,-2.419,-2.419,-2.3621,-2.3125,-2.3051,-2.2299,-2.1472,-2.0625,-2.0059,-1.9708,-1.9623,-1.9726,-1.9802,-1.9824,-1.9824,-1.9892,-2.0028,-2.1698,-2.2687,-2.2802,-2.4456,-2.5303,-2.5303,-2.5303,-2.5303,-2.5303,-2.5303,-2.5303,-1.0418,-1.0759,-1.0788,-0.9855,-0.9304,-0.8551,-0.7078,-0.6141,-0.5324,-0.4529,-0.4324,-0.4334,-0.4367,-0.5256,-0.6307,-0.7387,-0.8248,-0.9371,-1.112,-1.1481,-1.1884,-1.2774,-1.2881,-1.2881,-1.2881,-1.2968,-1.3017,-1.2929,-1.3467,-1.4097,-1.4835,-1.5788,-1.638,-1.6522,-1.6522,-1.6522,-1.6522,-1.6522,-1.6522,-1.6522,-1.6522,-1.6522,-1.6522,-1.6522,-1.6752,-1.712,-1.6582,-1.7193,-1.8498,-1.7534,-1.7664,-1.8508,-1.8194,-1.7891,-1.7697,-1.7817,-1.7787,-1.7762,-1.8143,-1.833,-1.8687,-2.0352,-2.1102,-2.1346,-2.1295,-2.172,-2.2057,-2.138,-2.1735,-2.2276,-2.2141,-2.2209,-2.231,-2.231,-2.2349,-2.2426,-2.266,-2.323,-2.3795,-2.4133,-2.419,-2.419,-2.419,-2.419,-2.419,-2.419,-2.408,-2.3805,-2.3312,-2.2401,-2.1522,-2.0827,-2.0648,-2.0377,-1.9818,-1.9797,-1.9847,-1.9963,-1.9973,-2.0346,-2.1175,-2.2219,-2.3093,-2.3832,-2.4803,-2.5303,-2.5303,-2.5303,-2.5303,-2.5303,-2.5303,-2.5303,-0.9873,-0.9858,-0.9449,-0.8951,-0.7937,-0.6806,-0.5803,-0.4938,-0.4183,-0.3743,-0.3666,-0.3788,-0.4145,-0.4768,-0.5578,-0.669,-0.7527,-0.8572,-1.0108,-1.0804,-1.1518,-1.2443,-1.2744,-1.2881,-1.2881,-1.2881,-1.2881,-1.2881,-1.3467,-1.405,-1.4652,-1.5832,-1.6384,-1.6095,-1.6371,-1.6384,-1.6095,-1.6082,-1.6233,-1.6522,-1.6233,-1.6233,-1.6522,-1.6795,-1.7076,-1.7272,-1.6889,-1.7143,-1.7835,-1.7393,-1.7317,-1.7502,-1.8053,-1.7867,-1.7279,-1.7635,-1.7542,-1.7308,-1.7825,-1.8387,-1.9081,-2.0321,-2.0613,-2.0471,-2.0538,-2.0822,-2.0931,-2.0213,-2.0839,-2.1634,-2.1201,-2.1803,-2.25,-2.25,-2.2773,-2.3105,-2.3432,-2.3735,-2.4056,-2.4303,-2.4357,-2.4393,-2.4495,-2.4512,-2.4512,-2.4512,-2.412,-2.3739,-2.3435,-2.2615,-2.1778,-2.1033,-2.1017,-2.0921,-2.0603,-2.064,-2.0709,-2.0793,-2.0774,-2.1011,-2.1485,-2.2331,-2.3206,-2.4072,-2.4889,-2.5303,-2.5303,-2.5303,-2.5303,-2.5303,-2.5341,-2.5341,-0.9172,-0.8901,-0.8299,-0.8125,-0.6895,-0.5518,-0.478,-0.4013,-0.3414,-0.3139,-0.3109,-0.3303,-0.3914,-0.4293,-0.4848,-0.5795,-0.6562,-0.7494,-0.874,-0.9692,-1.0673,-1.183,-1.2177,-1.2522,-1.2871,-1.2774,-1.2715,-1.2881,-1.347,-1.4082,-1.4652,-1.5592,-1.6014,-1.5703,-1.5973,-1.6019,-1.5693,-1.558,-1.5731,-1.6158,-1.58,-1.5894,-1.6283,-1.6821,-1.709,-1.7222,-1.6972,-1.6937,-1.7093,-1.7198,-1.6954,-1.6639,-1.7899,-1.7736,-1.6853,-1.7385,-1.7268,-1.6895,-1.7492,-1.8333,-1.9216,-1.9824,-2.0019,-2.0052,-2.0211,-2.0356,-2.0331,-1.9457,-2.0212,-2.1096,-2.0347,-2.1367,-2.2588,-2.2788,-2.3259,-2.3777,-2.4077,-2.4209,-2.4303,-2.4528,-2.4559,-2.4607,-2.4775,-2.4804,-2.4804,-2.4804,-2.4219,-2.3793,-2.3833,-2.3271,-2.2584,-2.181,-2.1448,-2.1233,-2.1091,-2.1338,-2.1427,-2.1254,-2.1581,-2.1773,-2.1773,-2.262,-2.3475,-2.4341,-2.4986,-2.5322,-2.5322,-2.5341,-2.5341,-2.5341,-2.5409,-2.5418,-0.7191,-0.7459,-0.7372,-0.6467,-0.5891,-0.5145,-0.3715,-0.3261,-0.3015,-0.2497,-0.2669,-0.3032,-0.3327,-0.377,-0.4327,-0.5085,-0.5217,-0.5828,-0.7517,-0.7843,-0.8699,-1.0853,-1.0824,-1.1204,-1.2735,-1.2295,-1.2187,-1.2832,-1.3538,-1.415,-1.4675,-1.4868,-1.5155,-1.5592,-1.5249,-1.5241,-1.5693,-1.5203,-1.5016,-1.5067,-1.5376,-1.5552,-1.5604,-1.6039,-1.6462,-1.6908,-1.6336,-1.6677,-1.756,-1.6753,-1.6738,-1.7197,-1.704,-1.6901,-1.6805,-1.6869,-1.6837,-1.6841,-1.7232,-1.7562,-1.7912,-1.8297,-2.004,-2.1916,-2.1278,-2.1549,-2.1841,-2.0597,-2.0842,-2.1357,-2.0853,-2.1392,-2.2247,-2.2982,-2.3437,-2.3759,-2.3986,-2.4265,-2.4545,-2.4731,-2.4775,-2.4775,-2.4804,-2.4804,-2.4804,-2.4804,-2.4728,-2.4709,-2.486,-2.4796,-2.4511,-2.389,-2.2248,-2.0995,-2.0433,-2.1073,-2.1196,-2.0465,-2.1831,-2.2677,-2.2677,-2.3514,-2.4351,-2.5168,-2.5332,-2.539,-2.539,-2.5447,-2.5486,-2.5486,-2.5486,-2.5487,-0.5489,-0.536,-0.4944,-0.4751,-0.4028,-0.3257,-0.2678,-0.2412,-0.2273,-0.211,-0.2175,-0.2441,-0.2966,-0.3196,-0.3612,-0.4437,-0.4593,-0.5062,-0.6282,-0.704,-0.7956,-0.9257,-0.9821,-1.0433,-1.13,-1.1472,-1.1816,-1.2443,-1.302,-1.3355,-1.3248,-1.4263,-1.4811,-1.4688,-1.4837,-1.4853,-1.4739,-1.4525,-1.4689,-1.5259,-1.5095,-1.5313,-1.5878,-1.6368,-1.6697,-1.6875,-1.6553,-1.669,-1.7056,-1.6744,-1.6765,-1.7029,-1.7306,-1.7384,-1.7384,-1.7384,-1.7384,-1.7408,-1.7549,-1.807,-1.8697,-1.8823,-2.001,-2.1177,-1.9985,-1.9847,-1.9968,-1.9454,-1.9843,-2.0372,-2.0181,-2.1221,-2.2554,-2.3554,-2.3896,-2.4057,-2.4265,-2.4407,-2.4591,-2.4877,-2.493,-2.4956,-2.5091,-2.5103,-2.5103,-2.5103,-2.4683,-2.4572,-2.5105,-2.4291,-2.3774,-2.4062,-2.34,-2.2642,-2.187,-2.2581,-2.2697,-2.185,-2.2908,-2.359,-2.359,-2.3956,-2.4553,-2.5351,-2.5428,-2.5464,-2.5453,-2.5492,-2.5492,-2.5492,-2.5541,-2.5562,-0.3672,-0.3444,-0.3037,-0.3251,-0.2575,-0.1891,-0.1949,-0.1839,-0.1719,-0.1764,-0.1845,-0.2068,-0.2583,-0.2737,-0.3062,-0.3799,-0.4036,-0.4396,-0.5212,-0.6029,-0.6873,-0.7692,-0.8372,-0.9128,-0.993,-1.0747,-1.15,-1.2171,-1.2457,-1.2454,-1.2121,-1.3427,-1.4162,-1.4063,-1.4275,-1.4348,-1.429,-1.4123,-1.444,-1.5212,-1.4937,-1.5155,-1.584,-1.643,-1.6673,-1.6561,-1.6683,-1.6622,-1.6473,-1.6797,-1.6952,-1.6969,-1.7664,-1.7971,-1.8035,-1.8035,-1.8035,-1.8035,-1.8035,-1.8554,-1.9199,-1.9199,-1.9734,-2.0164,-1.9183,-1.9056,-1.9222,-1.9088,-1.9465,-1.9987,-2.0256,-2.151,-2.3013,-2.4045,-2.4321,-2.4426,-2.4604,-2.4651,-2.4737,-2.5022,-2.5088,-2.5122,-2.5274,-2.5303,-2.5303,-2.5303,-2.462,-2.4399,-2.5216,-2.4082,-2.3552,-2.4418,-2.4514,-2.4052,-2.2889,-2.361,-2.3725,-2.2851,-2.3832,-2.436,-2.4149,-2.4399,-2.483,-2.5421,-2.5505,-2.553,-2.5525,-2.5546,-2.5558,-2.5558,-2.5607,-2.5621,-0.1653,-0.201,-0.2235,-0.2207,-0.1902,-0.1635,-0.1697,-0.1563,-0.143,-0.149,-0.1709,-0.1945,-0.2085,-0.2368,-0.2761,-0.3225,-0.3363,-0.3639,-0.431,-0.4541,-0.5036,-0.618,-0.6261,-0.7008,-0.8944,-1.0157,-1.1202,-1.2151,-1.1887,-1.1732,-1.1722,-1.2241,-1.2996,-1.395,-1.3484,-1.3705,-1.4691,-1.4158,-1.4098,-1.4515,-1.489,-1.5118,-1.5149,-1.594,-1.6139,-1.5842,-1.6517,-1.6409,-1.5885,-1.6885,-1.7247,-1.7252,-1.7924,-1.8351,-1.8585,-1.8585,-1.8585,-1.8585,-1.8585,-1.877,-1.9002,-1.9002,-1.9135,-1.9338,-1.9527,-2.0153,-2.0672,-2.0223,-2.0281,-2.0686,-2.1547,-2.2543,-2.3489,-2.429,-2.4654,-2.4828,-2.4962,-2.4979,-2.5046,-2.5264,-2.5303,-2.5303,-2.5303,-2.5303,-2.5303,-2.5303,-2.462,-2.4418,-2.5293,-2.4687,-2.4514,-2.539,-2.5486,-2.4755,-2.2947,-2.361,-2.3725,-2.2851,-2.437,-2.4966,-2.4225,-2.4966,-2.5421,-2.5508,-2.5553,-2.5601,-2.5611,-2.5662,-2.5703,-2.5703,-2.5703,-2.5655,0.0586,0.0278,0.0046,0.0091,0.0042,-0.0077,-0.0293,-0.0466,-0.0577,-0.0536,-0.089,-0.1242,-0.1273,-0.164,-0.2106,-0.2711,-0.3028,-0.3341,-0.3723,-0.4451,-0.5103,-0.5567,-0.6797,-0.8218,-0.9632,-1.031,-1.0818,-1.1295,-1.1562,-1.1556,-1.1155,-1.1664,-1.2259,-1.2947,-1.3418,-1.3827,-1.4145,-1.3807,-1.3849,-1.421,-1.408,-1.4453,-1.5243,-1.5676,-1.6097,-1.6485,-1.6178,-1.6216,-1.6496,-1.672,-1.7121,-1.7609,-1.8235,-1.8528,-1.8585,-1.8585,-1.8585,-1.8585,-1.8585,-1.877,-1.9002,-1.9002,-1.923,-1.9513,-1.9569,-1.9775,-1.9966,-1.9917,-1.9972,-2.0362,-2.1765,-2.237,-2.2971,-2.4362,-2.476,-2.4828,-2.4974,-2.501,-2.5046,-2.5264,-2.5341,-2.537,-2.537,-2.4908,-2.4755,-2.5341,-2.4245,-2.3861,-2.5283,-2.4774,-2.4585,-2.5402,-2.5499,-2.5057,-2.3918,-2.4572,-2.4707,-2.3887,-2.4841,-2.5332,-2.5101,-2.4812,-2.4649,-2.467,-2.4744,-2.4784,-2.4784,-2.5406,-2.5681,-2.5635,-2.5635,-2.5602,0.1935,0.1615,0.136,0.1241,0.1109,0.0883,0.0491,0.0271,0.0112,-0.0028,-0.0335,-0.0638,-0.0757,-0.1101,-0.157,-0.2295,-0.2623,-0.2979,-0.35,-0.4187,-0.4837,-0.5312,-0.6977,-0.8503,-0.9525,-0.9941,-1.0328,-1.0772,-1.0981,-1.0963,-1.0631,-1.1195,-1.1708,-1.2034,-1.2781,-1.3458,-1.3956,-1.3578,-1.3643,-1.4133,-1.3874,-1.4221,-1.5039,-1.5436,-1.5755,-1.6048,-1.594,-1.5989,0.0,-1.6373,-1.6875,-1.7555,-1.8054,-1.8503,-1.8877,-1.8947,-1.8981,-1.898,-1.9044,-1.9157,-1.9301,-1.9301,-1.9499,-1.975,-1.975,-1.972,-1.9695,-1.9786,-2.0017,-2.0476,-2.1532,-2.2092,-2.2716,-2.4136,-2.4524,-2.4688,-2.5088,-2.4927,-2.4739,-2.485,-2.4928,-2.4947,-2.4957,-2.4791,-2.4877,-2.5426,-2.4061,-2.3604,-2.533,-2.4561,-2.4296,-2.545,-2.5591,-2.5374,-2.4865,-2.5244,-2.5279,-2.4779,-2.5221,-2.5509,-2.5543,-2.5072,-2.4799,-2.482,-2.4863,-2.4884,-2.4845,-2.5366,-2.5601,-2.5561,-2.5552,-2.553,0.0,0.2091,0.1784,0.1483,0.1407,0.1327,0.0811,0.0718,0.0,0.0165,0.0,-0.0189,-0.0479,-0.0698,-0.1117,-0.1927,-0.2172,-0.2596,-0.3573,-0.387,-0.4371,-0.5413,-0.687,-0.8032,-0.8704,-0.9175,-0.9747,-1.0591,-1.03,-1.0101,-1.0121,-1.0839,-1.128,-1.137,-1.1767,-1.2633,-1.4012,-1.3478,-1.3498,-1.4107,-1.4108,-1.4272,-1.4572,-1.5106,-1.5191,-1.4944,-1.5745,-1.5764,-1.5241,-1.5871,-1.6587,-1.7311,-1.7617,-1.8401,-1.9365,-1.9555,-1.9609,-1.9636,-1.9762,-1.979,-1.979,-1.9821,-1.992,-2.0012,-2.0022,-1.9933,-1.9843,-1.9843,-2.0361,-2.0953,-2.1029,-2.1791,-2.2756,-2.3705,-2.4109,-2.4503,-2.5245,-2.4783,-2.4188,-2.413,-2.413,-2.4137,-2.4197,-2.4827,-2.5366,-2.5503,-2.4131,-2.3673,-2.5309,-2.4215,-2.3883,-2.5422,-2.5664,-2.5683,-2.5695,-2.5589,-2.5503,-2.5503,-2.552,-2.5532,-2.5597,-2.5541,-2.5529,-2.5604,-2.559,-2.5582,-2.5582,-2.5538,-2.5498,-2.5493,-2.5498,-2.5466,0.3664,0.0,0.252,0.2339,0.212,0.1864,0.0,0.129,0.0,0.0,0.0,0.0,0.0162,-0.0161,-0.0704,-0.1504,-0.1785,-0.2337,-0.3543,-0.444,-0.5229,-0.588,-0.695,-0.7895,-0.8527,-0.9172,-0.9734,-1.0212,-1.0146,-1.0188,-1.0401,-1.0579,-1.1101,-1.205,-1.188,-1.2303,-1.3396,-1.3282,-1.3167,-1.312,-1.3236,-1.3576,-1.4165,-1.47,-1.5279,-1.5834,-1.5349,-1.5468,-1.5988,-1.5645,-1.6472,-1.7987,-1.8229,-1.8871,-1.9682,-1.9738,-1.975,-1.9762,-1.9797,-1.979,-1.9821,-1.9985,-2.0047,-2.0107,-2.0265,-2.0255,-2.0171,-2.0171,-2.0324,-2.0622,-2.1292,-2.2134,-2.3035,-2.3928,-2.4672,-2.5071,-2.4612,-2.4341,-2.4024,-2.3397,-2.3323,-2.3544,-2.4176,-2.3936,-2.4115,-2.5444,-2.474,-2.423,-2.4627,-2.4924,-2.4961,-2.4663,-2.5221,-2.5604,-2.5554,-2.5605,-2.5659,-2.5659,-2.5593,-2.5605,-2.5675,-2.4934,-2.4563,-2.4629,-2.4587,-2.4876,-2.5524,-2.5504,-2.5473,-2.5415,-2.5418,-2.539,0.386,0.3565,0.3303,0.3119,0.2821,0.2535,0.232,0.0,0.0,0.0,0.0,0.0,0.0627,0.0069,-0.0534,-0.0935,-0.1716,-0.2621,-0.3686,-0.4767,-0.5568,-0.5955,-0.7236,-0.8238,-0.8609,-0.9323,-0.9908,-1.0207,-1.0252,-1.0374,-1.0677,-1.0794,-1.1209,-1.2003,-1.1953,-1.2328,-1.3188,-1.3106,-1.3039,-1.3039,-1.3168,-1.3481,-1.3974,-1.4352,-1.4801,-1.5264,-1.4763,-1.4924,-1.5517,-1.5067,-1.5827,-1.7281,-1.7756,-1.8459,-1.9251,-1.9752,-1.9945,-1.9955,-2.0039,-2.0088,-2.0088,-2.0173,-2.0194,-2.0216,-2.0323,-2.0334,-2.0313,-2.0345,-2.035,-2.0446,-2.0938,-2.1401,-2.1971,-2.2853,-2.3416,-2.3857,-2.4208,-2.3974,-2.3584,-2.3171,-2.3105,-2.3231,-2.3668,-2.3688,-2.41,-2.541,-2.4861,-2.4452,-2.4842,-2.4978,-2.4966,-2.4864,-2.5281,-2.5542,-2.551,-2.5579,-2.5601,-2.5603,-2.5579,-2.558,-2.5614,-2.5082,-2.4807,-2.4851,-2.4685,-2.4841,-2.5321,-2.5218,-2.5156,-2.5118,-2.5118,-2.5118,0.3759,0.3899,0.403,0.3766,0.3515,0.3271,0.2991,0.0,0.0,0.0,0.0,0.0,0.0914,0.0259,-0.0265,-0.0428,-0.184,-0.3262,-0.4148,-0.5164,-0.5852,-0.5979,-0.7549,-0.8677,-0.8781,-0.9496,-1.0113,-1.0436,-1.0483,-1.0605,-1.0944,-1.1219,-1.149,-1.1779,-1.2164,-1.2639,-1.3214,-1.3059,-1.3006,-1.3076,-1.3401,-1.3681,-1.392,-1.4144,-1.4264,-1.4314,-1.4282,0.0,-1.4747,-1.4563,-1.5144,-1.6252,-1.7075,-1.7889,-1.872,-1.9763,-2.0136,-2.0159,-2.0325,-2.0379,-2.0385,-2.0321,-2.0293,-2.0292,-2.0316,-2.0314,-2.0312,-2.037,-2.0398,-2.0379,-2.0379,-2.0478,-2.0765,-2.1523,-2.1793,-2.2279,-2.3685,-2.3392,-2.2846,-2.2771,-2.271,-2.2713,-2.2853,-2.355,-2.4377,-2.5185,-2.4791,-2.4616,-2.5224,-2.4771,-2.463,-2.5181,-2.5357,-2.5416,-2.5405,-2.5386,-2.5389,-2.5396,-2.5414,-2.5418,-2.5397,-2.5387,-2.5395,-2.5386,-2.517,-2.505,-2.505,-2.4865,-2.4804,-2.4804,-2.4804,-2.4804,0.4199,0.4389,0.4525,0.4198,0.4075,0.4014,0.39,0.0,0.0,0.0,0.0,0.0,0.0713,0.0812,0.0656,-0.0469,-0.229,-0.4031,-0.5337,-0.6256,-0.6703,-0.6521,-0.7544,-0.8399,-0.8766,-0.9428,-1.011,-1.0777,-1.0825,-1.0954,-1.1205,-1.149,-1.1794,-1.2113,-1.2767,-1.3174,-1.3274,-1.3244,-1.2841,-1.2042,-1.327,-1.3898,-1.3982,-1.4247,-1.4518,-1.4785,-1.4618,-1.4724,-1.5028,-1.4881,-1.548,-1.6612,-1.7459,-1.829,-1.9109,-2.0014,-2.0316,-2.0261,-2.0304,-2.0325,-2.0307,-2.0292,-2.0308,-2.0316,-2.0371,-2.0352,-2.0314,-2.0386,-2.0365,-2.0325,-2.0325,-2.0855,-2.1465,-2.1645,-2.2265,-2.2669,-2.2217,-2.1927,-2.1551,-2.0947,-2.0722,-2.0914,-2.1764,-2.262,-2.3485,-2.4359,-2.4955,-2.509,-2.4475,-2.4927,-2.4995,-2.4221,-2.4758,-2.5089,-2.4907,-2.4907,-2.4915,-2.4911,-2.5075,-2.5082,-2.4907,-2.4908,-2.4908,-2.4907,-2.4865,-2.4851,-2.4851,-2.4804,-2.4804,-2.4804,-2.4804,-2.4804,0.4362,0.4466,0.4582,0.4544,0.4726,0.4963,0.0,0.0,0.0,0.0,0.0,0.0,0.1193,0.0777,0.0,-0.1805,-0.2601,-0.351,-0.4941,-0.5553,-0.605,-0.6502,-0.7576,-0.8513,-0.9018,-0.9879,-1.0602,-1.108,-1.1118,-1.1242,-1.1557,-1.1824,-1.1928,-1.1819,-1.2406,-1.237,-1.1688,-1.2754,-1.3276,-1.3204,-1.4029,-1.4453,-1.4486,-1.4606,-1.4765,-1.4933,0.0,-1.4817,-1.5081,-1.4922,-1.5248,-1.5927,-1.6803,-1.7375,-1.7804,-1.8664,-1.9296,-1.9709,-1.9709,-1.9986,-2.0355,-2.0316,-2.0239,-2.0197,-2.0186,-2.0107,-2.0035,-2.0069,-2.0203,-2.0342,-2.0268,-2.054,-2.0811,-2.074,-2.1025,-2.1337,-2.1407,-2.1377,-2.1244,-2.09,-2.0776,-2.0881,-2.1306,-2.2072,-2.2901,-2.3743,-2.4574,-2.4974,-2.4581,-2.4879,-2.4937,-2.4439,-2.4723,-2.4898,-2.4804,-2.4804,-2.4804,-2.4804,-2.4898,-2.4898,-2.4804,-2.4802,-2.4787,-2.4804,-2.47,-2.4639,-2.4639,-2.4528,-2.4478,-2.4478,-2.4478,-2.4478,0.4411,0.4555,0.4791,0.5054,0.0,0.0,0.0,0.0,0.0,0.0,0.0,0.0,0.1739,0.0715,-0.0577,-0.2492,-0.2756,-0.3198,-0.4621,-0.5246,-0.5898,-0.6787,-0.7987,-0.8997,-0.9704,-1.0575,-1.1125,-1.1235,-1.1322,-1.1398,-1.151,-1.1796,-1.1771,-1.1433,-1.1936,-1.1703,-1.0724,-1.2335,-1.3383,-1.3889,-1.4579,-1.4916,-1.4945,-1.4955,-1.4992,-1.5062,-1.4903,-1.4936,-1.5091,-1.4936,-1.498,-1.5245,-1.6112,-1.6563,-1.6817,-1.748,-1.8305,-1.9084,-1.9054,-1.9588,-2.0257,-2.019,-2.0079,-1.9926,-1.9882,-1.9738,-1.9607,-1.9607,-1.9839,-2.0088,-2.0093,-2.0115,-2.0073,-1.9901,-1.9889,-2.0051,-2.0638,-2.0744,-2.0721,-2.0678,-2.0713,-2.0731,-2.0699,-2.1443,-2.2237,-2.2854,-2.3666,-2.4275,-2.4464,-2.4502,-2.453,-2.4595,-2.4598,-2.4567,-2.4452,-2.4435,-2.4435,-2.4435,-2.4532,-2.4567,-2.4416,-2.4435,-2.4435,-2.4435,-2.4282,-2.4192,-2.4192,-2.4039,-2.3976,-2.3976,-2.3976,-2.3976,0.4443,0.4853,0.5461,0.5971,0.0,0.0,0.0,0.4771,0.0,0.3472,0.0,0.0,0.2061,0.098,-0.0147,-0.1175,-0.2626,-0.4052,-0.5336,-0.6666,-0.7645,-0.8046,-0.9032,-1.0093,-1.1061,-1.1454,-1.1518,-1.1143,-1.134,-1.124,-1.072,-1.1004,-1.1189,-1.1218,-1.1795,-1.2054,-1.1967,-1.2417,-1.2549,-1.2382,-1.4083,-1.4973,-1.5091,-1.51,-1.5153,-1.527,-1.5251,-1.5195,-1.5108,-1.5075,-1.5052,-1.5101,-1.5967,-1.6769,-1.7434,-1.75,-1.8029,-1.8719,-1.8661,-1.9174,-1.9843,-1.9843,-1.9663,-1.9449,-1.9431,-1.9254,-1.9059,-1.9059,-1.9088,-1.9212,-1.97,-1.9828,-1.9828,-1.9797,-1.9816,-1.9762,-1.9582,-1.9425,-1.9313,-1.9191,-1.9265,-1.938,-1.9508,-2.0452,-2.1204,-2.1261,-2.196,-2.2754,-2.3496,-2.3591,-2.3712,-2.4026,-2.4063,-2.3852,-2.3356,-2.331,-2.331,-2.331,-2.3792,-2.3832,-2.3333,-2.331,-2.331,-2.331,-2.3305,-2.3305,-2.3305,-2.3282,-2.3259,-2.3259,-2.3259,-2.3259,0.4981,0.5255,0.56,0.5633,0.0,0.0,0.0,0.5862,0.5812,0.5016,0.4482,0.0,0.0,0.1103,-0.0027,-0.0334,-0.1651,-0.2894,-0.3636,-0.4871,-0.5961,-0.6621,-0.7912,-0.9056,-0.9855,-1.0406,-1.0691,-1.0656,-1.0829,-1.0863,-1.0679,-1.1023,-1.1051,-1.0651,-1.1134,-1.1442,-1.1478,-1.2268,-1.2873,-1.3328,-1.4014,-1.4658,-1.5223,-1.5134,-1.5139,-1.5171,-1.5127,-1.5049,-1.4985,-1.4986,-1.4963,-1.496,-1.5308,-1.5628,-1.5874,-1.5743,-1.6496,-1.7571,-1.7467,-1.826,-1.9286,-1.9286,-1.9177,-1.8995,-1.8776,-1.8591,-1.8447,-1.8447,-1.8282,-1.8284,-1.8995,-1.9188,-1.9176,-1.9073,-1.9059,-1.9043,-1.8907,-1.8858,-1.8824,-1.877,-1.8788,-1.8842,-1.8892,-1.9662,-2.0293,-2.0293,-2.0986,-2.1606,-2.1899,-2.2337,-2.2679,-2.2803,-2.3228,-2.3406,-2.3212,-2.3189,-2.3117,-2.2898,-2.327,-2.3406,-2.3212,-2.3189,-2.3189,-2.3189,-2.3189,-2.3076,-2.2828,-2.2828,-2.2693,-2.2392,-2.2392,-2.2556,0.5499,0.5796,0.6062,0.0,0.0,0.0,0.0,0.6601,0.6428,0.5421,0.488,0.4392,0.3595,0.1848,0.0575,0.0654,-0.0842,-0.207,-0.2321,-0.3344,-0.456,-0.5848,-0.7113,-0.838,-0.9614,-1.0195,-1.0458,-1.0382,-1.0541,-1.0522,-1.0303,-1.0581,-1.0526,-1.0031,-1.0359,-1.0682,-1.0976,-1.1691,-1.2618,-1.3725,-1.3801,-1.4331,-1.524,-1.509,-1.4999,-1.4944,-1.4898,-1.4794,-1.4654,-1.4654,-1.4616,-1.459,-1.459,-1.4521,-1.4441,-1.4304,-1.5037,-1.6101,-1.602,-1.6967,-1.8246,-1.8246,-1.8271,-1.8241,-1.8012,-1.7834,-1.7681,-1.7681,-1.7428,-1.7309,-1.8,-1.8372,-1.8555,-1.8475,-1.8529,-1.8566,-1.8489,-1.8469,-1.843,-1.8214,-1.8255,-1.8278,-1.818,-1.8679,-1.9094,-1.9076,-1.9552,-2.0033,-2.0279,-2.1044,-2.1708,-2.2041,-2.2467,-2.2635,-2.2513,-2.2513,-2.2407,-2.218,-2.238,-2.2565,-2.2686,-2.2565,-2.2513,-2.2513,-2.2513,-2.2373,-2.2095,-2.2095,-2.1939,-2.162,-2.162,-2.1781,0.597,0.6452,0.6999,0.654,0.0,0.0,0.6488,0.6674,0.6386,0.4213,0.3816,0.414,0.5135,0.3352,0.1783,0.192,-0.0242,-0.1888,-0.1772,-0.257,-0.3955,-0.6078,-0.7018,-0.844,-1.0841,-1.1251,-1.1075,-1.0335,-1.0528,-1.0292,-0.9433,-0.9523,-0.9522,-0.9394,-0.9535,-0.9951,-1.0684,-1.0704,-1.151,-1.3098,-1.3368,-1.4064,-1.5093,-1.4963,-1.4798,-1.4589,-1.4579,-1.4408,-1.4087,-1.4087,-1.4007,-1.3881,-1.3881,-1.3745,-1.3478,-1.3478,-1.3867,-1.4383,-1.44,-1.5354,-1.6578,-1.6578,-1.6847,-1.7164,-1.7181,-1.6987,-1.6789,-1.6789,-1.6491,-1.6289,-1.6654,-1.7426,-1.8066,-1.8087,-1.8358,-1.8508,-1.8249,-1.8187,-1.8001,-1.7399,-1.7505,-1.7586,-1.7252,-1.7411,-1.7557,-1.7507,-1.754,-1.789,-1.8682,-1.9723,-2.0808,-2.1966,-2.177,-2.143,-2.1023,-2.0991,-2.0991,-2.0991,-2.0991,-2.115,-2.1582,-2.1213,-2.0991,-2.0991,-2.0991,-2.0991,-2.0991,-2.0991,-2.0991,-2.1007,-2.1007,-2.0991,0.7108,0.7449,0.7835,0.7699,0.8379,0.0,0.0,0.8044,0.0,0.0,0.7393,0.7179,0.7188,0.5658,0.4557,0.5122,0.397,0.2722,0.1972,0.0925,-0.0291,-0.1726,-0.5294,-0.8023,-0.9031,-0.9181,-0.8956,-0.8307,-0.8426,-0.8434,-0.8219,-0.8732,-0.895,-0.877,-0.9538,-1.0152,-1.0561,-1.1171,-1.1899,-1.2754,-1.2962,-1.3587,-1.4538,-1.4645,-1.4416,-1.3953,-1.3868,-1.3701,-1.348,-1.348,-1.3434,-1.3405,-1.3405,-1.3208,-1.2924,-1.2767,-1.3011,-1.34,-1.3315,-1.4167,-1.5263,-1.5263,-1.5583,-1.5945,-1.5715,-1.5619,-1.5473,-1.5067,-1.5007,-1.4991,-1.4983,-1.5437,-1.6122,-1.6995,-1.7247,-1.7311,-1.7231,-1.7224,-1.7158,-1.6977,-1.6786,-1.661,-1.6507,-1.6297,-1.6224,-1.6546,-1.6588,-1.7004,-1.8023,-1.8431,-1.8966,-1.982,-2.0235,-2.0254,-1.9782,-2.0172,-2.0273,-1.9886,-1.9602,-1.9947,-2.1118,-2.1055,-2.0991,-2.0991,-2.0991,-2.0829,-2.0516,-2.0516,-2.0364,-2.0085,-2.0085,-2.0243,0.7817,0.8429,0.8895,0.8542,0.9209,0.9809,0.9229,0.8682,0.86,0.9638,0.8806,0.7975,0.8251,0.6772,0.5688,0.6227,0.536,0.4379,0.3691,0.2871,0.168,-0.0108,-0.3267,-0.5773,-0.6917,-0.7848,-0.8224,-0.7862,-0.7371,-0.7093,-0.7141,-0.7636,-0.795,-0.8013,-0.8648,-0.9417,-1.0294,-1.0829,-1.1387,-1.2013,-1.2262,-1.2537,-1.2824,-1.3389,-1.3389,-1.2974,-1.2822,-1.2695,-1.2565,-1.2565,-1.2565,-1.2565,-1.2565,-1.2399,-1.2117,-1.2004,-1.2058,-1.2149,-1.2072,-1.2717,-1.3594,-1.3594,-1.3967,-1.4397,-1.4199,-1.4126,-1.4041,-1.3727,-1.3779,-1.3909,-1.3968,-1.4292,-1.4836,-1.5834,-1.6192,-1.6285,-1.6285,-1.6285,-1.6231,-1.6126,-1.5874,-1.5677,-1.5534,-1.5272,-1.5198,-1.5476,-1.5505,-1.5917,-1.7049,-1.7184,-1.7541,-1.847,-1.8934,-1.9061,-1.8793,-1.9129,-1.9243,-1.8883,-1.8679,-1.8919,-1.9803,-1.9838,-1.9838,-1.9838,-1.9838,-1.9697,-1.9426,-1.9426,-1.9295,-1.9043,-1.9043,-1.9214,0.817,0.9184,0.9925,0.9103,0.9529,1.0202,1.0355,0.8932,0.8182,1.0303,0.8788,0.7458,0.8692,0.72,0.5886,0.6174,0.5157,0.4342,0.4473,0.41,0.2821,0.0063,-0.0831,-0.212,-0.4409,-0.6593,-0.7912,-0.801,-0.6779,-0.6055,-0.6128,-0.6239,-0.6523,-0.6987,-0.7137,-0.7979,-0.9605,-0.9717,-1.0093,-1.0781,-1.1133,-1.0942,-1.0335,-1.1581,-1.2011,-1.177,-1.1553,-1.1453,-1.1453,-1.1453,-1.1453,-1.1453,-1.1453,-1.1314,-1.1148,-1.1125,-1.0982,-1.0777,-1.0715,-1.1146,-1.1677,-1.1677,-1.2087,-1.2581,-1.2581,-1.2581,-1.2581,-1.2513,-1.2649,-1.2914,-1.3299,-1.3556,-1.3875,-1.4561,-1.5081,-1.5401,-1.5401,-1.5401,-1.533,-1.5019,-1.4913,-1.4805,-1.4487,-1.4406,-1.4374,-1.436,-1.4392,-1.478,-1.569,-1.5826,-1.6286,-1.7461,-1.7648,-1.7746,-1.7915,-1.7985,-1.8027,-1.7947,-1.7947,-1.7947,-1.7947,-1.8066,-1.8106,-1.8106,-1.8106,-1.8106,-1.8106,-1.8106,-1.8106,-1.8106,-1.8106,-1.8106,0.813,0.8836,0.9659,0.9654,0.9725,1.0052,1.0961,1.0063,0.9425,1.0733,1.0059,0.9359,0.9746,0.8788,0.8098,0.8643,0.7989,0.7772,0.8779,0.8305,0.6854,0.4158,0.2968,0.1459,-0.087,-0.2254,-0.34,-0.4342,-0.4134,-0.4163,-0.4695,-0.4366,-0.4329,-0.4694,-0.5873,-0.6608,-0.6785,-0.7451,-0.7991,-0.835,-0.8753,-0.8851,-0.8767,-1.0793,-1.1444,-1.0929,-1.0406,-1.0191,-1.0191,-1.0191,-1.0191,-1.0191,-1.0191,-1.0168,-1.0095,-0.9818,-0.9728,-0.9673,-0.9372,-0.9623,-1.0078,-1.0078,-1.0505,-1.0996,-1.0996,-1.0996,-1.0912,-1.0421,-1.0888,-1.1415,-1.1101,-1.1637,-1.2294,-1.2437,-1.3631,-1.4727,-1.4727,-1.4727,-1.4696,-1.4631,-1.4347,-1.4103,-1.4052,-1.3702,-1.3454,-1.3424,-1.371,-1.39,-1.3696,-1.3676,-1.4098,-1.5179,-1.5784,-1.6265,-1.6652,-1.7169,-1.7312,-1.6879,-1.6837,-1.6837,-1.6837,-1.7666,-1.8106,-1.8106,-1.8106,-1.8106,-1.8106,-1.8106,-1.8106,-1.8106,-1.8106,-1.8106,0.7977,0.9035,1.0115,1.0286,1.0015,0.9824,1.0334,0.9839,0.9427,1.0024,0.9876,0.962,0.95,0.8945,0.8632,0.9014,0.7472,0.6772,0.8269,0.7398,0.6561,0.645,0.5143,0.3579,0.1851,0.0185,-0.0794,-0.0849,-0.1136,-0.1692,-0.2619,-0.2691,-0.2858,-0.3223,-0.4023,-0.4862,-0.5799,-0.6411,-0.6789,-0.6932,-0.7136,-0.7246,-0.7314,-0.9144,-0.991,-0.9755,-0.9238,-0.913,-0.9312,-0.9312,-0.9312,-0.9312,-0.9312,-0.9207,-0.9008,-0.8831,-0.8678,-0.8524,-0.8301,-0.8403,-0.8632,-0.8632,-0.8991,-0.9387,-0.9387,-0.9518,-0.9634,-0.9305,-0.9945,-1.0653,-1.0362,-1.1069,-1.1811,-1.1811,-1.2531,-1.3213,-1.3213,-1.3213,-1.3281,-1.3496,-1.3191,-1.2963,-1.3182,-1.2849,-1.2532,-1.2484,-1.2683,-1.2728,-1.246,-1.2603,-1.3034,-1.385,-1.4465,-1.4976,-1.5508,-1.5844,-1.5928,-1.5656,-1.5656,-1.5656,-1.5656,-1.6176,-1.676,-1.7299,-1.7353,-1.7353,-1.7353,-1.7353,-1.7353,-1.7353,-1.7353,-1.7353,0.7437,0.8953,1.0354,1.0533,1.008,0.9535,0.9387,0.9148,0.8943,0.8966,0.9152,0.9188,0.884,0.8651,0.8534,0.8488,0.5894,0.425,0.5238,0.4654,0.4717,0.634,0.5158,0.3871,0.2982,0.1512,0.1017,0.2012,0.1448,0.0621,-0.0374,-0.1097,-0.1639,-0.197,-0.2192,-0.3181,-0.5021,-0.5396,-0.5634,-0.5739,-0.5812,-0.5884,-0.6001,-0.7035,-0.7855,-0.8462,-0.8076,-0.8104,-0.8406,-0.8406,-0.8406,-0.8406,-0.8406,-0.8227,-0.798,-0.7923,-0.7742,-0.7502,-0.7444,-0.7415,-0.7415,-0.7415,-0.7627,-0.7895,-0.7895,-0.8143,-0.8417,-0.8474,-0.9115,-0.9841,-0.9883,-1.058,-1.1271,-1.1271,-1.1271,-1.1345,-1.1726,-1.1811,-1.192,-1.2282,-1.2066,-1.192,-1.2318,-1.2066,-1.1774,-1.1664,-1.173,-1.1748,-1.1674,-1.2014,-1.2484,-1.3131,-1.3541,-1.4027,-1.4664,-1.4698,-1.4698,-1.4698,-1.4698,-1.4698,-1.4698,-1.4698,-1.5152,-1.6151,-1.6194,-1.6194,-1.6194,-1.6194,-1.6194,-1.6194,-1.6194,-1.6194,0.5972,0.7294,0.8871,0.9574,0.9433,0.9115,0.9196,0.897,0.87,0.8526,0.8699,0.8829,0.8655,0.8923,0.8917,0.8121,0.5682,0.3184,0.1151,0.3219,0.3967,0.1359,0.0838,0.0627,0.0479,0.2015,0.3103,0.3259,0.2281,0.1601,0.1441,0.0377,-0.0267,-0.0314,-0.1326,-0.2027,-0.2322,-0.2887,-0.3406,-0.3856,-0.4224,-0.4599,-0.498,-0.4765,-0.5601,-0.7231,-0.6883,-0.6743,-0.6811,-0.6811,-0.6811,-0.6811,-0.6811,-0.6964,-0.7114,-0.6824,-0.6875,-0.7025,-0.6734,-0.6661,-0.6661,-0.6661,-0.6691,-0.6721,-0.6721,-0.6781,-0.6842,-0.7106,-0.7551,-0.8016,-0.8262,-0.8703,-0.9102,-0.9102,-0.9102,-0.9609,-1.1431,-1.1811,-1.1811,-1.1884,-1.1847,-1.1811,-1.1884,-1.1847,-1.1627,-1.1169,-1.1443,-1.1548,-1.1065,-1.1402,-1.2057,-1.3017,-1.3167,-1.3626,-1.4619,-1.4698,-1.4698,-1.4698,-1.4698,-1.4698,-1.4698,-1.4698,-1.4801,-1.4926,-1.4926,-1.4926,-1.4926,-1.4926,-1.4926,-1.4926,-1.4926,-1.4926,0.6592,0.7436,0.8423,0.9224,0.9156,0.884,0.8677,0.8606,0.8591,0.8627,0.8452,0.8316,0.8371,0.6028,0.5046,0.799,0.4668,0.1312,0.0164,0.1289,0.1683,0.0174,0.0,0.0518,0.1839,0.17,0.1958,0.2976,0.2591,0.2154,0.1825,0.0979,0.0356,0.0,-0.1181,-0.1795,-0.1799,-0.2072,-0.2548,-0.3226,-0.3095,-0.3254,-0.3625,-0.3412,-0.4382,-0.619,-0.581,-0.5994,-0.6488,-0.6488,-0.6488,-0.6488,-0.6488,-0.6281,-0.6014,-0.6114,-0.5952,-0.566,-0.5782,-0.5828,-0.5789,-0.5533,-0.5588,-0.5736,-0.5512,-0.5649,-0.5895,-0.6032,-0.6435,-0.6897,-0.7035,-0.7636,-0.8187,-0.8187,-0.8448,-0.895,-0.9875,-1.007,-1.007,-1.007,-1.0292,-1.0484,-1.0504,-1.0714,-1.0875,-1.0934,-1.1018,-1.0994,-1.0745,-1.0777,-1.0992,-1.1426,-1.1694,-1.2139,-1.3004,-1.2715,-1.2667,-1.3062,-1.2715,-1.2512,-1.2512,-1.2512,-1.2512,-1.2512,-1.3971,-1.4698,-1.4698,-1.4698,-1.4698,-1.4698,-1.4698,-1.4698,0.6692,0.7328,0.8002,0.8578,0.8785,0.8739,0.8339,0.8303,0.8217,0.7795,0.7943,0.8149,0.8119,0.3672,0.1456,0.5918,0.2896,0.0,0.0,0.0,0.0219,0.0823,0.089,0.1348,0.2503,0.1567,0.1261,0.2185,0.2391,0.2334,0.2044,0.1449,0.0914,0.0468,-0.0714,-0.1341,-0.1333,-0.1555,-0.1991,-0.2693,-0.2291,-0.2224,-0.247,-0.247,-0.3339,-0.4855,-0.4705,-0.5082,-0.5831,-0.5831,-0.5846,-0.586,-0.586,-0.5456,-0.4928,-0.5282,-0.5004,-0.4505,-0.4864,-0.496,-0.4928,-0.457,-0.4654,-0.4833,-0.4547,-0.4736,-0.51,-0.5166,-0.556,-0.5976,-0.6043,-0.6583,-0.7169,-0.7169,-0.7522,-0.7998,-0.8594,-0.8716,-0.8716,-0.8716,-0.8973,-0.9279,-0.9362,-0.9659,-1.0007,-1.0489,-1.0498,-1.0486,-1.0486,-1.0393,-1.0368,-1.0368,-1.0606,-1.1015,-1.1516,-1.1065,-1.1015,-1.1516,-1.1065,-1.0813,-1.0813,-1.0813,-1.0813,-1.0813,-1.2706,-1.3726,-1.3726,-1.3726,-1.3726,-1.3726,-1.3726,-1.3726,0.5,0.6029,0.7221,0.7134,0.8061,0.8874,0.8485,0.8164,0.7322,0.517,0.6917,0.8655,0.804,0.3574,0.0102,0.0406,0.0203,0.0,0.0,0.0,0.0823,0.3061,0.332,0.2497,0.0385,0.2085,0.2679,0.1113,0.1527,0.2084,0.2627,0.2082,0.1731,0.1708,0.0535,-0.0089,-0.0089,-0.0851,-0.1441,-0.1856,-0.1835,-0.1832,-0.1839,-0.1839,-0.2223,-0.2875,-0.3367,-0.371,-0.3938,-0.3938,-0.4012,-0.4118,-0.4118,-0.4086,-0.4053,-0.4091,-0.4053,-0.4026,-0.4058,-0.4058,-0.4058,-0.4026,-0.4058,-0.4058,-0.4021,-0.4135,-0.4312,-0.4555,-0.4787,-0.502,-0.5269,-0.5379,-0.5432,-0.5432,-0.5475,-0.6064,-0.8252,-0.8716,-0.8716,-0.8716,-0.8716,-0.8824,-0.9078,-0.9152,-0.924,-0.9522,-0.9927,-1.0212,-1.0212,-1.0516,-1.0788,-1.0788,-1.0805,-1.0813,-1.0864,-1.0813,-1.0813,-1.0864,-1.0813,-1.0813,-1.0813,-1.0813,-1.0813,-1.0813,-1.0906,-1.1015,-1.1015,-1.1015,-1.1015,-1.1015,-1.1015,-1.1015,0.4933,0.5225,0.6051,0.7166,0.743,0.7363,0.721,0.7548,0.7671,0.6853,0.7868,0.8691,0.8026,0.3567,0.0,0.0,0.1841,0.3279,0.3279,0.2055,0.1462,0.2312,0.3059,0.3174,0.2331,0.2338,0.2145,0.1525,0.2036,0.2293,0.2132,0.192,0.1806,0.1799,0.1385,0.0782,0.0,-0.029,-0.0892,-0.1798,-0.1794,-0.1791,-0.1791,-0.1791,-0.1918,-0.2139,-0.2321,-0.2937,-0.3814,-0.3905,-0.395,-0.3993,-0.3993,-0.3826,-0.3593,-0.3891,-0.3793,-0.3593,-0.3891,-0.3993,-0.3961,-0.3658,-0.3556,-0.3495,-0.3237,-0.3302,-0.3497,-0.3597,-0.3825,-0.4109,-0.4172,-0.4487,-0.4826,-0.5216,-0.5303,-0.5518,-0.6355,-0.6833,-0.7182,-0.7558,-0.7599,-0.7827,-0.8463,-0.8789,-0.9181,-0.9849,-0.996,-0.9938,-0.9938,-0.9695,-0.951,-0.951,-0.951,-0.971,-1.0115,-0.9762,-0.9718,-1.0115,-0.9762,-0.951,-0.951,-0.951,-0.951,-0.951,-0.951,-0.9969,-1.0813,-1.0813,-1.0813,-1.0813,-1.0813,-1.0813,0.5111,0.0,0.6029,0.666,0.6705,0.6202,0.4664,0.4802,0.5246,0.5246,0.5601,0.5772,0.5325,0.2368,0.0,0.0,0.287,0.5108,0.5108,0.3831,0.2862,0.2761,0.3401,0.3772,0.3527,0.2812,0.2288,0.2112,0.2471,0.2437,0.1825,0.1614,0.1582,0.1791,0.1798,0.1326,0.0314,0.0111,-0.0401,-0.1208,-0.141,-0.1502,-0.1502,-0.1502,-0.15,-0.1492,-0.1504,-0.217,-0.3276,-0.3348,-0.3478,-0.3574,-0.3574,-0.3372,-0.3142,-0.3442,-0.3372,-0.3138,-0.3442,-0.3574,-0.3508,-0.3208,-0.3111,-0.3056,-0.2791,-0.2821,-0.3003,-0.3086,-0.3346,-0.3585,-0.3585,-0.3884,-0.4224,-0.4618,-0.4748,-0.4787,-0.4957,-0.548,-0.6002,-0.638,-0.6422,-0.6662,-0.7393,-0.7756,-0.8153,-0.8891,-0.883,-0.8705,-0.8705,-0.8349,-0.8049,-0.8049,-0.8049,-0.8249,-0.8705,-0.8302,-0.8249,-0.8705,-0.8302,-0.8049,-0.8049,-0.8049,-0.8049,-0.8049,-0.8049,-0.8501,-0.9408,-0.9894,-1.0115,-1.0115,-1.0115,-1.0115,0.0,0.0,0.0,0.5558,0.5951,0.5595,0.1201,0.0156,0.0089,0.0015,0.0,0.0,0.0,0.0,0.0029,0.0136,0.2888,0.5049,0.5098,0.5088,0.4952,0.4624,0.4573,0.4281,0.3569,0.3506,0.3287,0.2762,0.2698,0.2409,0.1825,0.1253,0.1189,0.1756,0.1785,0.1512,0.0935,0.0356,0.0044,0.0022,-0.0557,-0.0847,-0.087,-0.0851,-0.0868,-0.0912,-0.0899,-0.1369,-0.216,-0.216,-0.2367,-0.2663,-0.2663,-0.2663,-0.2663,-0.2663,-0.2663,-0.2663,-0.2663,-0.2663,-0.2663,-0.2663,-0.2659,-0.2667,-0.2667,-0.2662,-0.2699,-0.2956,-0.3311,-0.3551,-0.3551,-0.3588,-0.3581,-0.3581,-0.3581,-0.3751,-0.4264,-0.4826,-0.526,-0.5303,-0.5308,-0.5454,-0.5899,-0.598,-0.6137,-0.6523,-0.6588,-0.6588,-0.6588,-0.6588,-0.6588,-0.6588,-0.6588,-0.6588,-0.6588,-0.6588,-0.6588,-0.6588,-0.6588,-0.6588,-0.6588,-0.6588,-0.6588,-0.6588,-0.6588,-0.6588,-0.6588,-0.8049,-0.8752,-0.8752,-0.8752,-0.8752,0.7239,0.0,0.0,0.0,0.0,0.0,0.483,0.3729,0.2281,0.0388,0.0,0.0,0.0,0.0,0.0807,0.3288,0.3463,0.3716,0.4942,0.4765,0.4495,0.4394,0.4035,0.3731,0.3527,0.3506,0.3442,0.3287,0.2512,0.1971,0.18,0.1648,0.1418,0.1161,0.1568,0.1727,0.1547,0.1388,0.1072,0.0646,0.0914,0.0601,-0.0223,0.0403,0.0102,-0.0906,-0.0907,-0.1026,-0.128,-0.1474,-0.1617,-0.1676,-0.1676,-0.1676,-0.1676,-0.1676,-0.1676,-0.1676,-0.1676,-0.1676,-0.1676,-0.1676,-0.167,-0.1671,-0.1671,-0.1676,-0.1722,-0.1764,-0.2035,-0.2279,-0.2279,-0.2957,-0.3592,-0.3592,-0.3588,-0.3622,-0.3796,-0.3968,-0.4316,-0.5135,-0.5395,-0.555,-0.593,-0.6101,-0.6252,-0.6543,-0.6588,-0.6588,-0.6588,-0.6588,-0.6588,-0.6588,-0.6588,-0.6588,-0.6588,-0.6588,-0.6588,-0.6588,-0.6588,-0.6588,-0.6588,-0.6588,-0.6588,-0.6588,-0.6588,-0.6588,-0.6588,-0.702,-0.7235,-0.7235,-0.7235,-0.7235,0.0,0.0,0.0,0.0,0.0,0.0,0.5861,0.5581,0.4899,0.3565,0.1544,0.0,0.0,0.0,0.0652,0.2646,0.3347,0.3989,0.4971,0.4834,0.4595,0.4435,0.4171,0.3952,0.3848,0.3731,0.3626,0.3506,0.2886,0.2308,0.1829,0.1803,0.1645,0.1294,0.1608,0.1791,0.1791,0.1798,0.1573,0.1148,0.1596,0.1487,0.0935,0.1176,0.1039,0.0584,0.0059,-0.0093,-0.0033,-0.0555,-0.0753,-0.077,-0.077,-0.077,-0.077,-0.077,-0.077,-0.077,-0.077,-0.0749,-0.0763,-0.0763,-0.0767,-0.0774,-0.0774,-0.0775,-0.0777,-0.0777,-0.0878,-0.1029,-0.1027,-0.1564,-0.2237,-0.2732,-0.2862,-0.301,-0.3481,-0.3589,-0.3792,-0.446,-0.4681,-0.4871,-0.5114,-0.5301,-0.544,-0.5688,-0.5719,-0.5719,-0.5719,-0.5719,-0.5719,-0.5719,-0.5719,-0.5719,-0.5719,-0.5719,-0.5719,-0.5719,-0.5719,-0.5719,-0.5719,-0.5719,-0.5719,-0.5719,-0.5719,-0.5719,-0.5719,-0.6317,-0.6588,-0.6588,-0.6588,-0.6588,0.0,0.0,0.0,0.0,0.6425,0.0,0.5475,0.6342,0.7363,0.7656,0.3942,0.0605,0.0503,0.0465,0.0449,0.0413,0.2726,0.4611,0.4806,0.4825,0.4791,0.4666,0.4655,0.4527,0.4252,0.3986,0.3744,0.3527,0.3426,0.2945,0.1975,0.1891,0.1869,0.1847,0.1825,0.1803,0.1803,0.1794,0.172,0.153,0.173,0.196,0.2184,0.1662,0.1874,0.2596,0.1546,0.1214,0.1356,0.0601,0.0192,0.0,0.0,0.0,0.0,0.0,0.0,0.0,0.0,0.0,0.0,0.0,0.0,0.0,0.0,0.0,0.0,0.0,0.0,0.0,0.0,0.0,-0.0268,-0.134,-0.1607,-0.1988,-0.3313,-0.3488,-0.3401,-0.3378,-0.3605,-0.3839,-0.3973,-0.4123,-0.4321,-0.4446,-0.4522,-0.4522,-0.4522,-0.4522,-0.4522,-0.4522,-0.4522,-0.4522,-0.4522,-0.4522,-0.4522,-0.4519,-0.4522,-0.4522,-0.4519,-0.4522,-0.4522,-0.4519,-0.4519,-0.4519,-0.4519,-0.5769,-0.6372,-0.6372,-0.6372,-0.6372,0.0,0.0,0.0,0.0,0.7566,0.0,0.683,0.7293,0.7534,0.6703,0.5498,0.4351,0.36,0.3413,0.3285,0.303,0.1856,0.1488,0.2891,0.3096,0.3563,0.4858,0.4635,0.4191,0.371,0.3605,0.3548,0.3506,0.2891,0.2576,0.2682,0.2437,0.2245,0.2128,0.1913,0.1803,0.1803,0.1794,0.1785,0.1734,0.1947,0.2075,0.2113,0.2216,0.2282,0.231,0.2326,0.2214,0.2043,0.212,0.1329,0.0,0.0,0.0,0.0,0.0,0.0,0.0,0.0,0.0,0.0,0.0,0.0,0.0,0.0,0.0,0.0,0.0,0.0,0.0,0.0,0.0,-0.0045,-0.0314,-0.0358,-0.095,-0.313,-0.2815,-0.2152,-0.2155,-0.2948,-0.3718,-0.3958,-0.4244,-0.4457,-0.4487,-0.449,-0.449,-0.449,-0.449,-0.449,-0.449,-0.449,-0.449,-0.449,-0.449,-0.4487,-0.4477,-0.4484,-0.4487,-0.4477,-0.4484,-0.4487,-0.4477,-0.4522,-0.4519,-0.4519,-0.4791,-0.4901,-0.4901,-0.4901,-0.4901,0.0,0.0,0.9089,0.8616,0.815,0.0,0.0,0.7251,0.7197,0.7476,0.7419,0.7147,0.6634,0.6415,0.6176,0.5855,0.4608,0.3571,0.3194,0.2086,0.1621,0.2461,0.3088,0.3337,0.3084,0.3332,0.3506,0.3506,0.3134,0.2907,0.2906,0.2676,0.2529,0.2459,0.2154,0.2084,0.2241,0.2245,0.2207,0.2103,0.219,0.227,0.2294,0.2443,0.2448,0.2364,0.2541,0.2499,0.2371,0.2484,0.2066,0.131,0.0838,0.0369,0.0,0.0,0.0,0.0,0.0,0.0,0.0,0.0,0.0,0.0,0.0,0.0,0.0,0.0,0.0,0.0,0.0,0.0,0.0,0.0,0.0,-0.0318,-0.1562,-0.1791,-0.1784,-0.18,-0.2296,-0.2722,-0.2886,-0.3177,-0.3357,-0.3357,-0.3357,-0.3357,-0.3357,-0.3357,-0.3357,-0.3357,-0.3357,-0.3357,-0.3357,-0.3357,-0.3355,-0.335,-0.4092,-0.415,-0.3408,-0.3355,-0.3694,-0.4487,-0.4484,-0.448,-0.448,-0.448,-0.4473,-0.4519,-0.4519,-0.4519,0.9761,0.9705,0.9463,0.873,0.8552,0.8378,0.0,0.0,0.0,0.8425,0.879,0.8869,0.8794,0.8575,0.8309,0.7998,0.7695,0.6685,0.4271,0.2482,0.1248,0.0753,0.2132,0.3124,0.3124,0.339,0.3447,0.3181,0.3421,0.3393,0.3035,0.2869,0.2789,0.2789,0.2459,0.2437,0.2697,0.2697,0.2611,0.2472,0.247,0.2496,0.2527,0.2499,0.2513,0.2513,0.2513,0.2513,0.2486,0.2462,0.2549,0.2626,0.1878,0.1139,0.0504,0.0302,0.0278,0.0364,0.0331,0.0352,0.0337,0.034,0.0349,0.0314,0.009,0.0,0.0,0.0,0.0,0.0,0.0,0.0,0.0,0.0,0.0,0.0,0.0,-0.0741,-0.1432,-0.1442,-0.1432,-0.1446,-0.1457,-0.1645,-0.1786,-0.1786,-0.1786,-0.1786,-0.1786,-0.1786,-0.1786,-0.1786,-0.1786,-0.1786,-0.1786,-0.1786,-0.1785,-0.1785,-0.3474,-0.3931,-0.2683,-0.2065,-0.2345,-0.3588,-0.3925,-0.4039,-0.4039,-0.4039,-0.42,-0.4525,-0.4525,-0.4525,0.9698,0.9586,0.9385,0.9162,0.9076,0.8811,0.7962,0.0,0.8476,0.8011,0.0,0.8858,0.8741,0.0,0.0,0.8131,0.7996,0.7183,0.5061,0.5802,0.572,0.3463,0.4255,0.5002,0.5002,0.4244,0.3275,0.2079,0.309,0.3675,0.3436,0.3196,0.3046,0.3046,0.2783,0.2654,0.2697,0.2697,0.2691,0.2677,0.2659,0.2679,0.2669,0.2565,0.2513,0.2513,0.2513,0.2513,0.2523,0.2634,0.2666,0.2683,0.259,0.2493,0.2289,0.1473,0.1353,0.161,0.1608,0.1607,0.16,0.1575,0.1601,0.1383,0.0313,0.0,0.0,0.0,0.0,0.0,0.0,0.0,0.0,0.0,0.0,0.0,0.0,-0.0101,-0.0206,-0.022,-0.0224,-0.0224,-0.0223,-0.0224,-0.0224,-0.0224,-0.0224,-0.0224,-0.0224,-0.0224,-0.0224,-0.0224,-0.0224,-0.0224,-0.0224,-0.0224,-0.0224,-0.0223,-0.2921,-0.4409,-0.4225,-0.1677,-0.0335,-0.0502,-0.1785,-0.2456,-0.2456,-0.2456,-0.3186,-0.4494,-0.4494,-0.4494,0.9349,0.9482,0.9543,0.9178,0.9264,0.9256,0.8482,0.861,0.8723,0.8143,0.0,0.0,0.0,0.0,0.0,0.0,0.8108,0.7719,0.6217,0.615,0.5541,0.3646,0.499,0.5778,0.5078,0.4738,0.4145,0.3154,0.3694,0.3911,0.3527,0.3393,0.333,0.333,0.3068,0.3004,0.3153,0.3004,0.3012,0.3152,0.285,0.2772,0.2913,0.2631,0.2513,0.2513,0.2513,0.2513,0.2496,0.2651,0.2712,0.2712,0.2686,0.2693,0.2673,0.2399,0.2402,0.2572,0.2777,0.2861,0.2843,0.2849,0.2823,0.2732,0.2237,0.1609,0.1027,0.1029,0.1029,0.1029,0.1029,0.1029,0.1029,0.1029,0.1029,0.1091,0.1252,0.0596,0.0,0.0,0.0,0.0,0.0,0.0,0.0,0.0,0.0,0.0,0.0,0.0,0.0,0.0,0.0,0.0,0.0,0.0,0.0,0.0,-0.1177,-0.1909,-0.1906,-0.0672,0.0,0.0,-0.0615,-0.1343,-0.2186,-0.2186,-0.2523,-0.3144,-0.3193,-0.3188,0.913,0.9417,0.9629,0.906,0.9162,0.9258,0.8739,0.8808,0.8829,0.8285,0.8368,0.0,0.0,0.0,0.0,0.0,0.0,0.7951,0.7093,0.6247,0.5286,0.4201,0.5538,0.6004,0.4623,0.4889,0.4893,0.4342,0.4321,0.3945,0.3078,0.3327,0.3506,0.3506,0.3309,0.3309,0.3506,0.3406,0.3448,0.3627,0.3271,0.3208,0.3391,0.3026,0.2869,0.2912,0.2865,0.2869,0.2924,0.3022,0.2977,0.2878,0.2925,0.2883,0.2768,0.2908,0.3035,0.3185,0.3413,0.3552,0.3592,0.3592,0.3592,0.3592,0.3592,0.2998,0.2277,0.2279,0.2279,0.2279,0.2279,0.2279,0.2279,0.2279,0.2346,0.244,0.2637,0.194,0.1084,0.0694,0.0605,0.0616,0.0616,0.028,0.0,0.0,0.0,0.0,0.0,0.0,0.0,0.0,0.0,0.0,0.0,0.0,0.0,0.0,0.0,0.0,0.0,0.0,0.0,0.0,0.0,-0.0505,-0.1572,-0.1572,-0.1572,-0.1572,-0.1621,-0.1619,0.9218,0.9345,0.9544,0.8878,0.8677,0.8599,0.8447,0.882,0.8985,0.8247,0.8514,0.8681,0.8034,0.0,0.0,0.0,0.0,0.0,0.0,0.6843,0.6351,0.6036,0.625,0.5705,0.3907,0.4624,0.5156,0.5069,0.4644,0.3661,0.1949,0.2899,0.3506,0.3506,0.3485,0.3485,0.3506,0.3814,0.3985,0.3975,0.411,0.4152,0.4164,0.3892,0.3838,0.3936,0.3812,0.3843,0.3951,0.3956,0.3691,0.3311,0.3499,0.329,0.2903,0.2907,0.3055,0.3303,0.3306,0.3449,0.3581,0.3581,0.3581,0.3581,0.3581,0.3578,0.3537,0.3547,0.3551,0.3551,0.3551,0.3551,0.3551,0.3551,0.3756,0.3911,0.3963,0.4158,0.3921,0.2435,0.2119,0.212,0.212,0.095,0.0,0.0,0.0,0.0,0.0,0.0,0.0,0.0,0.0,0.0,0.0,0.0,0.0,0.0,0.0,0.0,0.0,0.0,0.0,0.0,0.0,-0.0,-0.0056,-0.0056,-0.0056,-0.0056,-0.0056,-0.0056,0.95,1.0176,1.031,0.929,0.9249,0.9235,0.8395,0.8603,0.8789,0.799,0.827,0.8408,0.7644,0.0,0.0,0.0,0.0,0.0,0.0,0.6222,0.581,0.5705,0.6236,0.6351,0.5747,0.5823,0.5701,0.5146,0.4635,0.3594,0.1893,0.2879,0.3506,0.3506,0.3506,0.3599,0.3821,0.372,0.3955,0.4522,0.4135,0.4124,0.4437,0.3992,0.3873,0.3978,0.3848,0.3873,0.3993,0.3993,0.4008,0.4039,0.4112,0.4237,0.4247,0.3471,0.3263,0.3364,0.3466,0.3534,0.3581,0.3581,0.3581,0.3581,0.3581,0.3581,0.3581,0.3585,0.3585,0.3585,0.3585,0.3585,0.3585,0.3585,0.3746,0.3894,0.3999,0.4155,0.4201,0.3776,0.3749,0.3697,0.3697,0.3307,0.2294,0.028,0.0,0.0,0.0,0.1741,0.2983,0.2979,0.2977,0.2579,0.1564,0.1452,0.1452,0.1452,0.1452,0.1452,0.1452,0.1452,0.1452,0.1452,0.0503,0.0,0.0,0.0,0.0,0.0,0.0,0.0,1.0417,1.0876,1.075,0.9644,0.9604,0.9548,0.8454,0.8629,0.8794,0.8035,0.8171,0.8285,0.7858,0.0,0.0,0.0,0.0,0.0,0.0,0.5854,0.5593,0.5538,0.6187,0.6659,0.6761,0.6278,0.5769,0.5288,0.4347,0.3452,0.2659,0.332,0.3745,0.3811,0.3811,0.3928,0.4146,0.4012,0.4241,0.4807,0.449,0.45,0.4852,0.4494,0.4382,0.4468,0.4365,0.4388,0.4485,0.457,0.4632,0.4654,0.4822,0.4957,0.501,0.4242,0.3999,0.4071,0.4192,0.4184,0.4184,0.4184,0.4052,0.388,0.388,0.3751,0.3581,0.3581,0.3581,0.3581,0.3581,0.3581,0.3592,0.3643,0.3768,0.3914,0.4066,0.417,0.4362,0.4453,0.448,0.4484,0.4484,0.4487,0.3638,0.1172,0.0782,0.0783,0.0783,0.2467,0.3658,0.3708,0.4163,0.4104,0.3074,0.3019,0.3019,0.3019,0.3019,0.3019,0.3019,0.3019,0.3019,0.3019,0.2066,0.1339,0.0781,0.0905,0.0905,0.0783,0.0917,0.0979]}]]